GFSWCAN_850_thetae_042.txt.gz
Theta_e
303 302 303 308 307 307 308 309 309 309 309 308 308 308 307 306 307 309 309 308 308 305 306 307 307 308 308 308 309 308 308 309 311 312 313 315 315 314 314 314 316 316 316 317 319 322 326 323 324 330 331 326 326 328
303 305 308 308 308 309 310 310 309 309 309 309 308 307 306 307 309 309 309 309 308 307 307 308 308 307 308 308 308 308 308 307 308 311 312 311 312 312 313 314 314 314 317 318 318 320 325 319 320 319 320 322 323 322
308 308 308 309 309 310 310 310 309 308 307 307 308 310 310 310 309 309 310 309 308 306 306 307 310 310 309 308 308 308 307 307 307 307 307 309 311 312 312 312 313 314 314 316 316 317 319 317 317 317 317 318 318 318
309 309 309 310 311 310 309 308 307 307 308 310 311 312 311 310 309 309 309 309 308 306 306 310 310 310 310 309 308 307 306 306 307 306 307 309 310 309 312 312 312 312 313 314 315 316 316 315 315 316 316 316 317 317
309 309 310 311 311 309 308 306 308 310 311 312 313 311 312 310 310 310 309 307 307 307 308 309 310 309 308 308 307 307 307 307 307 306 306 308 307 308 309 310 311 311 312 314 316 315 315 316 315 316 317 316 316 317
309 310 312 311 310 307 307 310 311 312 313 313 311 312 310 310 310 311 310 309 307 306 307 309 310 310 309 308 308 307 305 304 305 303 303 304 305 305 309 309 308 308 308 308 310 309 311 312 312 314 316 316 317 317
310 312 311 311 308 308 312 312 313 313 313 312 311 312 310 310 311 311 310 309 307 306 307 310 313 311 310 309 307 306 305 304 303 301 300 300 302 304 305 308 307 307 309 308 308 307 309 310 311 313 314 315 316 316
312 311 311 308 309 312 313 313 313 313 313 311 311 312 312 312 311 311 308 307 306 307 306 309 314 314 311 311 308 306 304 302 302 302 302 300 301 301 305 306 309 310 313 316 317 317 314 316 314 313 312 313 315 316
312 311 308 309 312 313 313 313 313 313 313 312 312 314 313 313 313 311 309 309 307 308 308 311 312 317 313 312 310 306 305 306 303 304 306 303 303 308 308 311 311 310 313 315 318 318 317 316 314 314 313 313 314 315
312 309 309 312 313 313 313 313 313 313 314 315 316 315 316 314 312 312 312 311 311 312 311 313 311 315 314 314 313 313 308 314 313 314 310 313 311 310 310 311 311 309 314 316 315 315 314 314 313 312 312 314 314 314
311 308 311 313 313 313 312 312 313 317 318 318 319 319 315 315 314 314 320 318 319 318 316 314 317 318 315 316 316 315 319 317 322 315 315 313 311 311 310 311 310 310 310 313 315 315 316 315 314 313 314 315 316 317
311 309 312 313 313 313 312 312 314 318 317 315 316 317 317 317 319 320 318 319 320 323 319 320 321 317 319 316 316 319 321 319 315 313 314 312 313 311 311 310 310 310 310 310 312 313 314 314 314 315 317 316 316 316
312 309 312 313 313 313 313 315 316 314 316 320 320 319 319 318 320 320 321 320 321 318 317 318 321 317 322 320 321 321 318 319 315 315 314 313 312 311 310 310 309 309 309 311 310 311 311 311 311 312 313 313 314 314
312 309 312 313 312 312 313 316 316 317 318 319 318 317 319 318 318 318 317 317 316 316 317 319 320 321 319 319 317 317 319 315 315 315 314 313 311 311 310 309 308 307 308 309 311 310 310 310 310 311 312 312 312 312
313 309 311 312 312 312 313 317 317 318 319 318 318 321 318 317 317 316 315 315 314 316 317 318 320 319 318 317 315 315 316 315 314 314 313 312 311 310 310 309 308 307 306 306 308 310 310 311 309 309 309 309 310 312
313 315 313 312 312 313 314 319 318 319 318 318 317 318 317 317 316 314 313 313 312 314 315 318 317 317 316 315 314 314 315 314 314 313 312 311 311 311 309 308 308 306 305 304 305 308 310 308 309 309 308 307 307 308
318 320 315 315 312 316 318 320 318 318 318 318 318 317 317 316 315 314 313 312 313 314 316 316 315 315 314 312 313 311 311 310 309 310 311 311 310 308 308 307 307 306 304 304 303 306 307 309 308 308 308 307 306 306
317 316 315 315 313 317 321 320 318 318 318 317 317 317 317 316 314 313 313 312 312 313 314 314 312 312 312 310 310 310 308 307 306 308 310 310 310 308 308 307 307 305 304 304 303 306 306 306 306 307 306 306 306 306
312 312 313 315 316 320 320 320 321 319 318 317 317 317 317 317 315 313 313 312 312 312 311 312 312 312 311 309 308 307 307 306 306 306 308 310 309 307 307 306 305 304 304 304 304 305 305 305 305 305 305 304 304 303
312 312 313 315 317 324 321 320 321 321 320 318 318 317 317 317 316 314 313 313 312 312 311 312 311 310 309 308 307 306 306 305 305 305 306 304 304 305 305 305 304 304 303 304 304 303 305 305 304 304 303 303 302 302
317 318 313 317 326 323 319 319 321 319 319 319 319 319 318 318 317 315 314 313 313 312 313 311 310 310 310 309 307 307 306 305 305 305 304 303 303 304 304 304 303 303 303 303 303 303 302 301 302 302 302 302 302 300
322 314 319 324 324 322 322 319 319 320 321 320 319 318 318 317 316 315 314 313 313 312 312 311 311 310 309 309 308 307 306 305 304 304 303 303 303 303 303 303 303 303 302 302 302 302 301 300 300 301 301 301 301 299
316 317 324 324 323 322 319 320 321 320 319 319 318 318 317 317 317 316 315 313 313 312 312 312 311 311 311 310 309 309 307 305 303 303 303 303 302 302 302 302 302 302 302 302 302 301 301 300 300 300 300 300 300 300
318 325 325 324 321 320 320 321 320 320 319 319 318 319 318 318 317 317 316 313 312 311 312 311 309 309 309 311 309 306 305 304 302 302 302 302 301 301 301 301 301 301 300 301 301 301 301 300 300 300 299 298 299 300
324 320 323 317 320 321 320 319 318 318 318 318 318 318 318 317 318 317 316 314 313 312 311 311 310 308 307 307 306 305 303 302 301 301 302 300 300 300 300 300 301 301 300 300 300 300 300 300 299 299 299 298 298 300
316 321 320 320 320 320 320 319 319 319 319 318 318 318 319 319 318 317 316 314 314 313 312 311 310 309 308 306 305 304 303 301 301 301 300 300 299 299 299 299 300 299 298 299 299 299 299 299 299 299 299 299 298 298
316 321 320 319 319 320 321 320 320 321 321 320 318 318 319 319 318 317 315 315 314 313 312 312 310 309 308 307 304 303 302 301 301 301 300 300 299 299 299 299 299 297 297 298 298 298 298 298 298 298 298 298 298 298
322 320 321 321 321 319 321 322 321 321 320 319 318 320 320 320 320 317 316 315 314 314 313 310 308 307 307 305 304 303 302 301 301 301 301 301 300 300 299 299 298 298 297 297 297 297 297 296 297 297 297 298 297 297
323 322 322 320 321 321 322 321 322 321 319 319 319 318 317 318 315 315 316 315 315 314 313 311 310 309 307 307 305 304 303 302 301 301 301 301 300 299 299 298 298 298 298 298 296 296 295 295 296 296 297 297 297 297
323 323 322 320 321 323 321 321 321 319 318 317 317 317 319 319 318 317 316 315 314 313 310 309 309 307 307 305 304 303 301 301 301 300 300 300 299 299 299 298 297 297 297 297 297 298 297 296 297 297 297 296 296 296
322 320 321 321 321 321 321 321 319 318 319 319 318 318 318 319 318 316 315 315 312 310 309 308 308 307 305 303 302 301 300 300 301 300 299 299 299 298 298 297 298 297 297 297 297 297 297 296 296 296 296 296 296 296
322 322 322 322 319 319 320 321 320 318 318 318 318 317 318 319 319 317 313 311 310 309 308 307 306 304 303 302 301 300 299 300 299 298 297 297 297 296 296 297 297 297 297 297 297 296 296 296 296 296 296 296 296 296
322 321 321 319 320 320 319 319 318 319 319 319 319 319 318 318 317 314 310 308 308 307 306 305 304 302 301 301 300 300 300 299 298 297 296 294 293 293 295 295 295 295 296 296 296 296 296 296 296 296 296 296 295 296

GFSWCAN_850_thetae_045.txt.gz
Theta_e
309 303 307 308 309 309 309 309 310 309 308 308 307 307 307 307 307 308 309 309 308 306 307 308 307 308 308 308 310 308 308 309 309 311 312 312 315 313 313 314 314 317 318 317 318 322 327 319 320 321 325 323 322 321
304 309 309 309 309 310 310 309 309 308 306 307 309 310 311 309 308 309 309 310 309 308 308 307 307 308 308 308 308 308 308 308 307 309 309 309 310 313 311 315 313 315 314 314 316 316 317 317 318 317 318 318 318 318
309 308 309 309 310 311 310 308 307 307 309 311 312 312 310 309 309 309 309 309 309 307 307 308 309 309 309 309 309 308 307 307 307 307 307 308 310 309 312 312 310 311 312 312 313 314 314 316 316 316 316 316 317 316
309 309 309 310 311 310 308 307 308 310 312 312 313 311 311 310 309 309 309 308 308 307 307 310 310 310 309 308 308 308 307 306 306 306 306 309 309 307 309 309 309 310 311 310 310 311 311 314 312 312 313 313 316 317
309 309 311 311 311 308 307 310 312 312 313 313 311 312 310 310 310 310 308 308 306 307 308 308 310 310 310 309 308 307 306 306 306 305 306 306 306 306 307 308 311 308 308 310 310 309 309 309 310 310 310 311 313 315
309 311 311 311 309 308 312 312 313 313 313 312 312 311 311 311 311 311 310 309 308 307 307 310 311 311 310 310 307 306 305 305 304 303 302 302 304 304 306 307 307 308 307 306 307 309 309 310 310 311 310 310 311 313
311 312 311 309 308 312 313 313 313 313 313 311 312 311 311 310 310 311 311 308 307 306 308 312 315 313 311 310 309 307 306 304 303 301 301 301 302 304 303 307 306 307 309 310 312 314 313 311 311 314 316 314 312 313
312 312 309 308 312 313 313 313 313 313 312 311 312 313 312 313 313 312 310 309 308 308 307 313 316 315 312 312 310 308 306 304 304 303 303 301 302 301 304 304 308 308 310 315 317 317 317 316 316 317 317 316 314 313
312 311 308 312 313 313 312 313 313 314 314 314 314 315 315 314 314 313 311 311 309 309 312 314 316 318 313 313 310 307 307 308 305 305 307 304 302 306 309 309 309 309 309 313 315 315 315 314 314 316 317 316 314 314
312 311 309 312 313 313 312 312 313 314 316 316 316 317 318 316 314 314 313 313 313 313 312 314 314 318 316 314 314 312 307 312 314 314 309 310 311 311 308 308 309 311 308 309 311 313 316 314 313 314 314 314 313 313
312 311 310 312 313 313 313 313 314 318 319 319 320 320 316 315 315 316 319 319 319 316 317 314 316 319 318 317 316 315 317 316 316 315 315 312 312 312 310 307 307 308 310 308 309 311 311 314 314 314 315 315 315 315
312 310 310 313 313 313 315 316 315 318 318 315 316 318 320 319 319 321 321 321 322 321 321 321 319 319 318 316 315 317 319 318 317 313 312 312 312 311 310 309 306 306 308 309 309 309 310 310 311 311 311 312 312 311
312 311 309 312 312 312 314 316 317 316 317 320 320 322 321 319 317 319 320 321 321 318 317 319 322 319 320 319 319 319 319 318 315 313 310 313 312 310 310 309 306 305 306 308 309 308 309 309 309 310 310 308 309 311
312 312 309 311 312 312 313 317 317 318 318 321 319 314 321 322 319 319 317 316 315 314 315 319 320 321 320 320 318 319 318 314 312 312 312 311 312 310 309 309 308 304 305 307 309 309 308 307 308 308 309 309 308 306
312 313 311 313 313 312 314 318 318 318 320 320 319 316 321 317 316 315 314 314 313 314 315 318 320 317 318 318 315 315 315 314 312 314 313 311 310 309 308 307 308 304 303 304 307 309 309 308 306 306 307 307 305 305
314 316 316 316 314 314 316 319 319 320 320 318 318 319 318 316 316 315 314 314 313 314 315 317 317 317 315 314 313 313 313 314 313 314 311 311 309 306 306 307 307 305 303 304 306 307 309 308 308 307 306 307 307 305
314 320 316 314 314 316 319 319 322 319 319 319 319 318 317 316 315 315 314 313 313 314 317 315 314 316 314 312 312 311 313 311 308 311 311 310 310 309 308 308 307 305 304 304 306 306 307 308 306 306 306 306 304 304
313 313 312 313 316 320 323 320 320 319 319 318 319 317 318 317 315 314 314 312 313 312 313 316 312 313 312 311 311 310 308 307 306 306 309 311 309 307 308 307 304 305 304 304 305 306 305 305 305 305 304 304 303 304
312 312 312 313 316 320 323 320 321 322 319 318 318 317 317 317 316 315 314 313 312 312 312 312 313 312 312 309 309 307 307 306 305 306 306 305 305 304 306 305 304 304 305 304 304 304 304 304 303 303 303 301 301 301
313 313 312 315 318 322 325 321 321 323 320 319 319 318 318 318 318 316 314 313 313 313 312 313 313 311 310 309 308 307 307 306 306 306 306 304 303 304 305 304 303 304 303 304 303 302 302 302 301 302 302 300 300 300
316 322 315 318 325 323 322 319 321 321 320 320 320 320 320 319 318 316 315 314 314 312 313 313 311 311 310 309 309 308 308 306 305 304 305 304 303 303 304 303 303 303 303 303 303 302 301 300 301 301 301 300 300 300
320 317 316 326 325 324 322 321 319 320 321 321 321 320 319 319 318 316 315 315 314 313 312 312 312 309 310 310 310 309 308 307 305 304 303 303 303 302 303 303 302 303 302 302 302 301 301 300 300 300 300 301 300 300
316 318 325 326 323 322 318 320 322 322 322 320 320 320 319 318 317 316 317 315 314 313 312 313 310 310 311 310 310 310 309 306 304 303 303 303 302 301 302 302 302 302 301 301 302 301 301 300 300 300 299 300 301 301
324 324 326 325 324 320 321 322 323 321 320 321 322 321 320 319 318 318 320 315 312 312 312 311 310 310 310 311 310 306 304 303 302 302 302 301 301 301 301 301 301 300 300 300 301 301 301 300 300 300 299 299 300 300
325 321 323 321 319 321 322 322 320 320 321 320 321 322 320 317 317 319 319 315 314 313 312 312 311 310 309 308 306 304 303 302 301 301 301 300 300 300 300 300 300 300 299 299 300 300 300 300 299 299 299 299 300 299
312 321 320 323 322 322 320 320 322 317 319 318 320 319 320 320 319 319 318 316 314 314 313 312 311 310 309 308 305 304 303 302 301 301 301 300 300 299 299 300 299 298 297 299 299 299 299 299 299 299 299 299 298 298
313 322 322 321 320 319 321 318 318 321 322 320 319 320 321 321 319 313 314 316 315 314 313 312 310 309 308 307 305 304 303 302 302 302 301 301 300 300 299 299 298 298 298 298 297 297 298 297 298 298 298 298 298 298
324 324 323 321 323 322 319 319 319 321 323 321 321 321 319 321 318 313 315 314 315 314 313 311 310 308 308 307 306 305 304 303 302 301 302 302 301 300 299 299 298 298 298 298 297 297 296 296 297 297 298 298 297 297
323 323 323 324 323 324 323 322 322 322 321 322 321 319 319 316 316 316 315 314 315 314 312 311 311 310 308 307 306 303 302 302 302 301 301 301 300 300 299 298 298 298 298 298 297 296 296 296 296 297 297 297 297 298
324 324 324 324 325 324 322 321 321 320 322 320 320 319 318 316 315 315 316 314 312 311 310 309 309 308 306 304 303 302 301 301 301 301 300 299 300 299 298 298 298 298 298 297 298 298 297 297 297 297 296 296 296 297
323 322 320 320 323 322 322 322 321 319 320 318 315 316 319 317 314 313 314 312 311 310 309 307 306 305 303 302 301 301 301 300 300 299 299 299 298 297 297 297 298 298 298 297 297 297 297 296 296 296 296 296 296 296
322 323 323 324 321 319 321 321 322 319 319 317 315 317 319 316 317 315 310 309 308 307 306 305 304 302 302 301 301 300 300 300 299 298 296 295 294 295 296 296 296 296 297 297 297 297 296 296 296 296 296 296 296 296
322 322 323 321 321 320 319 320 320 319 322 320 319 320 319 319 315 313 310 308 306 306 305 304 303 302 301 301 301 300 300 299 298 297 296 295 294 294 294 294 295 295 296 296 296 296 296 296 296 296 296 296 296 295

GFSWCAN_850_thetae_048.txt.gz
Theta_e
305 308 309 309 309 309 310 310 308 307 307 308 309 310 310 308 308 308 309 309 309 308 308 308 307 307 307 308 309 308 306 306 304 307 310 309 312 312 312 312 313 315 317 315 316 324 325 315 317 318 315 315 315 317
309 309 309 309 310 311 310 308 307 307 310 311 312 312 309 308 308 309 309 309 309 308 308 309 309 309 309 308 307 308 306 306 306 305 306 307 309 310 310 313 309 313 311 314 312 316 314 313 315 315 313 312 312 314
309 309 309 310 311 310 309 307 310 312 312 312 312 311 310 309 308 309 309 309 309 307 308 309 309 310 308 308 308 308 307 306 306 306 305 306 309 306 309 310 310 309 309 309 308 310 309 309 311 312 310 310 310 312
310 309 310 311 310 309 308 312 312 313 313 312 311 311 310 309 309 309 308 308 307 307 306 310 309 310 309 307 308 308 307 306 306 306 305 303 307 306 306 306 307 308 308 309 308 308 309 310 311 309 310 311 311 311
309 310 311 311 308 308 312 312 313 313 313 312 311 310 311 311 310 310 309 307 307 307 306 309 310 310 309 307 306 306 306 305 305 305 304 305 305 304 302 303 309 308 308 309 310 308 308 308 308 310 311 313 312 311
309 312 311 308 308 312 313 312 312 313 312 312 311 311 311 311 312 311 311 310 307 307 307 306 312 312 310 309 309 307 306 304 303 303 302 302 303 304 304 304 307 306 308 310 313 312 309 309 310 313 313 313 313 315
311 312 310 308 312 313 312 312 312 313 312 313 312 312 312 312 310 311 310 309 308 308 309 309 312 312 311 311 310 310 309 306 303 302 303 302 303 303 302 305 304 309 309 310 312 315 313 315 314 315 313 314 316 316
312 312 308 311 312 313 312 312 312 314 312 311 313 314 314 314 313 313 312 311 309 309 308 311 313 313 313 313 312 310 308 307 305 304 304 303 302 301 305 306 308 309 309 310 312 313 315 314 313 314 315 314 316 316
312 312 308 311 312 312 312 313 313 315 316 315 314 315 315 315 314 314 313 312 310 310 311 312 314 317 313 313 310 309 308 307 305 306 307 305 302 306 305 307 308 310 308 309 311 311 313 313 315 314 315 315 315 314
312 312 309 312 312 312 313 314 315 317 318 317 316 317 318 317 314 315 314 314 313 312 311 312 314 316 316 314 313 310 308 311 312 309 307 308 311 310 309 306 306 308 309 308 309 309 311 311 310 311 311 311 312 312
312 312 309 312 312 312 314 316 315 317 318 318 318 320 318 316 315 316 316 315 317 312 315 315 315 316 318 315 315 314 314 310 308 310 309 311 311 310 310 306 304 306 309 308 308 308 308 309 308 308 308 308 308 310
312 312 309 312 312 312 313 316 316 316 317 316 315 316 319 319 318 317 314 317 315 315 318 317 318 318 318 316 314 315 315 313 313 310 308 311 312 309 309 309 304 304 307 309 307 308 309 308 307 307 307 307 307 306
312 312 311 310 312 312 312 315 316 316 317 316 320 320 321 318 312 318 316 313 312 313 313 315 317 319 319 317 316 315 315 314 311 308 310 310 310 309 307 308 306 303 304 307 308 307 307 307 307 306 306 306 306 307
311 313 311 311 312 313 312 315 316 317 317 318 323 309 314 316 315 314 310 310 313 313 313 313 319 319 319 317 312 316 311 308 309 309 309 307 311 308 307 307 307 303 304 304 307 309 307 307 307 306 305 305 305 305
311 315 314 316 315 313 315 318 318 318 318 322 319 314 318 315 314 314 313 312 312 313 314 315 318 315 311 312 309 310 311 309 309 308 306 310 310 307 307 307 307 306 304 305 307 309 308 307 306 305 305 304 304 304
311 315 316 314 314 313 316 319 319 319 320 320 318 316 316 314 314 314 313 312 312 312 314 315 312 311 310 308 310 310 308 303 307 308 310 311 309 308 307 307 306 305 304 305 306 308 308 307 307 305 304 304 304 303
311 313 312 312 313 315 319 319 320 321 319 319 318 318 316 315 314 314 313 312 311 311 309 310 310 313 308 309 309 307 307 304 306 306 307 310 308 307 307 307 304 305 304 305 305 304 306 306 305 304 304 304 303 302
312 312 312 312 312 317 319 321 321 319 319 318 318 317 317 316 314 314 313 313 312 311 311 312 311 309 309 309 307 305 306 306 305 306 309 307 307 307 306 305 304 304 304 305 305 304 303 303 303 301 301 301 302 301
313 312 312 312 315 318 321 322 319 322 320 318 318 318 318 317 316 315 313 313 312 311 311 311 308 308 306 307 307 307 307 306 305 305 306 304 303 303 304 304 303 304 304 303 303 303 302 302 302 302 301 300 300 300
313 314 313 312 316 320 324 322 320 321 322 319 319 318 318 318 318 317 314 313 313 312 311 309 309 310 309 308 308 307 307 306 305 304 304 304 303 303 304 304 303 303 303 302 302 301 301 301 301 301 300 300 300 300
315 320 316 315 322 325 323 319 320 322 320 319 320 320 320 319 319 315 315 314 313 312 312 311 311 310 310 309 309 308 307 307 304 304 305 303 303 302 302 302 303 302 302 302 302 301 300 300 300 300 300 299 299 300
316 315 314 324 325 324 323 322 319 318 320 321 321 321 320 319 319 316 315 315 313 312 312 312 311 309 309 310 310 309 309 306 306 305 303 302 301 301 302 302 302 301 302 302 301 301 301 300 300 300 300 300 300 300
317 316 323 325 325 322 320 318 320 321 322 320 320 319 319 317 316 317 316 316 314 313 312 312 310 311 311 310 311 310 309 307 303 302 302 301 301 301 301 301 301 301 300 301 301 301 300 300 299 299 301 300 300 299
323 322 326 325 324 320 320 322 323 323 321 318 318 319 319 317 316 318 318 313 313 313 312 311 310 309 309 311 309 307 303 303 302 301 301 300 300 300 301 300 300 300 299 300 300 300 300 299 299 299 300 300 299 299
321 321 319 322 319 320 321 321 320 317 319 317 318 317 318 315 314 316 314 312 313 313 312 311 311 309 308 307 304 303 302 303 302 301 301 300 300 300 300 299 299 299 299 299 299 299 299 299 299 299 298 299 299 298
312 321 320 322 323 322 322 321 321 320 319 318 317 319 318 316 318 315 314 316 315 313 313 312 311 309 308 306 304 303 303 302 302 301 301 300 300 299 299 299 299 298 298 298 298 298 298 299 298 299 298 298 298 298
313 319 321 321 320 321 319 319 319 319 321 320 318 320 320 319 318 315 313 315 316 314 314 312 311 309 308 305 305 306 303 302 302 301 301 300 300 300 299 299 298 298 298 298 297 297 297 297 298 298 298 297 297 297
325 323 323 324 323 321 320 319 319 318 320 321 317 317 321 319 316 315 314 314 314 314 313 312 311 310 308 307 306 306 304 303 301 301 301 301 300 299 299 298 298 298 298 298 298 297 296 296 297 298 298 297 297 297
322 322 323 322 324 322 322 320 320 320 321 320 319 316 316 315 315 314 315 315 314 313 310 310 311 310 307 302 302 302 301 301 301 300 300 300 299 299 299 298 298 298 298 298 297 296 296 296 296 297 297 297 297 297
322 322 323 324 323 322 323 322 323 321 319 316 315 316 316 315 313 315 313 311 311 309 308 307 304 303 302 302 301 301 301 301 300 300 299 298 297 297 297 298 298 298 297 297 297 297 297 297 297 297 296 296 296 296
321 322 322 321 321 321 321 322 320 318 316 315 315 315 316 314 313 312 310 308 310 307 306 305 304 303 302 301 301 300 300 299 298 298 296 296 296 296 297 297 297 297 297 297 297 297 296 296 296 296 296 296 296 296
322 323 322 322 322 322 321 321 320 317 317 318 318 318 316 315 316 310 308 307 306 305 304 304 302 301 301 301 300 300 299 298 297 296 295 294 295 295 295 296 296 296 296 296 296 296 296 296 296 296 296 296 296 296
324 322 322 322 322 321 320 320 321 318 319 318 318 319 319 316 313 311 307 306 305 304 303 302 302 301 301 300 300 299 299 298 297 296 295 294 294 293 293 294 295 295 295 295 295 295 295 295 296 296 296 295 295 295

GFSWCAN_850_thetae_051.txt.gz
Theta_e
309 309 309 308 309 310 310 308 307 310 311 312 312 312 309 308 308 308 308 309 309 308 309 308 308 307 308 307 306 307 307 306 305 307 307 308 310 311 312 310 312 314 315 316 317 324 326 314 317 317 313 313 311 311
309 309 308 309 311 310 308 309 312 312 312 312 312 311 309 309 308 308 309 309 309 309 309 309 310 309 309 308 308 306 307 306 306 305 306 308 311 308 309 312 310 313 310 312 312 315 313 310 314 310 310 311 311 311
309 308 309 311 310 308 310 312 312 312 312 312 312 311 310 308 308 308 308 308 308 307 309 310 309 309 307 307 308 308 306 306 305 306 305 306 309 306 309 309 310 309 308 309 309 309 308 309 311 311 311 310 311 313
309 310 311 310 308 310 312 312 312 312 312 312 312 311 310 309 308 308 307 307 307 306 306 311 310 310 308 307 308 307 307 306 305 305 303 303 307 304 309 307 310 308 308 307 309 309 310 311 311 311 310 312 313 314
309 311 311 308 309 312 312 312 312 312 312 313 312 311 311 310 310 309 308 307 307 308 306 310 310 310 310 308 306 306 306 305 304 304 303 305 304 305 303 305 308 306 306 308 311 311 311 310 313 312 312 314 314 313
310 311 311 308 311 312 312 312 312 313 312 312 311 312 311 312 312 312 311 310 308 307 307 308 312 312 311 310 310 308 307 306 303 303 302 302 302 304 306 308 307 309 309 310 312 313 314 313 313 314 314 315 313 314
311 312 310 309 311 312 312 312 312 313 312 313 313 312 311 311 311 311 310 310 309 308 308 309 312 312 313 312 310 309 308 307 304 304 303 303 302 302 303 307 307 309 309 309 311 313 313 314 314 315 315 314 314 316
312 312 310 309 312 312 313 313 313 315 314 313 314 314 314 313 313 313 311 311 309 309 309 308 314 314 315 313 312 310 309 307 305 305 305 304 302 303 303 306 306 309 308 309 309 311 310 311 311 312 313 314 314 314
312 312 310 310 312 312 314 313 315 315 316 316 316 316 315 315 314 314 313 311 311 310 310 311 313 316 314 313 312 311 309 307 307 306 307 306 303 307 307 308 306 309 308 308 308 308 309 308 308 308 308 308 308 310
312 312 311 310 312 312 313 315 315 316 317 317 318 317 318 316 314 313 313 312 311 312 311 309 313 315 315 314 313 311 309 308 311 309 308 309 310 309 309 307 305 309 307 308 308 308 308 308 308 307 307 307 307 307
312 312 311 309 312 312 312 315 316 316 317 316 315 319 316 317 314 315 314 313 314 311 313 313 313 312 317 315 314 313 313 308 307 308 308 309 309 309 307 308 305 306 308 307 308 307 307 307 307 306 306 306 306 305
312 311 312 310 311 312 312 312 315 316 316 316 316 316 317 318 317 315 312 313 313 313 315 316 317 315 317 316 314 314 314 312 312 308 308 307 306 309 307 307 306 304 306 307 307 307 305 305 304 304 305 305 306 306
312 311 313 310 310 311 313 313 313 315 315 316 320 318 320 316 309 314 313 311 309 311 312 312 313 318 317 316 315 313 313 311 307 306 308 308 309 307 306 307 306 305 304 306 308 307 306 306 304 304 303 304 305 305
312 312 313 314 316 314 314 313 315 316 316 317 321 310 313 313 315 314 309 308 312 312 312 311 315 317 317 315 310 312 308 306 306 301 304 304 309 306 306 307 307 304 304 306 308 308 306 305 304 304 303 302 303 303
312 311 315 316 314 313 313 316 317 318 318 320 320 311 316 314 314 313 313 311 311 311 312 315 313 311 307 309 306 307 308 305 304 303 304 309 309 307 307 306 306 305 304 305 306 308 307 306 305 304 304 303 302 301
312 311 316 315 312 313 314 317 318 319 319 320 320 315 315 312 312 313 313 312 311 311 312 311 309 309 308 306 308 309 307 301 304 304 308 309 308 308 306 307 307 304 304 305 304 307 307 306 305 304 303 303 302 301
313 312 312 311 311 313 315 317 319 320 319 318 318 317 316 314 313 313 313 312 311 311 307 308 309 311 306 307 308 305 305 302 305 305 308 309 309 309 307 306 305 304 304 305 304 303 306 303 303 302 303 302 301 301
314 313 312 311 312 314 318 317 320 321 318 318 317 317 317 316 315 314 313 313 312 311 310 310 308 307 308 308 306 303 306 306 305 305 304 304 303 303 304 304 303 305 304 305 304 303 303 302 302 300 300 301 301 300
313 312 312 312 312 316 320 323 323 320 321 318 317 317 317 317 317 316 314 313 312 311 311 310 307 307 305 306 306 307 306 305 304 305 304 304 303 303 304 304 303 304 303 302 302 301 301 301 301 300 300 300 300 299
314 314 315 316 313 318 322 324 320 320 321 319 318 318 318 318 318 318 316 313 312 312 310 308 308 309 309 309 308 307 307 305 304 303 304 303 303 302 302 303 303 304 303 302 301 300 301 300 300 300 299 299 300 300
315 317 317 314 319 323 323 322 319 320 321 319 318 319 320 320 319 317 314 312 312 311 310 311 311 309 309 309 309 308 307 305 304 305 306 303 302 301 302 302 302 302 302 301 301 301 300 300 300 300 299 299 300 300
316 314 314 321 324 325 324 322 320 319 319 319 319 320 320 319 318 318 316 314 312 312 312 312 311 309 309 309 309 309 308 306 307 304 302 301 301 301 301 301 301 301 301 301 301 301 300 299 299 300 299 300 300 300
319 316 320 323 325 323 321 319 318 320 319 320 319 318 318 317 317 316 316 314 314 313 312 310 310 311 309 310 310 310 309 308 303 302 301 300 300 300 300 300 300 300 301 301 301 300 299 299 299 300 300 300 299 299
321 321 325 325 324 321 321 320 322 323 320 317 315 316 316 316 316 316 315 314 313 313 312 312 311 311 309 311 310 309 308 303 301 301 300 300 300 300 300 300 300 300 299 299 300 300 299 299 299 300 299 299 299 298
320 321 319 318 318 319 319 319 318 318 318 317 317 317 316 315 315 314 312 312 313 314 313 312 311 310 308 308 307 304 303 302 302 301 301 300 300 299 299 299 298 298 298 299 299 299 299 299 299 299 299 298 298 298
313 322 319 321 322 319 321 320 319 318 317 318 317 318 316 316 318 317 313 314 315 314 313 313 312 309 308 307 305 304 304 303 302 301 301 300 300 299 299 299 298 298 297 297 298 298 298 298 298 298 298 298 297 297
313 318 318 320 320 320 319 318 318 317 319 319 316 319 320 318 317 315 314 314 314 315 314 313 312 310 309 306 304 305 306 303 301 301 301 300 299 300 299 299 298 298 298 298 297 297 297 298 298 298 297 297 297 297
321 323 321 322 322 321 320 318 317 317 316 318 316 316 317 316 314 315 314 315 314 314 313 312 310 308 305 306 306 306 305 303 302 301 300 301 300 299 299 298 298 298 298 298 297 296 296 297 298 297 297 297 297 297
321 323 324 322 322 321 320 319 319 319 320 318 316 314 314 316 315 313 313 314 315 313 311 310 309 305 304 306 303 302 302 302 301 301 301 300 299 299 298 298 298 298 298 297 297 297 296 296 297 297 297 297 297 296
320 320 323 322 321 320 322 321 320 321 319 317 316 315 316 314 310 309 310 311 309 308 307 307 304 303 302 302 301 300 300 299 299 299 299 298 297 297 298 298 298 298 297 297 297 297 296 296 296 296 296 296 296 296
319 321 322 321 320 320 321 322 321 318 316 315 316 316 315 313 309 307 307 308 306 306 305 304 302 301 301 300 300 300 299 297 296 295 294 296 296 297 297 297 297 297 297 297 296 296 296 296 296 296 296 296 296 296
322 323 322 319 319 320 320 318 317 317 317 316 316 316 314 314 313 307 306 306 306 305 304 303 303 301 300 300 299 299 297 297 296 294 294 294 294 295 295 296 296 296 295 295 295 296 296 296 296 296 296 296 295 295
323 323 322 321 320 319 319 318 318 317 317 318 317 316 317 315 312 309 305 305 304 304 303 302 302 301 300 299 299 298 297 296 295 294 294 293 293 294 294 294 294 294 295 295 295 295 295 295 295 295 295 295 295 294

GFSWCAN_850_thetae_054.txt.gz
Theta_e
310 309 309 310 310 308 308 311 312 312 312 312 312 309 308 308 308 308 308 308 308 308 308 309 308 308 308 307 305 306 306 305 306 307 307 307 309 309 311 310 310 312 312 315 315 319 324 310 314 317 312 311 311 311
310 309 310 310 308 308 312 312 312 312 312 312 311 310 309 308 308 308 308 308 308 307 309 309 309 308 306 307 308 306 306 306 306 306 307 306 310 307 310 313 309 313 310 310 311 313 310 309 310 311 311 310 311 312
309 309 311 310 308 311 312 311 311 312 312 312 311 310 309 308 308 308 308 308 308 307 308 310 309 308 306 307 306 307 307 306 305 305 305 306 309 306 309 310 311 309 307 309 309 310 311 310 310 311 311 310 312 313
308 310 311 309 309 312 312 312 311 312 312 313 311 311 309 308 308 308 307 308 308 307 306 310 310 310 307 307 307 307 306 306 305 304 302 302 307 304 306 306 309 308 307 306 308 310 310 312 313 312 312 312 313 314
309 311 311 309 310 312 312 312 312 312 313 312 312 312 311 311 310 309 308 308 308 308 309 311 310 311 310 309 308 308 307 306 305 304 303 304 303 304 304 305 307 309 307 309 310 311 312 312 313 313 314 313 314 314
309 311 311 309 311 312 313 313 313 312 313 312 312 312 312 312 311 312 311 310 308 307 308 309 313 312 311 312 311 310 308 308 305 302 302 303 303 304 306 308 307 308 309 309 312 313 312 313 311 312 314 314 314 315
310 311 311 309 311 312 314 313 314 315 312 313 313 313 313 313 312 311 311 311 308 308 308 308 312 313 312 312 310 309 308 307 306 304 305 303 303 303 304 307 307 308 308 309 309 310 310 309 309 309 311 312 313 315
311 311 311 309 311 312 314 313 314 315 316 315 314 315 314 314 314 314 313 311 309 309 309 307 312 314 313 312 310 309 308 307 306 306 305 305 304 303 304 307 307 308 307 308 308 308 308 308 308 307 307 307 308 309
311 312 311 309 311 312 312 315 315 316 317 316 316 316 316 316 315 314 312 310 310 310 310 311 312 314 314 313 311 309 308 306 306 306 308 306 304 308 307 307 306 308 308 308 307 307 307 307 307 306 306 306 306 306
312 312 311 310 310 312 312 314 315 316 316 316 316 318 318 317 316 313 312 311 312 311 310 308 311 311 315 314 313 312 309 305 309 309 308 309 308 307 307 307 305 308 307 307 306 306 306 305 305 305 305 305 305 305
312 312 311 311 310 311 311 312 313 315 316 316 316 317 316 316 314 313 314 312 312 311 311 311 311 310 315 315 313 313 311 307 306 309 307 304 301 307 307 307 305 306 307 307 305 305 304 304 303 304 304 304 305 305
312 312 311 313 310 310 311 314 313 314 314 315 315 316 317 318 316 314 310 310 311 313 313 313 315 314 316 315 314 313 315 310 310 307 305 300 303 307 306 306 307 304 306 307 306 305 304 304 303 303 303 303 303 305
313 312 312 311 311 314 314 313 313 314 314 315 319 318 319 315 308 314 311 309 308 310 311 311 309 316 317 315 313 311 311 309 305 304 306 305 308 305 306 306 306 305 304 306 307 306 305 304 303 302 301 301 301 302
313 312 312 314 315 314 312 313 315 315 316 317 319 311 312 312 314 312 308 307 312 311 310 309 310 314 315 313 308 310 306 305 305 298 301 303 308 306 306 307 306 305 304 305 307 308 307 306 304 304 303 301 301 301
313 311 310 315 316 313 312 314 316 317 317 318 319 310 312 315 314 313 312 312 311 310 310 313 310 309 305 307 304 305 307 304 301 302 302 308 309 308 306 306 306 305 304 304 305 307 306 306 304 304 304 303 301 300
313 311 313 317 314 311 312 315 316 317 318 319 320 317 314 312 312 313 313 312 312 310 310 309 307 307 307 305 307 308 306 301 304 302 306 306 307 308 307 307 306 304 304 304 304 305 305 304 303 303 302 301 301 300
312 313 312 311 311 311 313 316 316 319 320 319 317 317 316 315 314 314 313 313 312 310 306 306 308 309 304 306 307 304 305 303 304 304 306 308 306 303 303 304 305 303 304 304 304 303 303 302 301 300 300 301 300 300
312 312 312 312 311 312 315 317 318 320 321 319 317 317 317 316 316 315 315 313 312 311 309 308 307 307 307 308 305 303 305 305 305 304 305 304 303 302 303 303 304 304 304 303 303 301 301 302 300 300 300 300 299 299
312 313 313 313 313 313 318 321 322 320 319 320 318 317 316 316 317 317 316 313 312 311 310 308 307 306 305 305 305 306 306 305 304 304 303 304 303 303 302 303 303 304 303 302 301 301 301 301 300 300 300 299 300 299
313 314 315 315 317 316 320 323 322 320 319 320 318 318 317 317 318 318 317 315 312 311 310 308 308 308 308 309 308 307 306 305 304 303 303 304 303 302 302 302 302 303 302 301 301 300 300 300 300 300 299 299 300 300
315 317 317 315 316 319 321 322 320 319 320 320 319 318 318 318 319 317 314 312 311 310 311 311 312 310 309 309 308 307 307 306 305 306 304 302 301 301 301 301 302 302 301 301 301 301 300 299 299 299 299 299 300 300
317 316 315 317 323 324 324 323 321 320 319 318 319 319 318 318 317 317 315 313 311 311 312 312 311 311 310 310 309 308 308 307 306 304 301 301 300 300 300 301 301 301 301 301 301 300 300 299 299 299 299 300 299 299
318 318 319 323 324 324 322 319 318 318 318 319 319 317 317 316 316 315 315 314 313 313 311 311 311 311 310 309 310 308 309 308 306 301 301 300 300 300 300 300 300 300 300 300 300 300 299 299 299 300 300 300 299 299
319 320 324 325 324 321 321 319 321 321 319 316 314 316 316 316 315 315 314 314 313 312 311 312 312 311 310 309 310 310 309 308 302 301 300 300 300 300 300 299 299 298 298 299 299 299 299 299 299 299 299 299 298 297
320 320 319 316 317 319 317 317 317 317 317 316 316 316 315 316 314 313 311 312 313 313 313 312 312 312 310 308 308 308 306 303 303 301 300 300 299 299 299 299 298 298 297 298 299 299 299 299 299 299 299 298 297 297
312 321 318 319 320 317 318 318 318 317 316 317 316 317 315 312 316 315 312 313 314 314 313 313 312 311 311 308 307 305 302 303 302 301 301 300 300 299 299 299 298 298 298 297 297 298 298 298 298 298 298 297 297 297
313 319 318 319 319 319 318 318 318 316 318 318 314 317 316 316 315 313 314 314 314 314 313 312 311 310 310 307 305 304 306 305 304 301 301 301 299 300 300 300 298 298 297 297 297 297 297 298 298 297 297 297 297 297
318 321 319 321 321 320 319 317 316 316 315 317 315 315 317 315 313 314 313 314 314 314 313 312 311 308 305 306 307 304 303 302 302 301 300 300 300 300 299 298 298 297 297 297 296 296 296 297 297 297 297 297 297 297
319 323 323 322 321 320 320 319 318 318 319 317 315 313 314 315 311 310 311 312 312 311 310 308 305 304 305 302 301 301 301 300 300 300 300 300 299 298 298 298 297 298 297 297 297 297 296 296 297 297 297 296 296 296
318 318 321 321 320 319 322 321 320 319 319 319 317 315 315 310 308 309 308 308 308 306 305 304 302 302 301 300 300 299 299 299 298 296 297 297 297 297 297 298 297 297 297 297 296 296 296 296 296 296 296 296 296 295
319 320 321 321 320 319 320 321 320 319 317 316 315 315 314 310 308 307 306 306 305 304 303 302 301 300 300 299 299 298 297 296 295 294 295 295 296 297 297 297 297 297 297 296 296 296 296 296 296 296 296 295 295 295
321 322 321 318 318 319 319 318 316 316 316 315 315 315 314 313 311 306 305 305 304 304 302 302 302 301 300 299 298 297 296 294 294 293 293 293 294 295 295 295 295 295 295 295 295 295 295 295 295 295 295 295 295 294
322 321 320 319 317 317 317 317 317 317 317 317 316 315 315 315 312 308 306 304 303 303 303 302 301 300 299 298 297 296 295 294 294 293 292 293 294 294 294 294 294 295 295 295 295 295 295 295 295 295 295 294 294 294

GFSWCAN_850_thetae_057.txt.gz
Theta_e
309 308 309 310 308 310 311 311 311 311 312 311 311 310 308 308 308 308 308 308 308 308 309 308 308 307 307 307 308 307 308 306 306 308 309 309 311 310 311 310 309 309 310 311 310 313 315 308 310 318 315 313 313 314
309 308 310 310 308 311 311 311 311 312 312 312 311 309 309 308 308 308 308 307 308 308 309 309 309 306 306 307 307 307 306 306 306 306 307 307 309 308 312 314 308 314 312 314 314 314 309 309 310 311 313 313 312 314
309 309 310 310 309 311 312 312 312 312 313 313 311 310 309 308 308 308 308 308 308 307 309 309 310 308 306 307 307 308 308 306 306 305 304 306 309 305 309 310 309 307 307 309 308 310 310 311 312 313 314 313 312 314
308 309 311 310 309 311 312 312 312 312 313 314 313 309 309 308 308 308 308 308 308 308 310 310 310 310 308 307 306 306 306 305 304 303 304 305 307 304 307 305 307 308 307 307 309 310 309 309 312 313 315 314 314 314
308 310 311 310 309 311 313 312 314 312 313 313 313 312 312 311 311 310 309 308 308 308 311 312 312 311 311 310 308 307 307 307 305 306 305 305 305 304 306 307 307 307 310 310 311 311 313 309 309 310 313 315 315 314
308 310 311 310 310 311 314 312 315 313 313 313 313 312 312 312 311 312 311 311 310 308 307 312 314 313 311 312 310 308 308 308 306 305 305 305 304 305 308 309 306 308 308 308 309 309 309 309 308 308 309 310 310 311
308 310 311 310 310 311 314 314 314 316 316 314 314 314 313 313 313 312 311 311 310 308 308 312 314 314 312 313 311 310 309 308 307 306 306 306 305 305 306 308 307 307 307 307 308 308 309 308 307 306 307 307 308 308
309 311 311 311 310 311 313 315 315 315 316 316 315 315 314 315 314 313 313 312 310 309 309 312 315 314 313 312 311 310 308 308 306 307 308 307 305 305 308 307 306 307 308 308 307 306 306 306 306 306 306 307 307 308
309 311 311 311 310 311 311 314 315 316 316 316 315 316 316 316 315 314 312 310 309 309 311 311 314 319 313 312 310 309 308 311 307 310 310 309 306 309 309 307 307 307 308 308 306 305 305 305 305 304 304 304 305 306
310 312 311 311 311 310 311 311 313 315 315 316 315 317 317 316 314 313 311 311 311 311 309 309 310 315 315 315 315 311 309 311 311 311 309 310 310 308 307 306 305 307 308 307 306 305 305 304 304 304 304 304 304 304
311 312 312 311 312 310 311 311 313 313 314 315 316 316 316 315 314 313 313 313 312 312 311 309 310 314 314 317 317 314 314 311 311 309 309 310 310 308 307 306 306 305 307 307 305 305 305 304 303 303 303 303 304 304
311 312 312 312 311 310 313 314 313 313 314 314 314 315 316 317 315 315 314 312 313 318 314 314 315 312 314 315 315 316 317 313 314 309 309 312 309 307 306 306 306 304 305 307 307 305 304 304 303 302 302 303 303 303
311 312 311 312 313 314 313 312 313 314 314 315 318 318 318 315 314 316 316 316 314 313 312 311 312 315 314 314 316 316 314 314 308 310 311 311 310 306 305 306 306 304 305 305 307 307 306 305 304 304 303 301 302 302
311 312 312 311 314 315 314 312 313 314 315 316 319 316 317 317 317 317 316 315 313 311 311 309 311 317 315 317 313 314 310 309 310 311 312 310 310 307 307 306 306 305 304 304 305 306 306 305 305 304 303 303 301 302
311 312 311 310 313 316 314 311 314 314 316 317 319 319 317 316 314 313 312 312 312 311 309 313 312 310 310 311 310 310 310 311 310 311 311 310 306 307 307 307 307 306 304 304 304 305 306 305 303 303 301 300 301 300
311 312 312 316 316 313 311 312 314 315 317 317 318 320 317 314 316 314 313 313 312 311 309 308 312 312 312 310 310 311 311 311 310 310 308 306 307 308 306 305 304 304 304 304 304 303 305 304 303 300 301 300 299 300
311 311 311 312 312 311 311 314 315 317 319 319 320 318 317 316 316 315 315 314 313 311 312 310 312 311 308 311 311 309 311 309 306 306 304 303 303 303 302 303 304 303 304 304 303 301 302 302 300 300 300 300 299 299
311 311 312 312 312 311 313 316 316 319 322 322 319 319 317 316 316 315 315 314 312 310 309 311 308 311 311 310 310 309 307 305 304 304 304 303 303 303 302 303 303 303 304 303 302 301 301 301 300 300 299 299 300 299
311 312 313 313 314 314 316 319 319 321 320 319 319 319 318 316 315 316 316 316 313 311 309 309 311 311 310 307 307 306 306 304 305 304 303 304 303 302 302 302 302 303 303 302 301 301 301 300 300 299 299 300 300 300
312 313 314 315 317 315 318 322 322 321 320 319 319 318 317 316 316 318 315 315 312 310 311 311 311 309 308 308 306 306 306 304 304 305 306 304 302 301 301 301 302 303 302 300 301 301 300 300 299 299 299 300 300 299
314 317 316 315 314 316 319 321 322 320 319 319 318 317 318 318 317 316 315 312 312 311 312 311 309 308 308 309 309 307 307 307 305 306 303 302 301 301 301 301 301 301 300 301 301 301 300 299 299 299 299 300 299 299
317 318 317 316 321 323 324 323 322 321 319 318 319 318 320 321 318 317 314 314 313 313 312 311 311 310 309 310 310 309 308 307 306 303 301 300 300 301 300 301 301 301 301 301 300 300 300 299 299 299 300 299 299 299
317 319 318 321 323 324 322 319 319 317 321 321 318 319 319 318 316 315 316 314 314 312 312 311 311 311 310 309 310 308 307 308 306 301 300 300 300 300 300 300 299 299 299 299 300 300 299 299 299 299 299 299 299 299
317 320 322 324 324 323 321 320 319 320 319 319 319 319 319 317 315 316 318 315 313 312 310 310 312 311 310 308 308 309 308 307 303 301 301 300 299 299 299 299 298 298 298 298 299 299 299 299 299 299 299 299 298 298
318 319 319 316 318 319 319 320 320 320 321 319 319 319 319 316 318 318 317 315 313 314 313 312 312 312 311 309 307 307 308 305 303 302 300 300 300 299 299 298 299 298 298 299 299 299 299 299 299 299 299 298 298 298
309 319 318 319 321 321 321 322 321 321 320 320 319 318 317 317 319 318 316 314 314 313 312 312 312 311 311 309 308 306 304 304 304 304 301 300 300 299 299 300 300 298 297 297 297 298 298 298 298 298 298 298 297 298
314 320 319 319 318 318 320 319 319 319 320 321 319 319 320 318 317 316 314 314 314 314 313 313 311 308 305 305 306 306 306 306 305 303 300 300 299 299 299 299 297 297 297 298 297 296 297 297 298 298 298 297 297 297
318 319 321 320 319 319 322 320 320 321 319 318 318 319 319 318 317 313 310 312 313 312 309 307 306 305 304 302 302 301 301 301 301 300 299 299 300 299 299 298 297 297 297 296 296 296 297 297 297 297 297 297 297 297
319 321 321 323 322 321 322 322 322 319 318 318 319 318 317 315 311 309 309 308 306 306 305 304 302 301 300 300 300 299 299 299 300 300 299 299 298 297 298 298 298 297 297 297 296 296 296 297 297 297 297 296 297 296
318 317 321 321 322 323 322 320 320 319 318 318 317 315 313 309 308 307 307 306 305 304 303 302 301 300 300 299 298 297 296 295 294 296 296 297 297 297 297 297 297 297 297 296 297 296 296 296 296 296 296 296 296 296
318 319 321 322 322 319 319 320 320 319 319 317 316 315 313 308 307 306 306 305 304 303 302 301 301 300 299 298 297 296 294 294 294 294 295 296 296 296 296 297 297 297 296 296 296 296 296 296 296 296 296 296 295 296
319 320 322 322 320 319 319 318 318 317 317 316 316 315 313 312 311 307 305 304 303 302 301 301 300 299 298 297 296 294 294 293 293 293 293 294 294 295 294 294 295 295 295 296 296 296 296 296 296 296 296 295 295 295
321 320 319 319 319 318 318 317 318 318 317 318 318 316 315 315 314 308 306 304 303 302 302 301 300 300 298 297 296 294 293 293 293 293 293 294 294 293 293 294 295 295 295 295 295 295 295 295 295 295 295 294 294 294

GFSWCAN_850_thetae_060.txt.gz
Theta_e
310 309 310 310 309 311 311 312 312 312 313 312 311 310 308 308 308 308 308 308 310 312 311 310 310 309 309 309 310 309 311 309 308 310 311 312 312 311 312 311 311 311 313 313 312 313 314 313 314 315 314 315 315 317
309 309 310 310 309 311 312 312 312 313 313 312 311 310 309 309 308 308 308 308 308 309 312 310 310 309 309 309 308 310 310 309 306 307 309 309 311 310 311 315 311 312 311 313 312 314 312 311 311 311 311 314 315 314
310 309 310 310 309 311 313 312 313 313 314 313 310 310 309 309 309 309 309 308 309 311 313 312 313 311 309 308 308 310 308 308 307 304 305 308 309 307 312 311 308 305 306 312 309 312 310 311 311 313 314 315 315 315
309 309 310 310 309 311 313 312 314 313 313 313 312 310 309 309 308 308 310 309 310 310 315 314 311 313 310 309 308 308 309 308 307 306 307 308 309 306 308 306 307 304 304 306 307 308 309 310 310 312 314 316 316 316
309 309 310 311 309 311 314 313 315 313 313 313 312 312 312 312 311 311 310 309 310 311 315 315 313 312 311 311 310 309 310 310 310 308 308 308 306 306 308 309 307 307 309 309 310 308 309 309 308 308 310 311 311 312
309 309 311 311 310 311 314 314 315 316 314 314 313 312 313 312 312 312 315 311 311 309 312 318 315 313 313 312 312 311 309 310 310 310 310 308 307 307 308 310 305 308 307 305 307 309 306 307 306 307 308 310 309 309
309 310 311 311 309 311 314 315 315 315 316 316 314 314 314 314 313 315 315 313 312 309 311 316 317 316 314 313 312 311 311 311 311 310 310 309 309 308 309 309 307 308 307 306 306 306 306 305 305 306 306 308 308 308
308 310 311 311 310 310 311 314 315 316 316 315 315 315 314 314 314 314 313 313 311 311 311 316 318 318 315 316 315 311 313 313 311 311 310 310 310 308 311 308 309 309 307 306 306 305 305 304 305 305 306 307 307 306
309 310 312 311 311 310 311 311 313 315 315 315 315 314 314 314 315 314 313 311 310 310 315 315 320 319 316 316 314 311 312 315 312 313 310 310 308 310 312 307 308 309 308 308 306 305 304 303 304 305 304 306 306 305
309 311 312 311 311 312 310 311 311 313 313 314 315 314 318 316 315 313 312 311 310 311 311 313 315 318 317 317 317 314 311 313 313 313 311 312 311 309 308 308 307 308 309 308 307 306 305 304 303 304 304 304 304 304
310 311 312 311 312 312 310 310 313 313 313 315 317 319 317 315 314 313 315 316 316 316 314 313 314 317 317 318 319 317 315 315 315 313 312 312 313 309 307 308 307 308 308 308 308 307 306 305 305 303 304 304 303 303
310 311 312 311 311 312 314 312 312 313 313 315 315 314 315 316 318 319 319 318 319 318 317 316 316 315 317 318 318 318 318 317 315 312 312 314 311 309 308 308 307 307 307 308 308 307 306 306 306 305 304 303 304 304
310 311 312 312 312 314 314 313 312 313 314 314 317 320 321 321 320 318 318 318 318 315 314 314 315 317 315 318 319 319 315 316 312 313 314 311 310 309 308 308 307 307 306 306 307 307 307 306 306 305 305 304 303 304
310 311 312 312 311 314 315 315 312 313 314 318 322 320 321 319 318 319 318 317 316 315 314 313 315 319 319 319 316 316 315 313 312 314 313 311 310 310 309 308 308 307 306 306 305 307 307 306 305 304 303 304 304 304
310 311 312 310 310 312 315 314 311 313 315 320 322 321 320 318 318 318 317 316 316 315 313 314 317 317 315 315 313 313 312 312 313 313 311 310 310 310 309 309 309 308 306 306 305 305 306 305 304 303 303 302 303 304
310 311 313 312 313 313 311 311 313 314 317 320 321 322 319 319 318 318 318 318 317 316 314 313 315 314 314 313 312 312 311 313 312 310 308 308 310 309 307 306 306 308 306 306 305 304 305 305 303 303 302 302 302 302
310 310 310 311 311 312 311 312 314 317 321 322 321 320 320 320 320 319 318 317 316 315 317 314 314 314 312 312 313 311 311 310 308 307 307 308 308 307 306 306 307 307 307 306 305 303 303 304 303 302 302 302 302 302
310 311 311 312 312 312 312 314 319 322 323 321 321 319 321 320 320 319 318 317 316 317 315 316 313 314 314 314 313 309 308 307 306 307 307 307 307 307 306 305 306 306 307 306 304 304 303 303 303 302 302 302 302 302
311 312 313 313 314 315 318 320 318 322 322 320 320 320 321 320 318 316 317 317 315 314 314 314 314 315 312 309 308 308 308 307 307 306 306 307 307 306 305 305 304 306 307 305 304 303 303 302 302 301 302 302 301 301
312 313 315 315 316 317 320 323 322 325 323 322 321 322 321 320 321 320 317 315 316 315 314 315 314 310 308 310 309 309 307 306 307 307 306 304 303 303 304 303 303 305 305 303 303 302 302 302 301 301 301 301 301 300
314 317 316 315 314 314 319 323 324 323 321 321 322 322 323 323 321 319 317 316 315 315 315 314 313 311 310 310 311 311 308 308 308 307 304 304 302 302 302 303 303 303 303 303 303 303 302 301 301 301 301 301 301 301
317 317 318 315 320 324 325 326 325 325 323 323 323 323 323 322 321 319 318 316 315 315 314 314 313 313 313 313 312 312 311 309 309 305 302 302 303 302 302 302 302 302 302 302 302 302 302 301 301 301 301 301 300 300
317 319 319 320 325 325 323 321 322 322 323 324 322 321 322 322 320 319 317 316 315 315 315 313 312 314 312 312 312 310 308 309 308 304 303 302 302 302 302 301 301 301 301 301 301 301 301 300 300 301 301 300 300 300
317 322 324 325 326 325 324 325 323 324 324 323 322 322 322 320 320 318 317 316 315 315 314 314 313 313 311 310 311 311 310 309 307 303 303 302 302 302 301 301 301 301 300 301 301 301 301 301 300 301 300 300 299 299
319 320 320 318 322 323 323 322 323 323 324 323 322 322 322 320 320 318 317 316 315 314 313 313 313 312 311 310 309 309 307 306 305 305 305 303 302 302 301 301 301 300 300 300 300 300 301 300 300 300 300 299 299 299
310 319 319 320 323 324 323 323 324 324 324 323 322 322 321 321 319 318 316 315 316 315 315 314 314 312 309 308 307 306 305 305 305 306 305 303 302 302 301 302 301 300 300 299 299 299 300 300 299 299 299 299 297 299
315 321 322 322 322 322 324 324 324 323 324 323 323 322 321 318 318 318 316 315 316 315 312 310 308 307 306 304 304 303 303 303 302 302 301 301 301 301 301 301 300 300 299 299 299 298 299 299 299 299 299 299 298 298
321 321 323 323 322 324 325 325 325 325 323 323 322 321 318 317 318 316 314 314 309 306 305 304 303 303 302 301 301 301 301 301 301 300 300 300 300 300 300 300 298 297 298 298 298 298 298 298 298 299 299 298 299 298
322 323 322 323 324 325 326 326 325 324 323 322 322 321 320 318 315 314 311 309 306 305 304 303 302 302 301 300 298 298 298 298 300 301 301 301 300 300 300 299 298 298 298 298 296 297 298 298 298 298 298 298 297 297
321 321 324 324 324 325 325 325 325 324 322 322 320 319 317 314 310 309 308 307 306 305 304 303 302 302 300 300 298 297 297 297 298 298 299 299 298 298 299 299 298 298 298 298 298 297 297 297 297 297 297 297 297 297
321 322 323 324 325 325 324 323 322 322 321 321 320 320 317 310 307 306 308 307 305 304 303 303 302 301 300 299 298 297 296 296 297 297 298 298 298 298 298 298 298 298 297 297 298 297 297 297 297 297 297 297 297 297
323 323 324 326 325 323 322 323 323 323 322 321 321 320 317 314 312 307 305 305 305 304 303 303 302 300 298 297 296 295 295 296 296 297 297 297 297 297 297 297 297 297 297 297 297 297 297 297 297 297 297 297 296 296
325 324 324 324 324 324 323 322 322 322 321 321 321 320 319 318 317 310 305 305 306 304 303 302 301 299 298 297 296 295 294 293 293 293 294 294 294 296 296 296 297 297 297 297 297 297 297 296 296 296 296 295 295 295

GFSWCAN_850_thetae_063.txt.gz
Theta_e
310 309 309 310 309 310 312 313 313 314 312 311 312 309 309 308 308 314 311 310 314 316 314 314 313 313 312 311 314 312 312 312 311 312 312 313 314 314 312 313 312 314 315 315 315 314 314 316 316 316 319 316 317 319
311 309 310 310 309 310 312 312 313 314 314 311 311 309 309 309 309 312 315 309 309 313 315 314 314 312 311 311 312 312 312 311 308 309 310 310 312 312 312 315 312 312 313 315 314 313 314 314 313 314 314 315 314 318
311 309 310 310 310 310 313 313 314 313 313 313 310 310 309 309 309 309 315 313 313 316 316 315 315 314 312 311 311 313 311 310 309 307 307 308 310 308 314 312 310 311 307 312 312 312 311 308 311 311 312 315 314 317
311 309 310 310 310 311 313 313 315 313 313 313 313 310 309 309 309 309 315 314 314 316 316 318 315 315 313 312 311 311 311 311 310 309 310 308 310 307 309 306 307 305 303 307 310 308 306 307 309 308 310 313 315 316
311 309 310 311 310 311 313 314 316 315 313 313 313 313 313 312 312 312 314 315 314 315 318 317 317 316 314 313 312 312 312 313 312 311 310 310 307 307 308 309 308 306 307 308 309 306 306 308 306 306 308 310 311 312
311 309 309 311 311 310 313 315 315 315 316 314 314 314 313 313 313 314 317 315 314 314 315 320 319 317 316 315 314 312 313 313 312 311 312 310 307 308 310 311 308 307 307 306 306 306 305 304 305 305 306 309 309 310
311 308 310 311 311 310 311 314 315 315 316 316 316 315 314 314 314 315 317 314 313 313 313 318 319 319 317 317 315 313 313 314 312 311 312 311 311 309 310 311 309 309 308 306 306 305 304 303 304 303 306 306 308 308
310 308 310 311 311 310 310 311 314 315 316 316 315 315 315 315 315 316 315 315 313 313 314 319 318 320 319 319 318 314 315 314 313 313 312 312 310 310 312 310 311 310 309 307 306 305 304 303 304 303 303 304 306 306
309 308 310 311 311 311 311 311 311 313 313 314 315 314 314 314 316 316 316 313 312 313 318 318 320 318 319 319 318 316 316 317 314 316 312 312 313 313 312 308 309 310 310 309 307 307 306 304 304 305 303 303 304 305
308 309 310 311 311 311 312 310 311 312 313 313 315 317 319 318 317 315 313 314 314 314 316 319 315 318 318 319 319 317 316 317 316 315 312 316 315 310 309 309 308 309 310 310 308 307 307 306 305 304 305 304 302 304
308 310 310 311 311 311 310 310 312 313 313 316 320 321 319 317 315 316 318 320 320 320 318 317 318 320 317 320 320 318 319 318 319 315 314 314 315 311 309 308 309 308 308 309 309 308 308 307 306 306 305 304 306 305
309 310 310 311 311 311 313 312 312 312 319 319 318 318 318 318 319 322 323 321 322 321 320 318 316 317 318 320 319 319 320 318 319 314 314 316 314 311 310 309 309 308 308 308 309 308 308 307 306 306 306 305 306 306
309 310 311 311 312 313 314 315 314 312 313 318 320 321 322 323 323 321 320 320 319 318 316 316 317 317 320 320 320 320 320 317 314 314 317 315 312 311 310 309 309 309 308 308 307 308 308 307 306 305 305 305 305 305
309 310 311 312 312 311 314 316 316 312 314 321 323 320 323 322 321 320 321 321 318 317 316 315 315 318 321 320 319 317 317 314 314 317 315 314 312 311 310 310 310 310 309 308 307 308 307 307 305 305 305 305 306 305
310 310 312 312 311 310 312 314 314 312 319 321 322 325 321 319 319 319 320 320 320 319 318 318 317 318 319 318 315 314 314 315 315 315 312 312 311 311 311 309 308 308 308 308 307 306 307 306 305 305 304 305 304 305
310 310 314 311 311 311 312 311 311 316 320 321 321 321 320 320 320 320 321 320 318 316 318 318 317 318 317 316 315 316 315 316 312 310 309 311 310 309 308 307 307 308 308 308 307 305 305 305 305 305 304 304 304 304
310 317 311 310 311 311 311 312 319 320 322 322 321 320 320 321 321 321 320 321 317 319 321 318 319 318 315 316 317 314 313 312 309 309 309 310 309 308 307 307 307 307 308 308 307 305 304 305 305 304 304 304 304 304
312 312 311 312 312 312 313 314 320 322 323 322 322 321 321 322 321 321 321 321 319 318 317 317 315 318 318 316 315 313 311 310 308 308 308 308 308 308 307 306 306 306 306 308 307 306 305 304 305 304 304 304 304 303
310 311 312 313 313 315 320 322 322 322 322 321 321 321 322 323 324 323 322 320 318 317 316 315 316 318 316 313 313 311 310 310 310 309 308 310 307 306 306 306 305 306 307 307 307 305 305 304 303 303 303 303 303 302
312 313 314 315 315 320 320 322 325 324 324 322 322 322 323 324 323 322 318 318 317 317 316 316 315 314 314 313 311 312 311 308 309 310 309 307 306 305 306 305 304 305 306 306 305 303 304 304 304 303 302 302 302 302
315 317 317 316 316 319 320 322 324 323 322 322 322 322 324 323 321 319 319 317 316 315 315 314 314 313 313 312 313 312 312 310 310 310 307 306 305 305 304 304 304 304 305 305 306 305 303 304 303 303 303 302 302 302
321 317 321 317 321 324 325 325 324 325 325 323 323 322 321 321 320 319 318 316 315 315 314 315 315 315 315 314 313 313 314 312 311 309 306 305 305 305 304 303 303 303 303 303 303 304 304 304 302 302 303 302 302 301
315 319 322 323 325 326 323 324 324 324 324 323 322 321 321 320 319 319 318 317 317 316 316 315 315 315 314 314 313 313 312 312 310 309 306 305 305 304 304 304 303 303 302 303 303 302 303 301 301 302 303 302 302 302
316 324 324 324 326 325 325 326 324 324 324 323 323 323 322 320 320 318 317 316 315 315 314 314 314 312 311 312 312 311 311 311 310 308 306 306 305 305 304 303 303 302 302 302 302 303 303 303 301 302 302 301 301 301
322 319 322 319 324 325 325 324 324 324 324 324 323 322 320 320 320 318 317 315 315 314 314 313 312 312 311 309 308 309 308 307 306 307 308 307 305 304 304 303 303 301 301 302 301 302 303 301 301 302 301 301 300 301
318 319 320 321 322 324 324 324 324 324 324 324 323 322 321 320 319 318 317 315 315 315 314 312 311 309 309 307 306 306 306 306 305 306 306 305 304 304 304 304 304 302 301 300 300 300 301 301 301 301 301 300 298 301
319 321 321 322 323 323 324 324 325 324 324 323 323 322 320 318 319 317 316 315 314 310 308 307 306 305 305 304 304 304 304 303 303 302 302 303 303 303 302 302 301 300 300 300 300 300 301 301 301 301 301 300 300 300
321 322 323 323 323 324 325 325 325 325 323 323 323 323 320 319 320 317 316 314 310 307 306 305 304 303 303 302 302 301 302 303 303 303 302 302 302 302 301 299 297 298 298 298 299 300 300 300 300 300 300 300 300 299
322 322 323 324 325 325 326 325 324 323 323 323 323 323 322 321 318 316 314 311 309 307 306 306 305 304 303 302 300 300 300 301 303 303 303 303 302 301 300 300 300 300 299 298 296 298 299 300 300 299 299 299 299 299
323 323 325 324 324 324 325 323 324 326 325 324 324 322 320 318 316 314 313 311 310 309 306 305 304 303 303 302 301 300 300 300 301 302 302 301 300 300 300 300 299 299 299 299 298 298 298 298 298 299 299 299 299 299
323 323 324 324 323 324 324 325 325 325 325 324 323 323 322 316 311 312 312 312 310 308 306 305 304 303 302 301 301 301 300 299 300 300 300 300 300 300 300 300 300 299 299 299 299 299 298 299 299 299 299 298 298 298
323 323 323 323 324 327 325 325 325 325 325 324 324 323 320 316 313 311 311 310 309 309 306 305 304 302 300 299 298 298 299 300 300 300 299 299 299 299 299 299 299 299 299 299 299 299 299 299 298 299 298 297 297 297
323 323 323 323 322 325 325 325 325 325 324 324 324 324 322 321 320 315 311 310 310 309 307 305 303 301 300 299 298 298 298 297 296 296 297 297 297 298 299 299 299 299 299 299 299 298 298 298 298 298 297 297 297 297

GFSWCAN_850_thetae_069.txt.gz
Theta_e
324 320 317 310 310 310 310 313 314 314 314 312 311 309 310 311 316 317 318 317 315 319 317 316 316 314 314 314 316 314 314 312 312 313 312 313 312 310 311 312 311 314 316 314 314 314 314 313 315 316 314 313 312 313
324 320 318 311 309 310 310 313 315 314 314 314 312 310 309 310 314 318 320 318 317 318 318 318 317 316 314 314 314 313 312 312 310 311 310 311 310 309 309 310 309 312 309 310 313 315 310 309 311 311 310 309 310 311
324 321 319 311 309 310 310 313 314 316 314 314 314 311 310 309 309 310 317 318 317 318 317 318 319 317 316 314 313 314 313 312 311 310 309 309 308 308 309 309 307 309 306 308 307 309 306 308 306 307 306 306 307 309
324 321 319 312 309 310 310 312 315 315 316 315 314 314 312 310 310 311 310 317 318 317 318 319 318 317 317 315 314 314 313 312 312 311 311 311 310 309 308 307 306 307 305 306 307 306 305 306 305 305 305 305 306 307
323 321 319 311 309 310 310 311 315 316 315 316 316 315 314 314 314 315 317 317 317 316 318 317 317 318 318 316 315 314 314 313 312 311 312 312 310 309 309 308 307 306 306 306 306 305 305 304 304 305 304 304 305 307
323 321 319 311 309 310 311 310 312 315 316 316 316 316 316 315 315 316 320 318 317 316 316 318 319 318 318 317 316 317 315 315 314 314 314 311 311 310 309 308 308 306 306 305 306 304 304 304 305 304 304 303 304 305
322 321 319 311 309 310 311 310 311 312 314 315 315 315 315 315 315 316 319 319 317 315 315 318 320 320 317 317 317 318 318 316 316 315 314 313 311 310 311 309 310 310 309 307 306 306 305 304 304 304 304 304 303 304
322 320 317 309 309 311 311 311 311 311 311 312 313 313 314 314 315 316 318 317 316 315 315 319 321 321 318 318 319 317 317 316 316 315 315 314 313 311 309 308 311 311 311 309 308 308 306 305 306 305 304 305 303 303
320 319 313 308 309 311 311 311 311 311 311 311 313 313 316 316 317 319 319 318 316 315 317 320 322 321 321 321 318 318 318 318 317 317 316 315 308 305 306 311 311 311 310 310 309 307 307 306 307 307 306 305 305 303
318 316 309 309 310 311 310 311 312 311 311 313 314 318 320 320 320 319 316 314 313 313 315 317 318 319 320 320 320 319 318 318 317 318 316 314 311 310 311 312 311 310 311 311 309 309 308 308 308 307 306 305 305 304
317 312 308 309 310 310 311 310 311 312 314 320 322 321 322 321 319 317 318 319 319 320 319 320 320 318 318 322 323 316 320 319 319 318 317 318 318 314 313 311 311 311 310 311 311 310 310 308 308 307 307 306 305 305
313 308 308 309 310 310 311 313 312 312 318 321 320 318 317 320 320 321 323 323 323 324 315 318 318 321 319 321 318 319 320 318 320 315 317 317 316 313 312 311 310 311 310 310 311 309 309 308 307 306 307 307 306 305
309 309 309 310 310 311 311 313 314 316 314 313 320 322 322 322 322 325 322 325 325 321 319 319 319 318 319 319 317 320 320 320 317 318 317 312 311 312 312 312 312 312 311 310 309 310 309 308 307 306 307 307 306 306
309 309 309 310 312 312 311 312 315 316 313 321 324 316 325 325 325 324 324 325 322 318 320 322 321 318 318 317 319 320 319 316 315 315 315 311 310 311 312 312 311 311 311 310 310 309 309 307 306 306 306 306 306 307
309 309 310 312 311 311 311 311 313 314 312 323 324 318 324 323 322 321 321 322 323 322 321 320 321 318 316 315 319 316 317 315 313 312 313 312 311 311 309 309 309 310 310 310 310 308 308 307 307 306 306 306 306 306
309 310 313 312 311 310 310 311 311 311 321 322 322 322 322 323 321 318 318 322 321 321 321 319 320 319 319 319 318 316 315 313 314 313 311 311 311 310 310 309 309 308 310 309 308 307 308 307 307 306 307 306 306 306
310 318 318 315 311 311 311 311 317 320 322 322 323 323 323 324 323 319 322 321 321 319 322 318 320 318 317 318 316 316 315 314 312 311 311 312 310 309 309 308 307 307 309 310 309 307 307 307 306 305 306 306 306 306
315 315 313 311 310 312 312 314 322 322 323 323 323 323 323 325 324 321 321 319 319 319 317 316 317 317 317 315 316 314 312 311 312 312 312 312 311 309 309 308 306 307 308 309 308 307 306 306 307 305 305 305 305 306
309 310 310 312 313 315 323 323 319 322 323 324 323 324 325 324 322 320 319 317 316 317 315 317 316 316 317 314 313 312 312 312 312 312 312 312 312 309 308 308 307 307 308 308 306 305 306 307 306 304 304 304 304 305
311 313 313 315 314 314 323 322 324 325 325 325 325 324 323 323 321 319 318 317 316 315 316 316 316 316 315 315 315 314 313 313 313 312 310 309 309 309 307 307 306 307 308 306 306 305 305 306 305 304 303 304 304 303
317 318 318 317 316 315 321 324 325 325 324 323 322 322 323 323 321 319 317 317 316 315 316 315 314 315 312 311 311 311 312 314 311 312 310 309 307 307 307 306 306 305 306 307 305 304 304 305 305 305 304 304 303 303
323 323 320 321 319 324 323 321 321 323 320 324 320 321 324 321 320 319 317 317 315 316 317 316 314 315 315 314 310 313 313 314 311 310 309 309 309 309 306 305 305 305 305 305 306 305 306 305 302 303 303 304 303 301
316 317 319 325 325 324 324 324 326 327 327 324 322 324 323 323 321 317 321 318 317 316 316 315 315 316 316 314 313 313 313 314 311 308 308 309 308 307 306 305 305 304 304 304 303 303 302 301 302 304 303 303 303 303
321 321 325 324 323 323 324 326 325 326 321 318 321 325 324 324 320 321 319 317 316 316 317 314 313 314 316 315 314 313 308 309 312 310 309 309 308 307 306 305 304 304 303 303 303 302 302 302 302 303 303 302 303 303
322 322 323 322 323 325 325 325 322 320 325 325 324 326 325 321 322 320 319 315 314 314 313 312 310 310 310 308 309 307 306 307 307 307 305 307 307 307 306 305 304 303 302 302 302 302 301 300 301 301 301 301 302 303
315 321 322 322 320 323 325 327 326 321 322 327 322 320 322 324 321 320 320 316 314 312 310 309 308 308 307 306 306 306 306 305 305 305 305 304 304 303 303 303 302 302 301 301 302 302 302 301 300 300 302 302 301 301
316 320 321 320 320 323 326 325 325 326 327 326 323 322 325 322 322 321 318 316 312 309 308 307 306 306 305 305 305 306 305 305 304 304 304 303 302 301 300 300 300 300 301 301 302 302 302 301 301 301 301 302 302 301
320 321 324 323 323 321 325 326 327 322 323 324 323 323 324 324 323 321 317 312 309 308 307 306 306 305 304 303 303 303 305 305 305 304 304 303 302 301 301 300 299 299 298 301 302 301 301 301 301 301 301 301 301 301
320 319 320 323 325 326 324 325 323 319 321 323 324 323 323 322 320 318 314 312 310 309 308 308 307 306 305 303 303 303 303 304 305 306 305 303 302 302 301 301 301 300 300 299 296 297 299 299 300 301 301 301 300 300
317 318 321 323 326 326 323 322 322 322 321 323 323 321 320 320 319 318 315 313 313 311 308 307 306 306 305 305 304 303 303 303 304 304 304 303 303 302 301 301 301 301 301 300 300 299 300 300 301 301 300 300 300 300
318 321 323 324 323 323 322 320 320 321 323 322 322 323 321 319 318 317 316 315 314 310 308 307 306 305 304 304 304 303 303 302 303 303 303 303 303 302 302 302 301 301 301 300 300 300 300 300 301 300 300 299 299 298
321 324 325 327 325 321 320 323 324 325 325 322 319 322 319 318 317 316 316 316 314 312 309 307 306 304 303 302 303 303 303 302 302 302 302 302 302 301 301 301 301 301 301 301 301 300 300 300 300 299 299 299 299 299
323 323 323 322 326 322 320 319 323 324 324 325 323 324 322 322 321 318 316 315 314 313 310 307 306 304 302 302 302 303 302 301 301 301 301 301 301 301 301 301 301 301 301 301 301 300 300 300 300 300 299 299 299 299

GFSWCAN_850_thetae_072.txt.gz
Theta_e
325 325 322 319 313 309 310 311 313 314 314 314 311 310 310 311 315 318 317 317 317 318 318 316 316 314 313 314 309 313 309 309 306 305 304 301 305 309 309 309 309 309 310 310 308 309 312 308 312 313 310 309 309 309
325 325 322 320 315 309 310 311 313 315 315 314 313 311 309 310 311 310 316 318 317 318 318 317 317 317 315 313 314 312 310 310 309 304 303 299 301 303 302 308 306 310 306 303 309 314 308 309 308 307 306 306 306 306
325 325 322 320 317 309 310 310 314 314 315 315 314 314 311 309 309 309 316 317 316 317 316 317 317 317 317 314 314 313 312 311 310 309 307 302 303 306 307 304 307 307 305 305 304 306 306 306 305 304 305 304 304 305
324 325 322 320 316 309 310 310 313 315 315 316 315 315 314 312 311 312 313 314 317 316 316 318 319 318 317 315 314 313 313 312 311 310 309 304 302 307 303 303 306 303 305 303 305 304 305 305 306 304 305 304 304 305
325 324 322 320 315 309 310 310 311 314 315 316 316 316 316 315 315 316 317 317 317 317 315 316 316 317 317 316 314 314 313 312 311 311 311 310 308 306 306 306 307 306 303 303 301 304 305 304 304 304 304 304 304 303
325 324 321 320 314 309 310 311 310 311 314 315 315 315 315 315 316 315 319 318 317 316 315 312 317 319 317 317 315 314 314 313 312 312 313 312 310 307 307 307 306 307 306 305 305 305 304 305 305 304 304 305 304 303
325 323 321 319 313 308 310 311 311 310 311 311 312 313 314 314 314 315 318 319 318 317 315 315 315 319 318 318 316 316 316 316 315 314 313 311 310 309 300 304 307 308 309 308 306 306 306 306 306 306 305 304 305 303
324 321 319 319 310 308 310 311 311 311 310 310 311 313 313 314 315 316 317 317 317 316 314 314 315 320 318 317 317 317 318 317 316 316 314 312 309 308 309 308 307 310 310 310 310 308 308 308 307 307 306 306 305 304
323 319 318 316 308 309 310 310 310 311 311 310 311 313 317 317 318 319 318 318 316 316 316 317 317 318 318 319 317 316 318 316 316 315 315 312 306 307 307 309 310 311 310 309 309 309 308 307 307 307 307 307 305 304
320 318 317 311 308 310 310 310 310 311 311 312 317 319 321 321 320 319 316 315 313 314 314 314 316 317 318 315 318 317 317 317 317 317 315 313 311 311 307 310 310 310 310 310 310 309 309 308 308 308 308 307 306 305
319 317 313 308 309 310 310 310 311 311 312 320 321 320 319 318 318 317 317 316 317 316 316 316 319 318 318 316 314 316 316 316 317 317 316 315 315 313 311 312 311 311 311 311 311 309 309 309 309 307 307 307 306 305
317 313 308 308 309 310 310 310 312 312 313 318 318 317 317 318 319 319 321 321 321 321 319 316 317 318 319 318 318 317 318 317 317 314 311 310 311 312 312 311 311 311 311 310 311 310 309 309 308 307 306 307 307 306
313 308 308 309 310 310 311 311 312 315 315 313 317 320 320 320 319 324 323 319 322 320 320 318 318 319 318 318 317 317 318 318 312 310 314 312 311 309 308 309 310 311 311 310 310 309 309 308 307 306 306 307 306 306
308 308 309 310 311 311 312 311 313 315 314 316 322 314 321 321 324 322 321 320 322 321 319 320 320 317 316 313 316 317 316 313 313 311 312 307 310 310 310 311 311 311 310 310 310 309 308 308 307 306 306 306 306 306
308 309 310 311 311 310 310 311 312 313 313 319 323 315 321 321 321 319 318 318 320 321 320 320 319 317 313 314 315 313 314 312 308 306 309 311 311 311 310 309 310 309 309 309 308 308 308 308 307 307 306 306 306 306
309 310 312 311 313 311 310 310 311 311 313 321 321 320 322 322 322 321 319 318 322 321 320 319 316 314 315 313 314 314 311 308 309 308 312 311 311 311 310 309 308 307 308 308 308 307 307 307 307 306 306 306 306 306
310 317 318 315 312 310 311 311 311 311 319 322 322 323 323 323 323 322 320 319 318 316 315 314 316 316 312 313 313 311 310 308 311 311 311 311 310 310 309 308 306 307 308 308 307 307 307 306 305 306 306 306 305 306
314 316 313 312 310 311 312 313 322 324 323 323 323 324 323 320 322 322 319 317 316 318 315 314 315 312 313 313 311 309 311 311 312 311 311 311 311 310 308 308 308 309 308 306 307 306 306 306 306 305 305 306 305 305
309 309 310 310 311 312 322 322 313 320 322 323 324 324 324 321 320 317 316 317 317 316 315 316 312 312 310 312 312 312 312 312 312 311 311 311 310 310 308 308 307 307 307 307 305 305 306 305 304 304 305 305 304 305
312 314 313 313 314 313 319 322 323 323 324 324 321 321 321 322 319 317 316 315 315 315 314 313 313 314 314 314 314 314 313 313 312 310 308 308 308 309 307 307 306 306 307 306 305 305 305 305 304 304 304 303 303 304
318 321 322 318 317 314 315 321 324 325 325 322 321 321 322 321 320 318 317 316 315 315 315 315 314 314 312 312 310 312 312 312 311 310 310 310 308 307 307 306 307 306 306 305 306 305 305 305 304 304 304 303 303 303
322 322 320 320 318 322 322 320 317 322 322 321 322 320 321 321 320 319 317 316 315 316 316 314 312 313 315 312 309 310 311 311 309 308 308 308 308 306 305 305 305 305 305 304 304 304 303 303 303 303 303 303 302 304
318 321 316 321 323 324 323 324 325 324 320 317 319 322 323 321 320 317 319 318 317 316 314 313 313 315 316 315 311 311 312 313 311 309 308 308 308 306 305 304 304 304 304 303 302 302 302 302 303 303 303 303 303 303
319 320 323 324 324 321 322 325 324 323 320 319 320 320 322 322 318 320 317 318 317 315 314 312 313 316 316 315 314 308 307 310 312 309 310 310 307 305 304 304 303 303 303 302 302 301 301 302 303 302 303 303 303 303
319 322 322 322 323 325 324 323 321 321 324 322 322 321 323 321 321 320 315 316 315 316 316 310 310 309 313 313 306 306 306 308 307 307 306 305 306 306 303 303 302 301 301 301 302 301 301 301 301 301 302 302 302 302
310 321 321 322 321 321 324 325 323 321 322 323 322 320 321 322 321 318 315 314 311 310 309 308 307 307 307 306 306 305 305 305 305 304 304 303 303 304 302 301 301 301 302 301 301 301 300 300 300 301 301 301 302 301
313 320 321 321 319 321 323 321 322 322 324 325 322 321 322 323 321 319 315 312 312 309 307 307 306 305 305 305 305 305 304 304 304 304 303 303 300 300 301 301 301 301 301 301 302 300 300 300 299 301 301 301 301 301
320 320 321 321 322 322 324 325 324 322 321 321 324 322 323 322 320 319 314 311 309 307 306 306 306 305 304 303 304 305 305 304 304 303 302 301 301 301 300 300 299 300 301 301 301 301 301 301 301 301 301 301 300 300
320 320 321 321 321 324 324 324 323 321 320 322 323 323 322 322 320 319 313 311 309 308 307 306 305 305 304 303 303 303 305 304 304 303 302 301 301 301 301 301 300 300 299 297 300 300 300 300 300 300 300 300 299 299
316 314 318 320 325 325 325 322 323 320 322 322 322 323 321 320 318 316 314 311 310 309 309 307 307 305 304 303 303 303 303 304 305 305 303 302 301 301 301 301 300 300 300 300 298 300 300 300 300 300 299 299 299 299
316 317 318 320 324 324 323 323 322 321 320 322 323 322 320 318 317 316 315 313 312 309 307 306 306 306 304 304 304 304 303 303 303 303 303 302 302 301 301 301 301 300 300 300 300 300 300 301 300 300 299 299 298 299
317 318 320 326 324 322 321 323 324 324 324 322 320 321 320 318 317 317 316 315 313 311 308 306 306 304 304 304 304 304 303 302 302 303 302 302 302 302 301 301 301 301 300 301 300 300 300 299 299 299 299 299 299 298
319 321 324 325 325 322 320 320 324 324 323 321 319 320 321 322 321 319 316 316 315 314 309 307 306 305 305 303 302 303 302 301 302 302 302 302 301 301 301 301 301 301 301 300 300 300 300 300 300 300 299 299 298 298

GFSWCAN_850_thetae_075.txt.gz
Theta_e
324 326 325 323 319 315 309 310 313 314 314 313 312 310 309 310 314 314 314 315 316 317 318 316 316 314 313 313 307 311 308 307 304 303 300 299 299 301 304 307 308 305 308 306 309 307 309 308 310 312 308 307 307 307
326 324 325 324 320 318 309 310 312 314 314 314 314 313 310 309 310 310 313 315 315 316 317 317 316 317 316 312 313 311 309 309 307 300 298 296 307 304 299 300 304 305 305 302 307 306 309 308 308 308 307 305 305 304
325 324 325 324 320 318 309 310 310 315 315 315 314 314 313 311 309 309 310 311 314 315 315 315 316 317 316 315 313 312 311 310 309 309 305 299 299 298 300 301 303 304 306 304 303 303 305 305 304 305 305 304 304 304
324 326 324 324 320 317 309 310 310 313 315 315 315 315 315 315 314 314 314 314 316 316 315 316 318 318 317 316 314 313 313 311 310 308 307 301 300 304 296 299 298 302 305 301 300 302 304 305 305 305 304 304 304 303
325 325 324 323 319 317 309 310 310 311 313 315 315 315 315 316 315 315 317 316 316 316 314 316 315 315 318 317 316 313 313 312 310 310 308 305 305 304 305 305 302 304 303 301 302 303 304 305 305 305 304 304 304 304
324 324 324 323 319 317 309 310 310 310 310 311 312 313 314 314 314 315 318 317 317 316 316 311 316 316 317 317 315 313 313 312 311 312 311 311 309 307 303 306 305 305 305 306 305 305 305 306 306 306 305 305 305 304
324 325 324 321 319 315 308 310 310 310 310 310 311 311 312 313 313 314 316 318 318 316 316 313 312 317 318 316 313 313 312 313 313 312 313 311 310 307 300 300 307 307 307 307 306 305 305 305 306 307 307 306 306 306
325 324 323 320 318 312 308 310 310 310 311 311 310 311 313 315 316 318 318 315 316 317 314 313 311 316 319 316 315 314 313 313 314 314 312 309 308 308 307 307 309 308 309 308 308 308 308 308 308 307 307 307 307 306
325 323 321 318 317 309 309 310 310 310 311 311 311 315 318 318 319 319 318 317 317 316 315 315 315 316 318 318 317 317 318 316 316 315 314 311 306 309 308 310 310 308 310 309 308 308 308 308 307 307 307 307 307 306
323 321 319 317 312 308 309 310 310 310 311 312 318 319 320 320 318 317 316 315 314 314 314 312 314 315 318 317 318 317 317 316 311 315 314 313 310 310 309 307 307 310 310 310 309 309 309 309 308 308 307 307 307 306
322 319 317 313 308 309 309 310 310 311 312 319 320 319 319 318 317 317 316 315 316 314 314 314 315 315 318 314 314 314 312 313 316 315 314 310 310 311 310 310 309 310 311 310 310 310 309 307 308 308 307 306 306 306
320 318 314 308 308 309 309 310 310 311 312 316 315 315 315 317 318 317 317 319 318 319 319 318 317 317 318 317 317 312 316 315 312 312 311 311 310 311 310 311 311 311 311 311 310 310 310 309 309 308 307 306 306 306
317 312 308 308 309 309 310 311 311 312 315 314 316 317 319 319 318 323 323 318 317 320 320 318 316 318 317 317 316 314 316 316 311 313 313 309 310 309 308 309 310 310 311 311 310 309 309 309 309 308 306 305 306 306
309 308 308 309 309 311 311 311 311 313 314 312 320 318 319 319 322 320 318 316 320 320 320 319 318 316 314 312 314 315 311 310 309 309 310 305 309 310 310 310 310 309 309 310 309 309 308 308 308 307 306 306 306 306
308 308 309 310 311 310 310 311 312 313 313 314 320 314 318 322 321 321 319 319 319 319 319 319 317 315 311 312 311 310 311 310 305 304 306 310 310 310 310 310 309 309 309 307 308 308 307 308 307 307 306 306 306 305
309 312 311 311 313 310 310 310 310 312 311 316 318 319 320 321 321 321 320 319 320 321 320 317 313 311 312 310 312 313 309 305 307 305 311 311 310 310 309 309 308 307 307 307 308 307 307 307 306 307 306 306 306 306
311 317 316 314 312 310 311 311 310 310 312 321 321 321 321 322 321 320 321 319 319 318 312 312 313 314 310 311 311 308 308 306 310 311 311 311 310 310 310 309 307 307 307 307 307 307 307 307 306 305 306 306 305 305
315 316 314 311 309 310 312 312 318 322 322 322 321 322 322 320 320 322 320 317 318 316 314 313 312 311 312 313 309 307 310 311 311 311 311 310 310 310 309 309 308 307 307 307 306 307 307 306 306 305 305 305 305 305
308 309 310 310 311 311 319 320 312 316 320 321 323 323 323 323 321 319 317 317 315 315 315 314 310 309 308 310 311 312 312 311 312 312 311 311 310 310 309 309 307 306 307 306 305 306 305 306 305 304 305 305 305 305
312 316 313 313 313 312 314 319 321 320 323 323 321 323 320 321 321 318 316 315 315 314 313 311 311 313 313 312 312 314 313 312 309 310 309 308 307 308 308 308 307 307 307 305 305 305 305 305 304 304 304 305 305 305
319 322 321 317 317 315 313 318 323 324 324 322 321 320 321 321 322 318 317 315 314 313 313 314 313 313 312 312 309 313 311 311 309 310 310 309 308 308 307 306 307 307 306 306 305 304 304 304 304 304 303 303 303 304
321 321 318 318 318 318 320 318 314 322 322 321 320 320 319 321 320 319 318 316 314 314 315 313 311 313 314 312 309 310 311 311 309 308 308 308 306 306 305 305 305 305 305 304 304 303 303 302 302 303 303 303 303 303
318 320 318 318 322 321 321 323 323 322 321 318 319 320 321 322 320 318 317 317 316 315 314 312 311 313 314 314 310 310 311 312 312 309 308 308 307 305 304 304 303 303 303 302 302 302 302 302 302 303 303 302 302 302
318 318 321 322 322 321 321 324 322 321 320 318 317 318 319 321 319 318 318 317 317 316 314 312 313 314 316 316 313 310 307 307 312 310 309 308 306 304 303 303 302 302 302 301 302 301 301 302 302 302 302 303 302 302
316 320 321 320 322 323 322 321 320 320 320 318 319 319 320 320 317 317 316 314 316 315 313 312 311 312 314 313 307 306 305 309 310 306 307 306 305 304 303 302 301 301 302 301 301 301 301 301 302 302 302 302 301 301
309 318 319 320 320 319 320 322 320 318 319 321 320 320 320 319 319 318 313 315 315 314 315 312 309 308 312 309 305 304 305 305 305 304 304 304 305 303 302 301 300 301 301 301 300 301 301 301 301 302 301 301 301 301
311 317 320 320 320 320 322 321 320 321 322 323 320 319 319 321 320 317 316 313 313 311 309 307 307 306 306 305 304 304 304 304 304 303 302 301 303 303 301 300 299 300 301 300 300 300 300 301 301 301 301 301 300 300
317 319 319 320 320 321 322 321 323 323 321 322 323 322 322 321 319 317 314 312 310 307 306 306 305 305 304 303 304 304 304 304 303 303 302 300 299 299 299 298 299 301 300 300 300 300 300 301 301 301 300 300 300 300
316 320 320 319 319 321 323 322 322 322 320 321 320 319 320 321 321 320 315 311 307 307 306 306 305 304 304 303 303 304 305 304 304 302 302 301 300 300 300 300 299 299 300 300 300 300 300 300 300 300 300 300 299 299
312 311 315 317 318 321 324 324 323 321 319 322 322 322 321 321 320 317 315 310 308 308 307 307 306 305 304 304 303 303 304 304 304 304 303 302 301 300 300 300 300 300 298 298 298 299 300 300 300 299 299 299 299 299
315 315 314 314 319 323 323 322 322 321 321 322 322 322 320 317 315 315 315 312 311 309 308 307 306 306 305 304 303 303 303 303 303 304 303 302 301 301 301 301 300 300 300 300 299 300 300 300 300 300 299 298 298 298
314 314 315 318 324 323 323 323 323 321 322 322 321 321 320 318 317 316 314 313 313 312 309 308 307 306 305 305 304 303 303 303 302 303 302 302 301 301 301 301 301 300 300 300 300 300 300 300 299 299 299 299 298 298
317 318 323 323 322 322 320 320 324 324 323 322 320 321 320 320 319 319 316 316 314 314 312 310 307 306 305 304 304 303 303 302 302 302 302 302 301 301 301 301 301 301 300 300 300 300 300 299 299 299 299 299 298 298

GFSWCAN_850_thetae_078.txt.gz
Theta_e
322 323 325 324 324 320 315 309 310 314 314 314 313 312 310 309 312 312 311 314 315 316 316 316 314 313 312 311 307 309 308 306 303 302 301 299 299 301 302 306 306 304 303 308 308 306 309 308 309 312 308 307 307 306
322 323 324 324 325 320 318 309 310 314 315 314 314 314 313 310 309 310 310 312 312 315 315 317 316 316 316 315 313 310 308 307 306 299 298 296 300 300 297 301 304 303 302 303 304 305 308 308 306 306 307 306 304 304
321 323 323 324 324 321 318 309 310 312 315 315 314 314 314 313 312 311 311 311 312 315 314 314 314 316 316 316 313 312 310 310 308 308 303 297 298 297 301 299 301 302 303 299 301 302 303 305 304 304 305 305 304 304
322 323 323 325 324 322 317 309 310 310 313 315 315 315 315 315 315 315 315 316 315 316 313 314 316 317 317 316 314 314 313 311 309 307 305 299 298 301 295 297 298 301 303 302 299 301 303 304 304 304 303 304 304 304
321 324 325 325 324 321 317 309 310 310 311 313 314 314 314 314 315 315 316 316 316 315 314 316 315 315 316 317 314 314 313 313 309 309 305 303 303 302 302 301 298 303 301 300 302 304 304 304 305 305 304 304 304 304
322 324 324 324 324 320 317 309 310 310 310 310 310 311 311 312 313 314 317 317 316 316 316 310 315 315 316 316 316 314 313 313 311 311 310 309 308 306 301 302 304 305 305 306 305 305 304 305 305 305 305 306 305 306
323 323 322 323 323 319 315 308 310 310 310 310 310 310 310 312 313 313 316 317 317 316 316 312 311 316 318 315 314 312 312 312 312 311 311 310 308 307 300 300 306 306 306 306 306 305 305 305 306 306 307 307 307 306
323 322 323 323 321 318 310 309 310 310 310 311 311 310 312 315 316 316 317 317 315 317 315 312 310 314 318 315 313 312 312 311 313 313 312 309 307 307 306 307 308 307 306 306 307 307 308 308 308 307 307 307 306 306
323 323 324 321 319 314 308 309 310 310 310 311 310 316 317 318 319 318 317 315 316 316 315 314 312 313 317 317 315 316 315 315 314 314 313 310 305 306 308 309 310 308 309 309 309 308 308 308 307 307 307 307 307 306
322 323 321 319 317 309 308 309 310 310 310 312 318 319 320 319 317 316 315 315 314 314 315 313 313 313 316 317 316 316 316 313 310 310 309 307 306 309 309 307 307 308 308 308 309 309 309 308 308 307 307 307 306 306
323 321 319 317 311 308 309 309 310 311 311 317 317 318 317 317 317 317 315 315 315 314 313 313 313 311 316 314 315 312 307 306 311 311 310 310 311 309 310 308 309 309 308 308 310 310 310 310 308 307 308 307 306 306
320 318 316 313 308 308 309 309 309 311 312 314 314 314 315 317 318 317 315 318 318 315 316 316 317 316 316 317 315 311 315 310 312 312 312 309 309 311 309 310 309 310 310 311 311 310 310 310 309 309 308 307 305 305
318 315 308 307 308 309 309 310 310 311 313 314 316 317 319 317 316 321 321 316 314 317 319 318 315 317 316 315 314 313 316 314 312 311 311 306 309 310 310 308 309 310 310 310 310 310 310 309 309 308 307 307 305 305
312 307 307 309 309 310 310 311 311 312 314 312 319 319 319 316 318 318 317 315 319 319 319 319 317 315 313 311 311 313 309 308 307 303 307 304 309 309 309 310 309 308 308 308 307 308 309 309 308 308 307 306 305 305
308 308 309 310 310 310 310 310 312 313 312 313 319 314 317 320 321 321 320 318 319 318 318 317 315 314 309 311 308 308 310 308 304 304 303 309 309 309 309 310 309 308 308 308 307 307 307 308 307 307 307 306 306 306
310 311 311 312 311 309 310 310 311 311 311 312 314 316 318 319 320 320 320 319 318 319 318 315 311 309 311 308 311 312 309 304 305 304 310 310 310 310 310 309 309 308 306 306 307 307 307 306 306 306 306 306 306 305
313 315 313 313 311 309 310 311 310 309 309 318 320 320 320 321 321 319 320 320 319 316 310 311 311 313 308 310 310 307 307 305 308 310 310 311 310 310 310 309 309 309 307 307 307 307 306 306 306 306 305 306 305 305
316 317 315 311 309 309 311 311 315 320 320 320 319 320 321 322 321 320 321 318 317 316 313 312 310 310 310 311 308 306 309 310 310 311 311 311 310 310 310 309 309 308 307 307 308 307 306 306 306 306 305 305 305 305
308 308 309 311 311 310 314 317 312 314 317 320 321 321 322 322 322 321 318 317 316 315 314 312 309 308 307 309 310 311 312 311 312 310 309 310 311 309 309 308 308 307 306 306 306 305 305 305 305 304 304 304 305 305
309 314 315 313 312 312 312 317 321 318 320 322 322 321 322 320 321 319 316 316 314 314 312 310 309 311 312 312 309 312 313 311 310 309 308 308 308 307 307 307 307 307 307 306 305 305 305 304 303 304 304 304 304 303
313 321 321 318 316 314 313 317 322 323 323 322 321 320 320 320 322 320 316 315 314 312 311 313 314 312 312 312 309 309 311 309 308 307 308 309 309 307 306 305 306 306 306 305 305 304 304 304 301 303 303 303 303 303
313 321 320 317 318 316 317 316 314 319 322 322 321 320 319 319 320 319 317 316 314 314 314 314 312 311 312 312 310 309 310 311 311 308 308 308 307 306 305 305 304 304 303 302 303 303 302 302 302 302 302 303 303 302
314 319 319 316 321 320 319 321 321 321 320 318 318 318 319 320 320 318 316 316 316 315 314 313 310 311 312 314 311 310 310 310 311 312 309 308 307 306 304 303 302 302 302 301 301 301 301 302 302 302 302 303 302 302
317 317 319 320 320 318 320 322 322 320 319 316 315 318 317 319 319 317 315 316 317 316 315 312 311 312 313 315 313 311 308 307 307 311 309 308 308 305 303 303 302 302 301 301 301 300 301 302 302 302 302 302 302 302
314 317 319 319 321 322 321 320 319 319 318 316 318 318 318 319 315 315 316 316 316 316 314 313 313 312 312 314 313 310 305 307 311 307 306 304 305 304 303 302 300 301 301 301 300 301 301 302 302 302 302 302 301 302
308 314 318 319 319 318 318 321 320 317 317 320 319 320 318 317 319 319 314 315 315 316 314 313 312 310 310 312 309 303 305 306 305 304 303 303 304 304 302 301 299 300 300 300 301 301 301 302 301 301 301 300 301 301
308 314 317 318 319 319 320 321 320 318 319 319 319 317 317 320 319 317 317 315 315 314 314 312 308 307 307 306 304 304 304 304 304 303 303 301 303 302 299 299 299 301 300 300 300 301 301 301 301 300 300 300 301 300
315 317 317 318 319 320 319 318 319 320 319 322 320 319 321 319 318 319 316 314 313 310 307 306 305 305 304 304 303 304 304 304 303 303 303 301 299 299 299 298 300 300 300 300 300 300 300 300 300 300 299 299 300 300
312 317 318 318 317 318 321 320 321 322 321 321 320 317 318 319 320 319 315 312 307 306 306 305 304 304 304 303 303 304 304 304 304 303 303 302 300 300 300 300 299 300 300 300 300 300 300 300 300 300 300 299 299 299
311 310 315 314 314 314 318 321 323 322 320 320 321 321 322 321 320 319 315 310 307 308 308 307 306 305 305 304 304 303 303 304 304 304 304 303 302 300 300 300 300 298 299 300 299 299 300 300 299 299 299 298 298 299
313 313 313 312 312 313 317 322 322 321 320 321 321 322 321 318 318 316 314 312 309 307 308 307 306 306 305 305 304 304 303 303 303 303 303 303 302 300 300 300 300 300 299 299 299 300 300 300 300 300 299 298 298 298
314 314 315 315 319 322 323 322 322 321 321 322 321 321 321 319 316 314 313 311 308 308 308 308 307 307 307 306 305 305 304 303 303 302 303 303 302 301 301 300 300 300 300 300 300 299 299 300 300 299 299 299 298 298
315 315 314 317 322 321 321 320 322 323 323 322 320 320 320 320 318 317 316 316 314 313 314 313 311 309 307 306 305 304 304 303 302 302 302 302 302 302 301 301 301 300 300 300 300 300 300 300 299 299 299 299 298 298

GFSWCAN_850_thetae_084.txt.gz
Theta_e
324 325 323 321 321 324 323 322 317 309 313 314 314 313 313 312 310 310 312 311 315 317 317 315 315 316 315 315 317 315 315 313 313 317 318 319 319 315 318 317 318 319 320 319 319 319 319 315 315 317 318 315 314 313
320 321 322 322 321 322 324 324 318 309 311 314 314 314 314 313 313 312 315 311 311 316 318 315 316 316 316 316 316 314 316 313 312 317 316 316 318 317 318 320 315 318 317 319 318 319 317 314 316 315 313 312 312 311
320 320 321 321 321 323 324 323 320 308 310 313 315 315 315 315 315 315 315 315 316 318 318 317 317 317 317 316 316 316 314 314 312 312 313 315 318 316 320 318 316 314 312 315 315 315 315 313 310 310 310 310 310 309
319 319 320 320 321 323 323 323 320 309 310 311 314 314 314 314 313 314 316 315 317 318 318 317 315 317 316 316 316 315 315 313 313 312 313 314 315 311 317 317 316 316 313 315 316 312 312 312 310 310 309 309 309 308
319 319 319 320 322 323 324 323 318 308 310 310 311 312 311 311 311 312 314 315 316 319 319 318 318 316 316 316 316 315 314 314 314 314 316 317 314 313 312 312 316 312 315 317 319 313 312 312 310 310 309 309 309 309
319 319 319 320 322 323 323 322 316 310 309 310 310 310 310 310 311 313 319 317 317 316 319 320 317 317 317 316 316 316 315 316 314 314 315 314 314 314 318 320 315 313 311 312 313 312 311 312 310 309 310 310 309 309
319 318 318 320 322 321 322 318 318 309 309 309 310 310 310 310 313 316 319 317 316 315 318 319 318 317 316 316 316 316 315 315 315 313 312 312 310 310 314 319 315 312 312 311 311 310 310 310 311 310 310 309 309 309
320 319 318 319 321 322 320 318 311 309 309 309 309 310 310 315 315 318 317 317 317 317 317 319 319 320 319 320 319 316 317 316 313 313 312 313 308 309 308 310 311 310 310 310 309 309 311 311 310 310 310 309 309 309
321 319 318 319 321 321 318 313 308 309 309 309 310 313 316 317 320 318 315 314 315 318 320 320 322 321 319 321 320 317 316 314 312 311 310 310 306 309 310 310 309 308 308 308 307 307 308 309 310 310 310 309 309 309
319 318 319 321 319 319 311 309 309 309 310 310 316 319 321 320 317 316 316 317 318 318 318 321 319 321 318 320 320 318 314 315 315 314 309 312 313 313 312 309 307 308 308 309 309 308 309 309 310 310 310 310 310 310
318 320 320 318 317 315 316 309 309 309 310 316 319 320 317 317 317 318 318 320 320 321 319 319 319 321 320 320 320 315 316 315 315 316 315 314 314 313 313 309 308 311 311 310 310 311 311 311 311 311 311 310 310 309
319 318 318 316 316 314 308 308 309 309 312 317 316 315 315 319 319 321 322 321 322 323 322 321 321 320 318 317 318 316 317 315 315 315 315 317 314 313 313 311 310 310 311 311 311 312 312 312 312 311 311 311 311 310
318 318 317 315 309 307 308 308 308 309 312 313 316 319 321 321 321 326 325 326 324 322 321 320 321 320 317 317 316 318 318 316 315 316 316 314 312 313 313 313 312 312 312 312 311 311 310 310 311 311 311 310 311 310
317 314 311 308 308 308 309 309 309 309 312 316 319 318 323 325 326 325 325 323 322 321 320 319 320 319 319 319 318 319 317 316 315 315 313 313 313 312 312 312 312 312 311 311 310 310 309 309 309 309 309 310 310 310
316 311 310 310 310 310 310 310 310 310 314 316 318 318 325 324 324 325 324 323 322 321 320 320 320 319 318 318 317 316 316 315 314 313 312 312 313 312 313 312 312 311 311 310 310 310 309 309 310 309 309 309 310 309
311 310 310 309 309 309 310 311 312 312 313 316 316 318 323 324 324 324 324 323 321 321 319 317 318 317 317 316 316 315 313 313 312 313 312 313 313 313 313 312 313 312 311 310 310 309 309 309 309 309 309 309 309 308
314 311 312 313 311 308 310 310 309 311 312 314 316 315 318 320 324 323 322 321 320 318 315 314 315 315 314 315 314 314 313 313 312 312 313 314 313 313 313 311 311 311 310 310 310 309 309 309 309 309 308 309 308 308
315 315 315 314 309 310 310 311 313 316 317 317 318 321 323 324 325 325 323 321 320 317 316 315 313 314 314 312 312 313 311 311 313 313 312 313 314 312 311 312 311 310 310 309 309 308 308 308 307 308 308 308 308 308
308 308 309 310 313 313 313 316 312 317 317 318 321 323 324 325 325 325 323 321 320 317 316 315 314 313 313 313 313 311 311 312 311 311 311 312 312 311 310 310 310 310 309 309 308 307 306 306 306 306 306 306 308 308
309 311 316 314 313 312 313 317 319 321 323 325 324 326 326 326 325 324 324 321 319 317 317 317 316 314 312 313 312 311 311 311 310 311 310 310 310 310 310 309 308 309 307 307 306 304 305 305 303 302 303 304 307 307
311 317 320 319 315 313 315 318 321 323 325 326 325 325 325 324 324 324 322 320 318 318 319 318 317 315 313 313 312 313 314 312 310 309 310 310 309 310 309 307 306 305 304 304 304 305 305 305 304 302 302 303 305 305
311 311 319 318 317 317 316 317 317 317 321 323 324 324 324 325 324 324 322 320 321 321 320 319 318 317 313 313 313 311 314 311 313 312 310 309 309 309 307 305 303 303 303 303 303 303 304 304 305 304 303 304 303 304
309 313 318 317 319 318 318 319 323 323 323 325 324 324 324 324 324 321 323 323 322 322 321 319 319 316 313 315 313 312 310 313 313 312 311 310 308 306 305 304 303 303 303 303 303 303 304 304 304 305 304 304 303 303
314 316 320 320 318 318 322 324 325 326 326 326 325 325 324 324 324 323 324 323 322 320 318 316 315 315 315 314 315 315 314 313 312 312 310 308 307 305 305 303 303 302 302 303 303 304 304 304 305 305 305 304 305 304
316 317 317 316 319 321 325 324 325 326 326 325 325 325 324 322 325 324 324 323 322 321 319 317 316 314 314 314 315 313 311 310 311 309 307 307 305 304 303 303 302 302 303 303 304 304 304 304 304 303 303 303 304 303
310 314 316 320 320 324 323 325 325 325 325 326 326 325 323 325 325 325 323 322 320 320 319 317 316 316 315 314 311 310 310 310 308 307 306 305 305 304 303 303 303 302 303 303 303 303 303 302 302 302 302 302 301 302
311 315 316 317 319 320 322 323 323 324 325 326 325 326 325 326 324 323 322 319 318 318 318 317 315 314 312 310 308 309 308 307 307 307 305 304 304 302 302 302 302 302 302 302 302 302 302 302 302 302 301 302 301 301
316 316 317 317 318 318 320 321 323 324 325 326 325 325 325 323 323 323 319 315 316 316 316 314 311 309 308 307 305 304 306 305 304 305 304 303 302 301 302 302 302 301 302 301 301 302 302 302 301 301 301 301 301 301
315 316 316 316 316 318 320 320 321 323 326 325 325 325 324 323 323 322 318 317 314 311 311 308 308 307 305 303 303 304 305 305 305 305 305 304 302 301 301 301 300 301 302 301 300 301 302 301 301 301 300 300 300 300
315 314 315 316 316 316 316 318 320 323 324 324 324 324 324 324 324 321 320 315 311 309 308 307 306 306 305 305 305 305 304 304 304 305 305 305 303 302 301 302 302 302 302 301 301 300 299 300 300 301 301 301 301 300
314 314 314 314 314 313 313 316 319 320 320 320 323 324 324 325 321 318 317 312 310 309 308 307 306 306 306 305 306 306 305 304 304 304 304 304 303 302 301 301 300 301 301 302 301 302 302 302 302 302 302 301 301 300
315 315 315 316 316 319 322 323 324 325 326 326 325 325 325 324 323 318 313 312 311 314 310 307 307 309 308 307 306 305 304 305 303 303 303 303 303 302 301 301 300 301 301 301 302 302 302 301 302 302 301 301 300 300
316 315 315 315 315 319 323 324 325 326 327 327 326 325 324 324 324 321 316 313 313 312 310 309 311 311 306 307 309 308 305 304 303 303 302 303 303 302 302 301 301 301 301 301 301 301 301 302 302 302 301 301 300 300

GFSWCAN_850_thetae_087.txt.gz
Theta_e
320 320 320 321 323 321 323 323 324 317 309 314 314 313 313 313 312 314 319 312 319 319 319 316 317 317 316 318 320 318 317 316 317 320 321 323 322 323 322 321 321 321 321 321 321 322 322 319 317 318 322 319 318 318
320 320 320 320 321 321 322 324 324 319 309 313 314 314 314 314 314 314 319 315 313 317 321 318 317 317 318 318 319 316 319 315 316 319 319 320 321 321 320 323 319 322 320 323 320 325 322 318 318 320 319 318 317 316
319 320 319 319 320 321 322 323 323 320 310 311 314 315 315 314 314 315 319 319 320 319 320 319 319 317 317 317 317 319 318 317 315 315 317 319 321 319 323 322 321 318 317 319 320 320 319 318 316 315 313 314 313 313
319 319 319 319 319 320 321 323 323 320 309 310 312 314 314 313 312 312 319 319 320 319 320 320 317 318 318 318 318 318 318 317 317 316 317 318 318 316 320 321 320 319 318 318 318 317 317 316 313 313 312 312 311 311
318 318 319 319 319 321 321 324 323 317 308 310 310 311 311 311 311 312 319 319 320 322 323 321 319 319 318 318 317 318 317 317 318 318 318 319 317 318 317 317 319 315 318 321 322 316 316 315 315 313 313 312 312 311
320 319 318 319 319 320 323 322 321 311 309 310 310 310 310 310 310 317 322 320 319 319 321 323 320 319 319 318 318 318 318 318 318 317 318 318 317 318 322 322 319 318 316 315 316 315 315 314 314 313 313 313 312 311
318 320 319 318 319 321 322 322 318 317 316 310 310 310 310 310 312 319 321 321 317 319 321 321 321 319 319 319 319 319 318 318 318 317 316 317 313 313 314 318 318 317 316 315 314 314 314 313 313 313 312 313 312 311
316 319 319 318 318 320 322 319 318 314 309 310 309 310 310 315 317 320 318 317 317 320 320 322 321 321 320 320 321 319 318 318 317 315 311 312 310 309 311 312 312 313 312 312 313 313 313 313 312 313 312 312 312 311
315 317 319 318 319 321 320 318 311 309 309 309 310 312 316 318 321 320 316 315 317 321 323 322 321 325 320 322 322 321 319 320 316 316 313 310 309 309 315 315 314 312 310 311 311 310 311 312 313 312 312 312 311 312
316 316 317 318 320 320 318 309 310 309 309 310 316 320 321 321 318 316 320 321 321 321 321 322 319 323 320 321 321 320 318 319 317 316 313 315 318 315 315 315 313 310 309 309 310 309 309 310 310 311 311 311 312 312
317 318 319 319 317 316 311 314 309 309 310 316 320 321 320 317 319 320 321 321 322 324 322 322 320 321 320 321 321 318 319 318 318 319 318 318 317 316 315 314 313 311 312 312 312 311 310 310 310 310 311 312 312 312
318 317 317 315 314 315 311 309 309 310 316 320 320 319 320 320 321 323 323 323 324 324 322 321 320 320 320 320 319 318 319 317 318 316 318 319 317 315 314 313 313 313 313 313 312 312 313 312 312 313 313 313 313 311
317 316 316 315 312 309 308 309 309 309 314 317 319 321 321 322 327 326 327 326 324 322 321 320 321 320 320 320 319 319 319 317 316 317 317 317 316 314 314 314 313 313 313 313 313 312 312 312 312 312 311 312 312 312
316 313 308 308 308 308 308 308 309 310 313 319 320 321 324 326 327 327 324 323 321 319 319 317 320 319 319 320 320 320 318 316 317 318 314 315 315 314 313 313 312 312 313 312 312 311 311 311 310 310 310 310 310 311
312 310 310 310 310 310 310 310 310 310 318 318 318 320 326 325 325 325 323 322 321 319 318 319 319 318 319 317 318 316 316 315 315 316 315 316 315 314 313 313 313 312 312 312 312 312 311 311 311 311 311 310 310 311
310 310 310 310 309 309 311 310 310 312 317 316 317 320 324 325 325 324 323 322 319 318 317 317 318 318 318 316 316 316 314 314 314 314 314 314 316 315 315 314 313 312 312 312 311 311 311 311 310 311 310 310 310 310
315 315 312 313 310 309 310 312 314 315 315 316 317 317 322 324 326 325 323 321 317 319 317 315 317 317 315 315 315 315 314 314 313 313 314 316 315 314 314 313 313 312 312 312 312 311 311 311 310 311 311 311 310 309
315 314 314 314 309 312 314 313 316 316 317 316 318 320 322 325 326 325 325 321 320 319 318 316 314 315 315 314 314 315 313 312 313 313 312 314 314 313 312 312 312 312 312 311 310 310 309 309 309 309 309 310 310 309
309 308 309 310 311 313 316 318 316 319 318 318 319 321 324 325 327 326 325 323 320 319 319 319 316 315 314 314 314 314 313 313 313 313 313 313 312 312 311 310 310 310 310 309 309 307 306 307 306 306 305 306 308 309
310 310 317 316 312 315 316 318 321 321 322 324 323 323 324 326 326 325 325 323 320 320 320 320 319 317 315 313 314 313 312 312 311 312 312 312 312 312 312 309 309 308 308 308 307 306 305 306 306 306 304 304 306 308
311 314 319 319 316 314 317 318 320 321 323 325 325 326 325 325 325 325 324 324 323 321 321 320 319 319 317 315 313 313 314 312 312 311 311 311 311 310 310 309 307 306 306 305 305 306 306 306 306 305 304 306 306 305
314 311 315 317 319 319 319 317 318 319 319 321 322 322 324 325 326 325 324 324 323 322 322 321 320 320 318 315 314 313 315 315 314 312 310 309 310 311 310 307 306 305 305 305 305 304 305 306 306 306 305 305 305 305
312 310 316 319 319 319 318 320 320 321 322 325 326 327 326 326 326 325 324 323 322 322 323 323 323 322 319 316 316 316 316 316 313 313 313 311 310 309 307 306 305 305 305 305 304 305 306 305 305 306 305 305 305 303
311 318 320 319 320 319 320 322 324 326 327 328 328 327 326 325 326 325 326 323 323 324 323 324 323 319 317 318 316 316 316 315 313 313 312 311 309 308 307 306 305 304 304 305 305 305 305 306 305 306 306 305 305 305
318 316 318 317 320 321 323 324 324 326 328 327 327 326 326 325 326 327 325 323 324 323 322 322 320 319 318 317 315 315 316 313 311 312 311 309 309 308 306 305 304 304 305 305 305 305 305 304 304 304 304 305 304 305
316 315 318 318 319 324 324 324 325 327 327 326 326 326 326 326 326 325 325 323 322 321 321 320 319 318 317 316 315 314 312 310 311 310 309 307 307 307 307 306 305 305 305 305 305 305 304 304 303 303 303 302 302 304
317 317 316 316 320 321 322 321 323 324 326 326 326 326 327 327 325 325 324 323 321 320 318 319 319 317 315 314 312 310 310 310 309 309 308 306 306 306 305 305 305 305 304 304 304 304 304 304 303 303 303 303 303 302
318 317 318 317 317 317 319 322 323 325 326 325 325 326 326 326 325 325 323 321 319 320 319 318 316 313 312 310 310 309 308 308 308 307 306 305 304 303 304 305 304 303 304 303 303 304 304 304 303 303 303 302 302 302
318 318 317 317 318 318 320 321 323 322 324 325 326 327 325 323 324 325 321 319 319 318 316 313 310 309 308 308 307 307 307 307 307 307 306 306 305 304 303 304 302 302 303 302 302 303 303 303 303 303 303 302 302 302
318 317 318 319 318 318 317 317 318 321 324 323 322 322 323 325 326 325 321 318 316 313 312 310 308 307 306 307 307 307 306 306 306 306 307 307 306 305 304 304 303 304 304 303 303 302 299 300 301 302 303 303 302 302
317 317 318 318 318 316 315 315 316 319 321 321 319 321 326 326 323 321 320 316 313 312 310 312 308 307 307 308 308 307 306 306 306 305 305 306 306 304 303 304 304 304 304 304 304 304 304 303 304 304 304 303 303 301
318 317 317 317 317 317 317 320 321 322 324 327 327 327 326 326 324 320 315 313 311 310 314 312 309 308 310 310 310 308 307 308 307 305 305 305 305 304 303 303 302 303 303 303 303 304 304 304 304 304 304 303 302 302
318 317 317 316 317 318 319 323 325 326 327 327 326 326 325 324 325 323 319 313 312 313 314 309 308 310 311 310 310 309 307 307 307 307 305 304 304 304 303 303 303 303 303 303 303 303 303 303 304 304 304 303 303 302

GFSWCAN_850_thetae_093.txt.gz
Theta_e
317 318 318 318 319 319 319 320 321 323 322 310 314 312 313 313 313 318 321 321 316 320 321 317 318 319 318 319 324 319 319 319 318 321 324 327 327 326 322 321 323 322 320 321 319 321 325 322 319 324 325 322 325 325
317 317 318 318 318 319 319 320 321 323 323 310 313 314 314 314 313 320 323 322 318 320 321 321 318 318 319 319 319 318 319 320 318 323 322 323 326 322 321 323 321 322 322 323 324 325 323 322 322 321 321 321 320 321
318 318 319 319 318 318 319 319 321 322 323 310 311 314 314 313 313 315 319 321 320 322 323 322 319 318 318 317 318 319 321 320 318 317 319 321 322 321 322 322 323 321 320 320 322 323 322 321 320 320 320 318 318 318
319 319 318 319 319 318 319 319 320 321 323 313 310 313 313 311 311 311 315 320 321 323 324 322 321 320 318 319 319 319 320 320 318 318 318 318 322 321 321 322 323 322 321 319 320 321 320 319 319 318 318 317 316 316
318 316 316 316 318 318 318 319 320 321 323 311 310 311 311 310 310 311 314 321 321 322 325 324 320 320 318 318 318 318 318 319 320 320 321 321 321 320 322 321 322 320 319 320 321 319 319 320 316 315 315 314 314 313
318 317 316 315 317 318 318 319 321 322 321 309 310 310 310 310 310 322 323 322 321 320 322 324 323 322 320 319 319 319 320 320 319 320 321 320 317 318 320 320 321 320 319 319 319 317 317 317 316 315 314 313 313 313
319 317 316 315 317 318 318 320 322 321 312 311 313 313 312 310 310 317 324 324 321 315 323 325 321 321 320 320 321 321 321 320 320 320 320 320 315 316 319 319 319 317 318 317 317 317 317 317 317 315 314 314 313 313
318 315 314 314 318 318 319 321 321 313 312 315 312 310 310 312 319 322 319 317 316 317 324 325 323 322 321 322 320 320 321 320 320 319 317 315 313 312 311 313 315 315 316 316 316 316 315 315 315 315 315 314 314 314
316 315 315 316 318 318 320 320 317 316 314 310 310 311 315 318 322 322 320 316 317 324 326 326 324 326 323 322 321 322 321 322 319 318 316 314 309 308 310 314 316 316 316 315 314 314 314 315 315 315 315 314 314 314
316 316 316 318 317 320 320 316 314 310 310 310 314 321 323 323 320 318 322 324 323 324 324 325 322 325 321 322 322 321 321 321 320 319 316 316 315 313 315 316 317 317 315 314 313 313 314 312 314 314 313 314 313 314
319 318 317 318 319 319 315 313 311 310 311 317 322 322 322 319 322 322 323 324 324 325 323 321 321 322 321 323 323 319 322 321 321 320 319 320 321 319 317 317 315 314 312 313 313 313 314 314 313 313 313 313 313 313
316 317 317 318 317 314 314 314 310 313 319 320 320 320 321 322 322 324 325 325 325 327 322 322 321 321 321 318 319 320 321 320 321 318 320 321 321 318 316 316 315 313 313 314 313 313 313 313 312 312 311 312 313 312
314 313 312 311 312 311 310 309 309 310 314 316 319 322 322 323 321 325 328 329 329 324 323 322 323 321 320 319 319 319 322 320 319 321 322 320 318 317 316 315 315 314 314 313 315 314 314 314 313 313 312 312 312 313
309 309 308 308 308 308 308 309 309 310 315 322 322 313 324 325 326 329 327 328 324 323 323 322 323 321 319 321 320 322 322 321 320 321 319 320 316 315 317 315 315 314 314 314 313 313 314 314 313 313 314 312 313 313
308 308 309 309 310 310 309 309 309 310 319 322 321 318 325 324 326 326 324 323 320 319 318 317 319 319 322 322 322 321 320 318 319 319 320 317 317 317 316 315 315 315 314 313 315 314 313 313 313 312 313 313 313 313
313 314 312 313 309 310 310 310 309 310 319 320 319 320 322 326 323 322 325 323 321 319 318 319 322 323 322 322 321 320 318 319 319 319 318 318 318 317 316 315 314 314 314 314 314 313 313 312 312 312 312 310 309 310
316 318 316 312 312 310 310 312 317 319 319 318 319 318 319 323 321 321 322 324 321 320 323 323 319 319 319 317 317 318 319 319 321 320 319 318 317 315 314 313 312 312 311 311 312 312 312 311 311 310 309 308 308 309
316 314 311 311 309 314 311 313 319 318 318 317 317 317 322 323 325 325 324 325 325 322 321 323 319 318 318 318 318 319 315 314 317 317 316 314 314 314 313 312 311 310 310 310 310 309 309 309 308 308 307 307 307 307
313 309 309 310 312 313 318 320 318 318 320 319 319 319 321 323 325 323 321 325 326 322 321 321 323 320 322 319 317 315 315 316 317 317 315 314 312 312 312 312 311 311 311 311 310 309 308 307 307 307 307 307 305 306
309 310 313 319 316 315 319 318 320 321 320 322 322 323 319 323 326 325 327 327 326 325 323 323 323 322 320 315 314 314 314 314 314 316 316 315 314 313 312 312 310 309 308 309 310 309 308 307 308 308 306 305 306 307
313 315 315 314 318 314 317 320 321 321 320 321 321 323 324 324 325 326 325 326 326 325 325 323 322 322 321 318 316 314 314 313 313 314 317 316 315 314 313 313 310 308 308 307 307 307 308 308 307 307 305 305 305 306
316 316 314 317 318 321 320 319 319 318 319 321 322 322 321 326 325 325 325 325 326 326 326 325 324 323 322 321 316 314 314 313 313 313 313 312 312 311 312 310 308 307 307 307 306 308 307 307 307 307 306 306 306 306
312 313 315 319 320 320 319 319 321 321 321 321 321 321 322 324 322 324 326 326 325 325 326 326 324 323 323 321 317 316 316 315 314 314 314 313 313 312 311 309 307 307 307 307 306 307 307 305 306 306 306 306 306 306
314 316 319 319 319 319 319 321 320 320 322 326 327 327 328 328 326 328 328 326 326 325 323 324 324 324 322 319 317 316 317 316 315 314 315 314 313 311 310 309 308 307 306 306 307 307 307 306 305 307 307 306 306 306
318 317 319 318 320 320 321 320 322 324 326 326 326 327 325 326 330 329 328 326 325 324 323 320 326 323 321 320 320 319 318 317 315 315 315 313 311 311 310 308 307 306 306 307 307 307 306 306 306 306 306 306 306 306
312 317 317 319 320 320 321 324 326 324 327 327 325 324 321 325 329 328 324 321 323 325 325 326 322 321 321 321 320 319 318 317 315 312 314 312 310 310 309 308 307 307 306 307 307 306 307 306 306 305 305 304 302 302
315 319 319 318 318 319 322 322 322 325 326 327 325 325 325 325 327 325 322 321 321 324 325 322 321 320 320 319 317 317 317 314 312 312 312 310 309 309 308 308 308 307 306 306 307 306 306 306 305 305 305 305 305 304
317 320 321 321 321 318 319 320 321 322 327 322 322 324 325 325 325 322 323 324 324 323 322 320 319 318 316 313 312 312 312 311 311 310 309 308 307 306 306 306 307 306 306 306 306 305 305 306 305 305 305 304 304 304
318 319 319 320 320 321 321 321 320 320 322 322 324 323 324 325 326 325 325 324 323 322 319 317 313 313 313 312 311 310 310 311 310 308 308 307 306 305 305 306 305 305 305 304 305 305 305 305 305 305 304 304 304 304
317 317 318 318 321 322 321 319 319 319 321 322 323 324 325 324 320 323 323 322 322 320 316 313 311 312 312 310 310 310 310 310 309 309 309 308 308 306 305 306 305 304 305 305 304 302 302 302 302 302 303 304 305 305
318 317 318 319 320 320 320 320 319 318 318 321 323 324 324 323 322 320 321 318 316 315 313 312 313 311 309 309 310 310 310 309 308 308 308 307 307 307 306 306 305 305 306 305 305 305 304 304 304 305 305 306 305 303
320 320 320 322 321 320 320 319 318 317 318 325 324 322 320 319 320 320 319 318 317 314 313 314 313 311 309 311 312 311 311 308 308 307 307 307 306 307 306 306 305 305 306 306 305 305 305 305 305 306 306 306 306 305
320 320 320 320 320 320 320 320 319 322 324 323 322 322 322 323 324 320 318 317 318 317 315 316 314 311 311 311 312 311 310 310 309 309 309 310 308 307 306 305 304 304 305 305 305 305 305 305 305 305 306 306 306 305

GFSWCAN_850_thetae_096.txt.gz
Theta_e
316 316 317 317 317 317 318 319 320 320 322 313 313 312 313 313 313 319 321 320 319 317 321 319 318 319 319 320 315 318 315 319 313 315 319 313 314 315 316 318 318 318 314 315 315 317 319 322 321 324 321 324 327 325
316 317 318 318 318 318 318 319 319 320 322 316 311 314 314 313 314 322 321 319 316 318 321 319 318 318 318 318 318 318 318 318 316 314 315 315 315 315 314 314 315 319 317 319 320 319 320 320 320 321 323 328 326 325
316 318 319 319 320 319 318 318 319 320 323 319 310 313 313 312 312 316 320 316 321 322 322 321 319 317 318 317 317 319 320 319 318 317 315 313 317 313 313 313 319 316 317 317 318 319 319 319 319 319 321 322 322 321
317 319 318 316 316 318 319 318 319 320 322 321 310 312 312 310 310 310 316 320 322 323 323 320 319 319 318 319 318 319 319 318 318 317 315 312 316 317 313 314 313 317 317 315 315 319 319 319 318 317 317 318 317 318
319 319 318 317 315 315 319 318 318 320 321 321 310 311 310 310 310 312 321 320 321 321 322 323 320 318 317 317 317 318 318 319 319 318 316 316 318 315 316 315 314 318 315 314 313 317 318 318 318 317 316 315 315 315
320 320 319 317 315 314 318 318 319 320 321 316 310 310 310 310 314 321 322 321 321 320 320 320 322 320 319 318 319 319 319 319 319 319 319 318 316 316 313 308 317 319 318 318 317 316 317 317 316 317 317 315 313 313
320 318 315 314 314 314 317 318 319 320 321 310 310 311 311 311 312 318 323 323 321 316 321 323 319 320 320 320 321 320 320 320 320 320 317 317 315 315 311 309 315 317 317 316 316 316 317 316 315 314 315 314 314 313
318 315 314 313 314 317 318 319 320 320 312 311 314 312 311 311 313 320 319 318 319 315 323 321 321 321 320 321 320 320 320 319 319 317 316 313 311 308 309 311 313 314 315 316 315 315 316 315 315 315 313 313 313 313
316 315 315 316 317 318 319 319 319 313 313 313 310 310 313 317 321 322 320 316 315 323 325 323 322 322 322 321 321 321 319 315 318 314 313 312 304 307 307 311 313 315 315 315 315 314 314 314 315 315 315 314 313 313
316 316 315 316 317 319 320 319 316 315 309 309 314 321 322 321 321 318 320 321 319 323 323 322 322 322 322 322 321 320 320 314 314 313 314 309 307 312 311 314 316 316 317 315 314 313 313 313 314 315 315 314 313 313
318 317 317 317 319 319 316 314 309 310 313 318 322 322 321 320 321 322 323 323 323 323 324 323 321 320 321 319 317 319 314 313 312 313 312 312 312 316 316 316 316 314 311 311 312 313 313 314 313 313 313 314 314 314
317 318 318 319 319 315 313 310 312 318 320 320 320 320 320 321 321 321 320 322 321 322 323 320 321 321 319 318 318 318 316 314 316 315 314 310 312 318 317 315 311 310 311 312 312 313 312 313 313 313 314 314 313 313
311 312 313 313 313 312 312 309 310 312 314 318 318 321 321 321 319 322 324 323 322 323 322 321 319 319 318 319 317 315 318 315 315 316 315 312 318 317 316 314 313 312 312 312 313 314 314 314 314 313 313 313 312 312
310 309 309 308 308 309 309 309 309 310 316 321 322 313 319 321 321 322 322 323 324 324 323 320 320 321 320 317 315 319 316 316 316 314 315 313 318 317 316 316 315 314 314 314 313 314 313 313 314 314 313 313 314 313
309 309 309 309 310 311 310 309 309 310 313 321 322 314 320 322 321 320 320 325 321 322 323 321 320 320 317 317 316 317 320 319 314 313 313 317 317 315 315 316 316 314 314 314 314 314 314 314 313 312 312 312 312 312
313 314 313 313 310 310 310 309 309 309 313 319 319 319 323 322 322 322 324 323 321 318 319 319 318 317 318 316 318 318 316 314 312 312 317 316 316 317 316 315 315 314 315 314 313 313 313 312 312 311 311 310 309 309
316 318 315 312 313 310 310 309 310 315 319 319 318 318 317 319 320 321 322 321 322 322 318 319 320 317 313 314 315 313 314 314 318 317 317 317 317 317 316 314 313 312 312 310 310 311 312 312 311 309 309 308 307 308
314 313 309 309 309 311 311 315 319 319 318 317 316 315 316 317 321 321 322 322 323 324 324 320 318 315 314 315 313 312 316 317 317 317 317 317 314 314 314 313 312 310 309 309 309 309 309 309 308 308 307 307 307 306
313 313 309 310 313 312 317 318 313 318 319 319 318 318 318 319 321 324 323 323 321 323 325 320 318 314 311 316 315 315 317 317 318 318 316 313 312 311 312 312 311 311 310 311 309 309 308 307 307 307 307 305 304 305
308 309 311 317 318 312 318 319 319 319 320 320 319 320 321 322 324 324 324 322 322 324 323 318 317 320 319 315 315 315 315 315 316 316 315 314 312 311 310 311 311 310 310 310 311 310 309 307 307 307 305 304 305 306
310 314 316 312 316 317 315 318 320 321 321 320 320 323 322 326 327 325 323 323 326 325 323 324 323 321 319 319 321 320 315 315 315 314 314 314 313 313 312 312 310 308 308 307 311 309 308 308 307 306 304 305 305 306
313 315 314 315 317 320 320 318 317 318 317 319 319 319 321 321 324 326 326 324 325 325 325 325 324 322 320 321 322 318 314 313 312 313 315 315 315 314 314 313 312 310 307 307 308 307 307 307 307 306 304 305 305 305
313 313 314 316 319 320 320 319 320 320 319 319 321 320 319 322 323 323 324 325 325 325 325 326 325 325 323 323 321 316 314 314 313 313 313 313 313 312 313 310 310 307 307 306 306 307 306 304 304 305 306 305 306 306
313 315 316 317 318 316 318 320 320 320 321 320 322 325 324 325 326 326 323 326 326 326 326 323 324 323 319 322 318 316 315 315 315 313 313 313 313 311 311 309 307 307 307 306 306 307 306 305 305 306 306 306 306 306
314 316 317 317 319 319 319 320 320 320 322 323 324 323 322 323 324 324 324 323 325 324 323 321 322 323 322 322 319 317 317 316 313 314 314 315 314 311 309 308 307 307 306 306 307 307 306 305 306 306 306 306 306 306
313 316 317 318 319 319 319 322 322 321 323 324 325 323 320 320 322 322 323 321 323 324 325 322 323 324 323 321 320 319 318 317 315 315 315 314 313 311 310 309 308 307 306 306 307 307 306 306 306 305 305 305 303 304
313 317 319 318 317 317 319 320 321 323 324 324 325 323 322 323 323 324 323 322 321 322 323 323 324 323 323 322 321 321 320 318 316 314 313 311 310 309 309 309 308 307 306 306 307 306 307 306 305 305 305 304 304 304
316 317 317 318 320 319 319 318 319 320 325 323 322 323 324 324 322 322 321 323 324 324 323 319 320 319 319 318 318 317 316 315 312 312 309 308 308 308 307 307 307 307 306 306 306 306 305 305 305 305 305 304 304 304
317 318 318 318 319 321 321 319 319 319 322 320 322 323 322 324 324 323 322 323 323 322 317 317 316 315 314 315 315 315 314 312 311 310 308 307 307 306 305 305 306 306 306 306 306 305 305 305 305 305 305 304 304 304
315 316 317 318 318 319 320 320 321 320 320 322 322 323 321 320 321 322 322 319 322 321 317 315 312 312 311 311 311 311 311 311 310 310 308 308 308 307 306 305 305 304 305 304 303 303 304 305 304 304 304 303 304 305
316 316 317 317 318 318 318 319 319 320 322 323 324 324 324 323 322 321 320 316 319 316 312 311 312 311 310 310 310 310 310 310 310 309 308 308 308 307 307 306 305 304 305 305 305 305 302 303 304 305 305 305 305 304
318 318 319 319 319 319 320 320 320 321 323 321 321 320 320 320 321 319 319 318 316 312 313 314 313 310 309 310 311 311 310 309 308 308 308 308 308 307 306 306 305 305 305 305 305 305 305 305 305 305 305 306 305 304
320 320 320 321 320 321 322 323 322 323 323 323 323 322 322 321 316 318 319 318 317 317 315 314 314 312 310 310 311 311 310 309 308 307 307 309 309 306 306 305 305 305 305 306 306 305 305 305 305 305 305 306 306 306

GFSWCAN_850_thetae_102.txt.gz
Theta_e
317 316 315 315 315 316 317 318 318 317 318 320 318 312 312 312 317 319 317 317 319 319 319 318 318 319 319 317 313 314 314 315 311 314 315 309 310 311 314 314 315 316 312 313 310 314 317 317 319 320 317 321 334 333
315 315 315 315 316 317 318 318 319 318 318 320 318 312 313 312 318 320 318 314 316 319 319 317 317 317 317 318 317 316 316 315 315 311 311 310 310 310 308 309 312 316 313 316 315 313 315 317 317 321 321 322 330 331
315 315 316 316 317 318 317 315 318 318 317 320 319 310 313 312 316 320 319 313 315 320 320 319 318 318 317 317 317 319 318 317 316 315 313 310 314 308 310 310 315 314 313 316 316 317 317 318 322 323 324 323 329 329
317 319 319 318 318 319 318 316 315 317 317 320 320 310 312 310 310 315 317 317 318 321 317 318 318 318 318 318 318 318 318 317 316 315 314 309 314 312 309 310 310 313 313 313 313 316 317 317 321 322 324 325 326 326
319 319 319 319 319 319 317 315 315 317 318 320 321 310 312 310 310 310 315 319 320 321 320 319 317 317 317 318 317 318 318 318 318 317 313 312 312 311 310 310 311 314 312 312 315 315 315 316 316 321 323 324 325 325
319 319 319 318 314 313 313 313 314 317 318 320 319 310 310 310 313 319 317 316 320 318 321 316 318 318 318 318 318 319 318 317 317 318 314 314 313 312 310 305 311 317 317 316 315 316 316 316 316 317 320 322 323 324
318 318 315 314 313 312 312 312 316 317 319 321 311 310 310 310 318 321 322 320 318 316 321 318 317 318 319 319 319 319 319 319 318 316 315 314 313 312 306 307 312 317 317 316 316 316 316 315 315 315 315 319 320 320
315 314 314 314 312 312 314 316 316 317 319 313 309 310 312 311 316 316 316 319 317 315 323 315 316 318 319 319 319 319 319 318 317 314 313 310 308 306 305 309 314 315 313 313 314 315 315 315 315 315 314 314 318 318
316 314 315 315 315 315 316 317 317 318 316 311 312 312 311 318 319 318 317 315 318 318 321 318 316 317 320 319 320 319 318 312 314 310 310 309 304 301 306 309 312 311 311 313 314 314 313 314 314 315 315 313 314 316
316 315 315 315 315 316 317 316 312 311 311 312 312 313 319 319 320 318 318 317 315 319 321 320 319 318 320 319 317 317 316 309 311 309 311 306 306 311 310 310 311 314 315 315 315 314 314 313 313 314 315 313 313 314
315 316 316 317 318 318 318 313 313 311 309 313 319 318 319 319 319 321 321 320 319 320 321 322 320 317 320 316 315 315 310 308 308 309 310 308 309 311 312 312 313 314 315 315 314 314 313 313 312 313 314 312 312 312
312 316 317 317 317 314 310 309 310 313 319 319 318 319 319 320 320 318 315 317 317 319 319 318 319 319 318 319 317 314 312 310 313 311 311 308 309 315 315 315 313 310 309 310 311 312 312 312 313 313 314 314 313 314
309 311 313 315 317 311 309 314 315 315 318 319 319 320 320 318 312 318 320 318 318 319 319 318 316 318 316 317 314 312 315 313 312 312 312 310 314 314 316 315 311 310 310 311 312 312 313 313 312 312 312 313 313 313
308 308 308 311 313 311 309 308 309 310 317 319 320 309 316 317 317 316 317 316 321 321 320 319 317 317 316 314 311 315 312 313 315 313 314 310 315 315 315 315 311 311 311 310 311 312 312 313 313 313 313 313 312 312
312 311 311 310 313 313 309 308 308 309 313 318 320 315 316 319 320 321 320 321 323 323 319 318 317 317 312 313 312 313 316 317 315 314 310 315 315 316 315 315 313 312 312 312 312 312 312 312 312 313 313 312 312 311
314 314 314 312 310 312 311 311 309 309 311 314 318 318 317 319 319 321 321 321 321 320 319 318 314 315 316 313 316 317 317 316 313 310 316 315 315 315 315 316 316 315 314 313 312 311 312 311 311 312 310 310 309 309
313 316 314 310 311 309 309 309 309 309 311 317 317 318 318 318 319 318 319 320 320 319 315 314 316 317 312 315 316 313 314 312 315 315 314 315 314 314 314 315 316 315 315 315 313 312 312 311 311 311 310 307 305 305
314 314 312 309 309 309 311 310 313 316 318 317 316 313 315 316 317 316 317 321 321 320 317 316 314 313 313 314 311 309 314 315 314 315 315 315 314 314 314 315 315 314 314 313 313 313 310 310 311 309 306 306 307 306
308 311 311 309 309 312 313 311 313 313 316 317 317 317 317 317 317 318 318 318 321 322 322 319 318 312 312 311 313 316 315 314 314 314 314 315 315 313 315 314 313 312 311 310 309 307 307 307 307 308 308 307 306 304
307 307 308 311 315 315 312 316 317 316 316 318 316 316 316 317 320 320 322 321 320 322 321 318 315 319 317 319 318 319 319 315 314 315 315 315 316 315 312 310 311 311 309 309 309 309 308 308 308 308 308 307 304 305
309 310 310 314 313 314 314 316 318 318 319 320 319 319 320 320 322 324 323 321 321 321 320 322 322 321 322 322 322 321 316 315 318 321 319 316 317 314 310 310 311 310 309 310 310 310 310 309 309 308 307 305 304 305
310 314 315 314 314 316 317 316 315 316 316 317 316 317 317 317 318 320 323 322 322 323 323 323 323 322 323 323 323 320 317 319 320 321 318 316 315 314 311 310 310 309 309 310 309 309 309 310 309 307 305 304 304 305
311 313 314 313 316 316 317 318 320 320 316 316 317 317 315 316 319 320 322 322 323 323 323 323 324 323 323 324 323 319 319 320 321 318 316 315 313 314 312 310 310 309 309 309 308 308 307 309 308 306 303 304 304 305
311 313 314 315 315 313 316 317 318 318 318 317 315 319 319 321 322 322 320 321 323 324 322 323 325 325 324 323 323 322 320 321 320 315 315 314 313 314 314 312 312 311 311 311 311 309 307 307 306 303 303 304 305 305
314 312 313 312 316 317 317 317 317 317 319 317 320 319 318 319 318 318 319 320 323 323 323 324 324 323 322 321 321 320 320 319 315 313 313 312 312 312 314 314 314 313 313 313 312 308 306 306 304 305 304 305 305 305
309 311 313 315 316 316 317 319 319 319 317 319 319 320 320 316 319 320 318 322 322 321 321 322 322 323 323 322 322 321 319 315 313 313 313 312 312 311 312 312 312 312 310 308 307 306 306 306 305 305 305 305 305 305
307 310 314 315 316 316 315 316 318 319 321 321 320 318 318 321 322 320 320 322 323 323 323 323 322 322 322 322 322 322 320 315 315 316 317 316 313 314 315 314 312 312 310 308 307 306 306 306 306 305 305 305 304 305
312 313 313 315 317 317 316 316 316 317 319 320 321 322 322 322 320 322 322 322 322 322 322 323 320 319 319 319 320 322 319 317 317 317 315 314 315 314 313 313 312 309 309 308 307 306 306 306 307 306 306 305 305 304
313 314 314 313 314 315 317 316 316 318 319 321 319 318 319 321 323 323 321 321 320 322 320 317 317 317 318 318 320 321 320 318 318 316 312 311 310 309 309 308 307 306 306 307 306 306 306 306 307 307 306 306 305 304
312 312 314 314 315 316 318 319 319 318 318 319 320 321 322 320 320 321 319 318 319 319 314 316 316 316 318 317 317 318 317 314 312 311 310 309 309 308 308 307 307 306 305 306 306 306 306 306 305 305 305 305 304 304
313 312 313 313 313 315 317 317 317 317 321 322 323 322 322 322 321 319 318 318 318 317 318 313 312 313 312 311 312 313 313 313 311 310 309 308 307 308 308 308 306 306 304 305 305 304 304 304 304 305 305 304 304 303
314 314 314 314 315 316 315 316 317 321 321 320 320 320 320 320 320 319 318 317 318 311 311 312 312 310 309 309 309 310 310 310 309 310 310 308 308 308 309 307 306 305 304 304 304 303 303 303 304 304 303 304 304 305
316 315 315 315 317 318 321 320 322 321 322 321 321 321 320 317 317 318 318 316 316 315 313 313 313 311 310 310 310 310 311 310 309 309 309 308 309 311 310 308 306 305 304 305 305 305 305 305 304 305 305 305 305 305

GFSWCAN_850_thetae_105.txt.gz
Theta_e
317 316 315 315 315 315 315 316 317 317 318 317 319 314 311 312 314 319 318 317 318 318 318 317 317 317 318 316 320 316 317 317 318 323 323 324 324 324 321 319 320 323 320 320 318 321 321 320 322 325 324 323 329 336
315 314 315 316 318 316 316 317 318 319 318 317 319 314 312 312 315 319 318 315 317 319 319 317 317 317 317 317 317 316 319 317 318 322 320 319 323 319 318 321 317 323 320 324 321 322 320 319 320 320 320 321 327 332
315 315 317 319 319 318 318 318 316 316 318 317 320 313 312 312 315 319 319 315 316 320 319 317 317 317 317 317 317 319 317 316 315 316 318 318 322 318 322 321 320 319 316 323 323 321 320 319 320 322 323 324 325 328
315 316 319 319 319 319 319 319 317 316 318 317 320 313 312 311 312 317 318 314 318 320 319 318 318 318 317 317 317 318 318 317 315 314 317 319 322 315 320 319 321 319 318 322 323 321 320 318 320 322 322 324 326 327
315 317 319 319 319 317 315 314 315 316 317 317 321 312 312 310 310 311 316 319 318 320 321 318 317 317 317 317 317 317 318 317 317 319 320 321 316 318 316 317 321 318 321 324 324 319 320 319 316 320 321 322 324 326
316 316 316 318 314 313 312 312 313 315 317 318 321 311 311 310 310 315 316 316 320 320 319 320 318 317 318 318 318 317 318 317 317 318 317 315 313 316 321 322 317 318 317 316 319 316 316 316 316 317 318 322 323 323
315 315 314 315 313 312 312 311 311 316 317 320 319 310 310 309 314 321 320 318 319 317 321 320 319 318 318 319 319 319 319 318 318 316 317 316 314 314 316 322 316 318 317 317 316 316 317 316 316 315 315 318 321 322
315 315 314 315 312 312 312 314 316 317 319 319 310 309 309 312 318 318 319 318 317 316 322 321 321 319 319 320 321 319 318 318 316 315 313 315 311 310 314 316 314 316 316 316 315 315 315 315 315 315 315 315 317 320
315 316 315 314 314 314 314 315 316 318 317 309 309 311 314 319 319 317 316 314 317 318 323 322 323 324 319 319 319 318 318 321 314 317 315 313 311 312 317 313 313 315 312 314 312 313 313 313 313 314 315 315 314 316
315 316 315 315 315 316 317 317 317 317 310 312 311 316 318 319 319 317 317 315 317 317 321 325 318 324 320 320 320 320 316 319 319 316 312 316 318 314 309 309 310 310 311 313 315 315 314 314 314 314 314 315 314 313
313 316 316 316 317 317 315 311 312 312 312 312 315 317 318 319 317 320 321 319 318 322 320 322 321 323 319 322 323 316 319 316 320 317 318 318 319 316 312 310 311 313 314 314 315 314 313 312 313 313 314 313 312 312
309 313 315 315 315 312 312 311 309 310 313 318 319 319 318 318 320 321 321 320 322 324 320 322 320 320 318 318 320 316 319 317 319 314 318 320 319 313 312 311 312 311 309 310 311 311 312 313 312 313 314 313 312 312
309 309 311 314 315 309 310 313 315 316 318 318 319 319 319 318 318 321 322 324 324 321 319 318 319 318 316 316 317 319 320 319 315 320 321 320 318 313 314 314 312 309 309 311 311 312 312 312 312 313 313 313 314 314
309 310 310 311 313 310 308 310 310 314 318 318 319 311 320 321 320 321 322 322 321 320 319 319 318 319 316 318 317 319 317 317 320 321 321 320 316 315 314 315 311 310 310 310 311 312 312 313 313 312 312 312 312 312
312 312 311 310 311 311 308 308 308 310 314 317 320 318 321 320 320 320 319 321 322 320 318 318 318 318 318 318 318 318 319 321 321 321 320 317 315 315 314 315 312 311 310 310 310 311 311 312 312 312 313 312 312 311
312 314 313 311 312 313 312 310 309 309 310 313 318 321 319 319 322 321 321 322 322 320 318 319 320 321 321 320 320 320 321 322 320 320 318 316 315 315 315 315 315 312 312 312 311 311 312 312 310 311 312 311 309 309
312 313 314 309 310 309 310 310 310 309 310 316 317 317 318 319 320 321 321 321 320 319 322 320 322 322 317 321 321 320 321 321 319 317 315 314 315 314 314 315 315 314 313 313 312 312 311 312 312 312 311 310 305 305
313 313 313 312 309 309 310 309 310 313 317 316 316 315 315 316 316 317 317 319 319 319 318 322 317 319 321 321 321 320 318 317 316 315 315 315 314 314 313 313 315 315 315 315 315 314 313 311 309 309 310 306 306 306
307 312 313 312 308 310 312 311 312 315 316 317 316 316 316 316 315 315 316 317 320 320 319 317 322 321 321 317 317 318 317 316 315 314 314 314 314 314 312 313 315 314 314 313 313 313 310 308 308 307 306 307 307 307
307 307 307 307 311 314 312 314 315 314 316 317 315 314 314 314 316 318 319 319 318 322 323 324 322 321 320 320 320 320 318 317 315 315 316 317 317 314 313 312 310 312 311 311 310 308 307 307 307 307 308 308 308 305
309 309 309 313 313 313 314 314 317 318 318 319 319 318 320 318 318 321 322 320 320 323 323 322 322 321 321 322 322 321 320 320 315 316 317 317 318 315 314 311 310 311 310 309 309 309 309 309 308 308 308 308 306 304
310 312 314 314 313 315 315 315 314 315 315 317 316 317 318 318 319 321 321 322 322 323 322 322 322 322 322 322 322 323 322 321 316 317 319 320 320 316 315 311 309 309 309 309 309 310 310 310 310 309 308 306 304 304
311 312 314 313 314 314 315 317 319 319 320 318 316 319 318 318 317 317 322 322 323 321 322 322 323 323 323 323 323 323 322 318 317 320 320 320 316 315 316 312 309 309 309 309 309 309 308 308 309 309 307 303 304 304
311 313 314 314 314 312 316 317 318 319 318 320 320 320 320 322 321 324 327 324 322 322 323 322 322 323 324 324 323 323 319 318 319 320 318 316 315 315 315 314 311 311 310 309 309 309 309 307 308 307 304 303 303 305
312 312 313 310 314 317 318 319 319 320 321 321 321 323 323 320 324 324 325 323 321 323 322 322 323 323 323 322 321 320 321 321 321 320 315 315 315 313 314 314 311 311 311 310 311 311 311 307 307 305 304 304 305 305
310 311 310 314 316 318 319 320 320 321 321 321 322 322 320 322 323 324 324 321 322 322 321 322 322 322 323 322 322 321 320 318 315 313 313 313 312 312 313 314 313 313 313 313 313 312 311 307 306 305 305 304 304 305
307 311 312 313 315 316 317 317 317 321 321 322 323 322 322 323 323 323 320 321 322 322 322 322 322 322 322 322 321 321 321 316 313 313 314 313 312 312 312 313 314 314 313 312 311 308 307 306 306 306 305 305 305 304
312 312 313 315 316 317 318 319 319 320 321 320 321 323 323 323 324 322 322 322 321 320 321 320 320 318 318 319 320 321 319 316 315 316 316 315 315 315 314 314 314 314 313 310 309 308 307 306 306 306 306 305 305 305
313 314 314 314 315 316 318 319 320 319 318 321 323 323 321 320 322 322 321 320 318 318 316 315 317 317 316 319 320 319 318 317 317 317 314 312 312 311 311 311 310 309 309 309 308 307 307 306 306 306 306 306 306 306
312 312 314 315 315 316 318 318 319 317 318 319 320 320 321 320 320 320 317 319 319 316 316 317 318 317 316 317 319 317 316 316 316 312 310 309 309 309 308 308 307 306 306 305 306 306 306 306 306 306 306 306 306 306
312 312 312 313 314 316 317 317 317 316 318 321 322 322 322 321 319 318 318 317 316 317 315 314 314 314 315 312 314 316 315 314 311 311 310 308 308 308 308 308 307 306 305 304 305 306 306 306 305 305 305 305 305 305
312 313 314 315 315 314 312 312 315 320 321 321 321 321 320 319 320 318 317 318 317 312 311 312 311 309 309 309 309 310 310 310 310 310 310 309 307 308 308 308 308 307 305 304 304 303 303 304 304 304 304 304 304 304
315 314 314 315 316 318 318 320 322 322 322 322 322 321 319 318 319 317 317 316 315 313 312 312 313 311 310 310 310 310 310 310 309 309 309 309 307 309 310 309 308 307 304 304 305 305 304 304 304 304 304 304 305 305

GFSWCAN_850_thetae_108.txt.gz
Theta_e
318 317 316 315 315 316 318 317 315 316 317 318 317 320 313 311 312 317 321 317 321 322 320 320 318 320 320 320 321 321 321 321 320 321 320 323 322 326 323 324 324 325 324 322 323 324 326 324 326 330 328 327 328 336
317 316 315 315 316 319 319 317 317 317 318 319 317 320 312 312 313 318 321 315 318 322 322 320 319 318 318 320 320 320 321 320 320 322 323 323 324 322 321 321 323 324 324 326 325 326 325 324 324 326 327 328 328 334
316 315 314 315 318 319 319 319 318 317 318 318 317 320 312 312 313 318 319 315 318 322 320 319 320 318 318 317 318 320 320 320 320 320 322 322 322 321 322 321 321 323 322 325 325 325 324 323 324 324 326 329 331 332
314 314 314 317 318 319 319 319 319 318 317 318 317 320 311 312 312 318 319 316 319 322 321 320 318 319 318 319 318 318 320 318 318 319 320 321 321 320 323 324 323 323 323 323 323 324 323 323 323 324 325 327 329 330
313 314 315 315 315 316 315 313 313 315 316 317 318 318 311 311 310 314 316 315 317 323 322 320 319 319 319 319 319 319 320 320 320 320 320 321 321 322 322 322 322 321 322 323 324 325 325 324 322 322 323 325 327 328
313 314 315 314 315 313 313 312 312 312 314 317 319 315 311 310 309 315 318 315 318 320 322 322 320 320 320 320 320 321 320 320 319 320 321 321 319 322 323 324 322 323 323 322 322 322 322 322 320 320 321 324 326 326
314 315 315 314 313 313 312 312 312 312 315 317 320 311 310 309 312 320 319 319 320 319 323 321 321 320 321 321 321 321 322 321 321 321 322 320 320 319 324 326 320 322 323 322 321 321 322 321 321 320 320 320 322 325
314 315 315 314 314 314 313 313 313 314 317 320 312 310 309 311 318 321 320 316 319 322 324 322 323 321 320 322 323 321 322 322 321 321 320 321 319 319 324 320 319 321 321 320 320 320 320 320 319 320 319 319 321 323
313 315 315 315 315 315 315 315 317 318 318 310 309 309 311 317 321 321 316 315 317 321 322 322 324 325 321 323 323 322 322 323 320 321 319 317 320 316 319 318 317 318 317 315 315 315 315 315 316 318 319 319 319 321
311 314 316 316 315 316 317 316 317 315 309 309 311 317 319 321 317 315 313 318 319 321 323 325 323 325 322 323 324 323 322 322 321 321 318 320 323 318 317 315 316 316 315 315 315 315 314 314 314 316 316 317 318 319
309 312 316 316 316 316 313 315 316 311 311 311 318 320 320 319 319 320 320 318 318 321 320 322 323 325 323 324 324 322 323 321 321 321 320 322 321 318 318 314 315 315 316 316 316 316 315 315 315 315 316 317 317 318
309 310 313 316 316 316 312 311 311 311 311 316 318 318 317 320 321 321 321 321 321 320 322 322 323 323 322 323 323 321 322 320 320 318 320 323 320 319 318 316 314 316 316 315 315 315 315 315 315 316 317 317 317 316
308 309 309 312 314 310 310 311 312 315 317 318 317 317 317 318 324 321 322 322 324 322 323 322 323 322 321 322 322 321 320 319 318 321 322 320 320 319 319 317 315 316 315 314 314 314 315 316 316 317 317 317 317 317
308 310 311 310 312 310 309 311 310 315 317 318 318 318 320 321 321 320 321 321 323 323 322 321 322 322 321 322 320 320 320 320 321 322 322 319 318 321 320 319 316 316 314 314 314 314 314 315 315 315 315 316 316 316
310 313 313 311 311 309 308 308 308 311 314 319 319 325 321 320 322 323 322 324 325 324 322 322 322 321 321 321 320 321 321 323 322 321 319 318 323 322 321 319 318 316 314 314 314 313 314 315 315 314 315 314 315 315
311 314 312 311 311 311 310 309 308 308 310 317 319 323 322 323 323 324 324 325 324 323 322 321 322 321 321 322 322 322 321 322 321 320 319 322 323 321 321 320 318 316 315 315 314 313 313 314 314 313 315 315 313 313
311 314 312 310 312 311 312 310 310 311 313 316 317 318 321 323 324 325 325 325 324 322 323 322 323 323 323 323 323 322 322 321 320 321 320 321 322 320 320 320 319 316 315 315 315 314 313 314 315 315 314 314 313 312
311 314 312 311 310 309 309 310 312 313 314 314 316 315 317 318 321 322 321 323 323 323 323 324 323 323 323 323 323 323 321 320 320 321 320 319 319 318 319 319 319 317 316 316 316 316 316 315 315 314 314 313 311 309
308 311 313 313 311 308 314 314 313 315 315 315 317 316 316 316 318 320 320 321 323 323 323 323 323 324 323 322 322 321 322 322 321 322 321 316 315 314 314 320 319 319 318 318 318 317 316 316 314 312 310 309 308 309
307 307 309 311 307 312 315 315 315 315 314 316 316 315 315 315 318 318 318 320 322 323 323 324 323 322 322 322 322 323 323 322 320 319 316 314 315 317 316 318 317 317 316 317 317 315 314 312 311 309 309 309 310 310
310 309 308 309 312 313 316 316 318 319 319 318 319 320 318 319 319 321 323 323 323 324 324 324 324 324 323 324 323 322 321 321 319 320 321 318 320 319 319 317 316 314 313 312 312 310 309 309 309 310 310 310 310 309
311 311 311 312 315 315 315 316 317 318 319 319 320 320 320 319 320 323 325 325 325 324 324 324 323 324 324 327 327 324 322 322 321 322 320 320 321 320 319 317 315 313 312 311 310 310 309 310 310 311 311 310 309 307
311 312 314 314 315 315 314 317 318 317 318 317 318 319 319 319 320 321 322 321 322 322 324 325 326 325 324 326 325 324 324 323 323 323 321 319 321 321 319 317 315 313 312 312 311 311 311 311 311 310 310 309 307 306
311 313 315 315 314 314 317 319 319 320 320 320 320 319 319 321 324 325 323 320 322 326 326 328 327 326 327 326 326 327 325 321 320 320 320 320 320 319 318 317 315 313 313 312 312 312 312 311 310 310 309 307 306 306
311 312 314 311 316 317 318 319 319 320 321 320 321 321 323 324 325 323 324 323 325 326 326 326 326 324 326 326 325 323 321 321 319 320 320 319 317 318 318 317 316 314 313 313 312 312 312 312 310 309 308 307 306 306
312 313 312 314 316 317 318 320 320 320 320 321 321 322 324 325 324 324 324 324 325 326 325 325 326 326 325 326 323 321 320 320 319 319 317 317 317 317 316 316 315 314 313 313 313 313 313 312 311 309 308 307 306 306
313 315 314 314 317 318 319 319 320 320 320 321 323 324 324 324 324 324 323 325 325 325 324 324 324 325 325 323 322 322 322 320 317 316 316 314 314 314 315 315 314 314 314 314 314 314 314 313 310 309 308 307 307 306
314 313 314 314 315 317 319 320 321 321 321 322 322 323 323 323 323 321 323 325 323 321 320 317 317 319 319 319 319 319 317 315 313 314 314 314 314 313 313 314 314 314 314 314 313 314 313 311 310 309 308 308 307 307
313 313 313 314 315 317 318 320 320 320 321 321 321 322 321 323 322 324 323 320 319 319 317 317 317 319 319 319 318 318 315 315 317 318 318 316 315 314 313 312 311 310 310 310 309 311 311 310 309 309 308 308 308 308
312 312 314 314 316 317 317 319 320 320 321 322 322 321 322 324 324 320 320 319 319 318 318 318 317 317 317 317 318 317 316 316 316 313 312 312 311 310 310 310 309 309 308 308 308 306 307 308 308 308 308 308 308 308
312 313 313 313 315 316 316 319 320 320 322 323 323 322 324 324 322 320 320 319 318 316 316 315 314 314 314 314 317 317 316 314 314 312 311 310 310 310 309 310 309 309 308 307 307 307 307 307 308 308 308 308 308 308
313 314 315 315 315 313 315 318 318 319 321 323 324 324 324 324 323 321 320 320 319 315 313 314 313 311 310 310 311 311 310 311 311 312 312 310 310 310 309 309 309 309 307 306 306 306 307 307 307 307 307 307 307 307
316 316 316 317 318 319 316 315 316 320 320 321 325 324 322 322 322 320 316 315 317 317 315 314 313 311 310 310 311 311 312 313 312 310 310 310 309 308 308 309 309 308 307 306 306 306 305 305 306 306 306 306 306 306

GFSWCAN_850_thetae_111.txt.gz
Theta_e
320 318 317 316 316 315 315 319 319 316 315 316 317 317 319 312 311 314 323 322 326 322 323 321 320 321 320 319 323 324 322 322 321 322 322 324 323 324 326 324 327 327 328 325 326 328 331 326 327 331 331 330 329 334
318 317 316 315 314 314 317 319 319 317 317 317 318 317 319 312 312 316 322 321 319 326 323 322 322 321 320 319 319 321 321 323 322 323 324 324 323 323 323 323 325 322 324 330 327 331 326 325 326 326 328 330 332 331
318 316 314 314 314 316 318 319 319 319 318 318 319 317 319 312 312 316 321 323 322 323 322 321 320 320 320 319 319 321 322 322 321 321 323 324 324 324 324 323 322 324 323 323 326 326 325 325 325 326 326 329 332 332
316 314 313 314 314 315 315 317 318 318 319 319 318 317 318 312 312 316 320 322 324 325 322 322 322 321 320 320 319 319 321 321 320 319 321 323 323 323 323 325 325 324 325 323 324 327 325 325 325 324 326 327 330 332
314 313 314 314 315 314 315 314 314 314 315 318 318 318 315 312 311 316 319 321 323 327 324 323 321 321 321 321 321 321 321 321 322 322 322 323 323 323 320 322 323 322 322 324 325 327 326 326 324 323 324 326 328 330
313 313 314 315 314 314 313 313 313 313 312 316 317 319 312 312 310 317 320 319 320 323 326 322 322 322 322 322 322 322 322 321 321 321 323 322 323 321 323 325 324 323 324 322 324 325 322 325 323 323 323 325 326 327
313 314 315 315 314 314 313 313 312 313 313 316 318 317 311 310 311 321 321 322 316 320 324 323 323 322 322 322 323 323 323 323 322 322 322 321 322 319 323 329 323 322 322 323 322 323 322 321 323 322 322 323 323 325
313 313 315 315 315 315 315 314 312 312 314 318 319 311 311 310 312 319 320 315 317 322 321 323 324 324 322 322 324 323 324 323 323 323 322 321 322 321 329 323 320 321 321 322 321 321 321 323 322 321 321 321 323 323
313 312 313 315 315 316 315 316 316 316 319 316 310 309 309 314 317 322 319 315 320 324 321 320 325 325 323 323 324 324 323 324 325 322 322 320 328 321 320 319 320 319 319 317 317 317 317 317 318 319 320 320 321 322
313 311 313 316 316 316 317 316 318 316 310 309 310 315 318 319 322 319 312 318 320 320 325 326 321 327 323 323 324 324 323 324 324 323 321 320 324 320 318 319 318 317 317 316 316 317 317 316 315 315 316 317 319 320
312 310 311 315 315 316 315 316 315 309 309 311 318 321 322 318 318 319 319 319 318 320 320 320 323 326 323 325 325 323 326 323 323 323 320 323 322 321 319 318 318 317 317 317 317 317 317 316 316 316 316 317 317 319
311 309 309 312 314 315 313 313 313 310 314 318 319 321 320 320 320 321 322 319 320 320 320 321 322 324 324 324 324 324 323 323 322 321 320 323 322 320 318 317 318 318 317 318 318 316 315 316 316 316 317 318 318 318
311 308 309 310 311 314 313 311 311 311 315 318 317 319 319 319 324 321 322 322 321 319 321 321 324 324 324 322 323 324 322 322 321 321 323 322 321 318 319 318 318 318 319 318 317 316 316 317 317 318 318 318 318 319
311 309 311 312 311 313 312 312 311 313 316 316 316 316 320 320 322 321 321 322 320 321 323 322 324 323 322 323 323 322 322 321 322 323 324 322 321 320 320 320 319 319 319 317 317 316 316 317 317 317 317 317 318 318
310 309 314 312 311 311 310 308 307 314 316 317 318 321 321 321 320 320 320 322 323 323 322 323 323 323 324 323 322 323 323 323 323 323 322 321 321 322 323 322 320 320 319 317 317 316 315 316 315 315 315 315 316 316
309 310 313 311 311 310 309 308 307 309 315 317 319 320 320 320 321 321 322 323 323 323 322 323 324 324 323 322 323 324 323 324 324 322 321 325 324 324 324 322 321 320 318 317 317 316 315 315 315 315 315 315 315 314
309 311 310 310 311 311 310 311 313 313 313 316 318 317 320 322 323 322 321 324 323 323 325 323 324 324 323 324 324 324 324 324 322 322 323 325 326 326 325 323 321 320 318 317 317 316 315 315 315 314 314 314 313 313
309 313 310 311 311 310 311 311 315 314 316 316 317 317 318 320 323 324 325 325 323 323 323 323 323 325 325 325 325 324 323 323 323 323 323 326 326 326 324 322 321 319 318 318 317 316 315 315 315 314 314 314 314 312
309 311 313 312 312 312 314 314 314 316 316 316 316 316 317 318 320 322 323 324 324 325 324 324 326 325 325 324 324 323 323 324 324 324 326 326 326 325 321 321 321 319 318 318 318 316 316 316 315 314 314 314 312 310
309 309 312 313 309 312 315 316 315 315 315 315 316 316 317 317 319 322 322 323 324 326 325 325 325 324 323 323 324 324 324 325 324 324 324 324 324 322 321 321 320 320 319 318 318 316 316 317 315 315 312 311 310 311
309 309 308 311 308 312 316 317 318 316 316 317 317 316 318 317 318 321 322 321 323 325 325 324 324 324 324 325 326 326 325 325 323 323 323 324 321 320 321 321 320 319 318 317 317 316 315 315 313 311 311 310 310 310
312 310 312 312 315 315 315 315 317 318 319 318 319 319 320 319 319 320 321 325 325 324 324 324 324 325 325 325 325 328 327 328 327 325 324 324 321 321 321 321 320 319 317 316 314 314 312 311 311 311 311 311 311 311
311 311 313 315 315 315 315 316 318 316 319 318 318 319 319 319 319 323 324 323 323 322 322 322 325 327 328 327 326 327 328 329 328 327 326 325 323 322 322 322 320 318 316 315 313 312 312 311 311 312 311 311 311 309
311 314 315 316 315 316 316 319 318 318 319 319 320 320 320 319 320 321 319 317 317 318 320 325 326 324 324 328 327 325 326 328 327 326 325 324 321 321 322 320 318 317 316 315 313 312 312 313 312 311 310 311 310 308
311 312 315 314 316 316 318 319 320 321 320 321 320 320 321 322 322 322 321 320 320 323 326 327 327 328 326 327 327 327 326 325 324 323 322 319 319 320 319 319 317 317 316 314 314 313 313 313 313 311 311 310 309 308
315 315 315 316 317 318 319 319 320 321 321 322 321 321 323 323 324 324 325 326 327 327 327 326 326 327 327 327 328 325 323 323 323 321 321 319 320 320 319 319 318 317 315 314 314 314 313 313 313 312 311 310 308 308
316 317 316 315 317 317 318 319 320 321 321 321 322 322 324 323 324 325 326 326 323 327 326 325 326 327 328 327 326 326 325 321 320 317 317 318 318 318 317 316 316 315 315 315 314 314 314 314 314 313 311 310 309 307
315 316 317 315 315 316 319 320 320 321 321 321 322 322 323 324 325 322 323 326 325 324 322 321 322 322 323 323 323 320 320 319 317 317 315 315 315 316 316 316 315 315 316 315 315 315 314 315 314 312 311 310 309 308
315 315 314 315 315 316 318 320 321 320 320 322 324 324 323 324 325 323 325 323 322 322 321 321 321 321 319 317 318 318 318 318 317 318 319 317 317 316 316 315 314 314 314 314 313 313 315 315 314 312 311 310 310 309
315 313 314 315 316 317 318 319 320 319 321 320 321 321 324 325 325 324 322 322 322 321 321 319 318 319 320 319 318 317 317 318 317 317 315 315 314 312 312 312 312 311 311 311 311 311 312 312 311 311 310 310 310 310
314 313 314 315 316 316 317 319 321 321 322 323 323 322 324 324 323 322 321 320 318 318 318 316 315 316 316 317 318 317 316 315 314 313 313 313 312 312 312 312 311 311 310 310 310 310 309 309 310 310 310 310 310 310
315 316 315 316 315 315 317 318 319 320 320 322 322 323 325 325 323 322 321 321 319 316 315 316 314 313 313 313 313 313 312 313 313 313 314 312 312 312 312 311 311 311 310 309 308 309 309 309 309 309 309 309 309 309
317 316 316 317 318 318 317 318 319 319 320 322 322 324 324 323 322 321 319 319 318 317 316 315 314 314 313 314 314 314 313 313 313 313 311 312 312 312 311 311 311 311 310 309 308 308 307 307 308 308 308 308 308 308

GFSWCAN_850_thetae_114.txt.gz
Theta_e
319 320 318 318 317 315 314 314 316 319 318 316 315 316 317 318 313 311 321 323 325 327 325 322 322 323 321 319 322 325 325 322 322 322 323 324 325 325 325 325 329 326 328 330 329 329 332 326 328 331 332 330 331 331
319 319 318 316 314 314 313 315 317 319 319 317 316 317 317 318 312 311 320 324 324 327 326 323 322 323 321 320 320 322 321 326 323 325 325 324 325 323 323 324 326 324 326 328 330 331 327 326 327 327 327 330 330 330
318 318 316 314 314 313 314 314 315 318 319 319 318 318 318 318 312 311 320 324 324 324 326 324 322 320 320 319 320 320 324 323 323 322 324 325 326 326 325 326 324 323 323 324 324 327 326 326 326 326 326 327 327 331
318 317 315 314 314 314 314 314 316 317 318 319 319 319 317 318 312 312 318 322 324 325 323 321 321 322 321 321 320 320 321 323 322 321 320 322 324 324 325 325 327 326 327 324 323 326 327 326 326 324 325 326 327 331
317 315 314 313 314 315 313 313 313 313 314 315 318 319 318 316 312 312 314 322 324 326 329 323 323 323 321 321 320 322 322 322 322 323 323 323 323 326 324 322 323 323 323 323 326 328 328 327 326 324 324 324 325 328
316 314 313 314 315 315 314 314 313 313 312 312 316 317 318 313 311 313 318 315 323 324 327 326 323 322 322 322 321 323 323 323 322 323 323 324 325 325 321 325 325 323 324 325 326 327 325 327 325 323 322 324 324 326
314 313 313 314 315 315 315 316 314 312 313 313 315 317 316 312 311 318 322 322 321 323 327 327 325 323 323 323 323 323 324 324 324 324 323 322 324 320 320 330 325 323 323 323 323 324 324 321 321 323 322 323 322 324
313 312 313 313 316 316 316 316 315 313 313 314 317 317 311 311 310 316 322 320 320 321 323 323 325 325 323 323 324 324 324 325 324 323 325 324 324 325 333 324 324 322 323 323 322 321 320 324 323 323 322 322 322 323
311 312 313 312 316 316 317 316 316 315 316 318 313 310 309 309 314 316 322 317 314 325 322 321 324 326 324 322 324 326 324 324 326 326 323 324 329 323 323 320 320 321 321 321 320 320 319 319 320 319 320 320 320 321
311 312 312 311 315 316 317 316 318 318 313 309 309 313 317 315 321 322 315 318 318 321 325 326 321 327 325 323 326 326 325 325 330 325 323 325 327 323 321 319 321 320 319 318 317 317 317 317 317 316 317 317 319 319
310 312 310 310 314 316 317 316 315 310 308 309 317 321 322 320 321 320 317 318 318 317 317 323 325 328 325 325 326 325 326 325 326 324 324 323 324 325 323 320 319 319 319 317 317 318 318 318 318 317 317 317 317 318
310 311 309 309 310 315 316 314 313 309 313 316 319 321 319 318 320 320 322 319 320 320 320 320 321 324 324 325 326 325 325 324 324 324 324 323 325 323 321 320 319 319 318 318 318 318 316 316 316 317 317 318 318 318
309 311 309 310 311 312 315 314 313 310 312 317 318 317 320 319 323 322 322 322 321 320 320 320 322 326 326 324 325 325 324 324 322 324 323 323 325 321 318 318 319 318 318 318 319 318 316 316 317 317 318 319 319 319
308 311 309 311 312 312 313 313 312 311 317 317 318 316 320 321 321 322 322 322 320 321 321 320 322 325 324 324 324 325 324 323 324 324 324 325 324 321 320 320 320 319 320 320 319 318 317 318 318 318 319 318 317 317
307 310 310 313 313 312 311 310 311 313 315 317 317 320 320 320 321 321 321 321 321 321 322 322 323 323 324 325 324 324 324 324 324 325 325 325 323 322 322 322 321 321 321 320 319 318 317 317 317 317 318 317 316 316
308 310 311 313 311 310 309 308 311 313 314 315 317 322 321 321 322 322 322 321 322 323 322 322 324 324 326 324 323 323 324 324 324 325 326 325 325 324 324 324 323 322 321 321 319 318 317 316 316 316 315 316 316 316
309 310 312 311 310 310 308 307 309 310 312 315 319 320 320 321 321 322 323 323 322 323 324 324 324 324 325 325 323 324 324 325 324 325 327 327 325 326 326 325 324 322 322 320 319 318 317 316 316 316 316 316 316 315
309 312 310 311 311 310 309 310 313 315 316 316 317 319 319 320 320 323 322 324 323 325 324 325 324 325 324 326 325 325 325 325 325 326 329 329 328 329 327 326 323 323 321 319 318 318 317 316 316 316 314 314 314 314
310 310 311 311 310 311 311 310 312 316 316 316 317 318 318 320 323 321 323 322 323 325 324 324 326 327 326 325 326 325 325 325 325 326 329 329 329 328 325 325 324 323 321 319 318 318 317 315 316 316 316 316 315 315
309 309 311 312 313 310 314 315 314 316 317 317 317 318 318 318 321 318 323 322 323 326 325 327 326 325 325 325 326 326 326 326 326 325 327 327 327 328 326 324 323 322 321 320 319 318 317 317 317 316 315 316 315 313
309 309 308 312 313 310 314 316 317 316 316 316 318 317 317 317 318 320 321 323 323 324 324 324 324 323 323 325 324 324 327 324 325 326 325 325 326 326 325 324 323 322 321 320 320 319 317 318 318 317 315 315 314 312
310 311 312 310 313 314 316 316 316 317 320 318 320 319 318 318 318 318 321 322 322 322 323 323 324 325 326 326 324 328 331 329 329 327 324 323 323 325 324 323 323 322 321 320 319 319 318 316 317 316 313 312 311 312
311 311 313 313 314 315 315 316 317 318 319 320 319 320 320 320 320 319 320 321 323 323 323 323 326 328 328 329 330 328 327 327 326 324 322 324 326 325 324 324 322 322 321 318 318 316 315 314 313 312 312 312 313 312
311 313 315 315 315 316 316 318 318 318 318 319 320 320 319 319 319 321 322 322 322 322 322 323 324 324 324 323 323 323 325 328 328 328 327 328 326 324 323 322 321 319 319 318 317 316 314 312 312 312 313 313 312 312
312 311 315 313 317 316 318 319 319 320 319 320 320 320 321 321 322 323 322 320 318 318 321 327 327 325 328 328 327 328 327 325 324 323 326 325 324 322 320 318 318 319 318 317 316 316 314 313 313 313 313 311 312 312
313 314 314 317 317 317 318 320 320 321 322 321 321 321 322 324 322 322 324 326 328 327 328 327 327 327 324 326 327 326 325 325 325 325 324 321 321 322 322 321 320 318 319 318 317 317 315 314 314 314 313 312 311 311
312 317 317 316 317 317 318 319 321 322 321 322 323 324 324 323 323 327 327 327 327 328 327 326 326 327 327 327 328 326 324 323 322 322 320 319 318 318 319 319 319 318 317 317 316 315 315 315 315 314 314 314 312 310
315 317 318 317 317 317 319 321 321 323 323 322 321 323 322 324 325 323 321 319 320 326 324 323 324 324 325 324 323 321 319 318 317 316 316 317 316 317 316 317 316 315 315 316 316 316 315 315 315 314 314 312 311 310
317 317 317 317 317 317 317 319 322 320 320 321 323 323 323 320 323 323 324 324 324 323 322 322 322 321 320 320 320 319 319 319 319 319 320 319 318 317 317 316 316 316 316 316 314 314 314 316 315 313 313 311 310 310
315 315 316 316 316 317 317 320 320 319 320 321 319 321 324 325 325 325 323 323 322 321 320 320 320 321 320 319 319 319 319 319 317 318 319 317 316 315 314 314 313 313 313 312 313 313 312 313 314 313 312 311 311 311
315 315 315 316 317 316 318 320 320 320 321 321 322 323 324 324 323 322 321 320 320 319 319 318 316 317 318 319 318 317 316 316 315 314 314 313 313 313 313 313 312 312 312 311 311 311 311 311 311 312 312 312 311 311
315 316 316 317 317 317 318 319 321 322 320 319 321 324 325 323 323 322 322 321 319 316 316 317 315 314 314 314 314 314 313 315 314 314 314 314 313 313 313 312 312 312 311 311 310 310 311 310 310 310 310 311 311 311
317 317 316 317 319 318 317 319 320 320 321 322 323 321 320 323 323 321 321 320 319 318 316 316 315 314 314 315 315 315 313 312 311 312 312 313 313 313 312 312 312 312 311 310 310 309 309 309 309 310 310 310 310 311

GFSWCAN_850_thetae_117.txt.gz
Theta_e
318 318 319 319 318 316 315 314 313 313 315 319 318 315 315 316 317 317 311 319 323 326 327 326 325 323 322 320 324 325 325 324 321 323 324 328 330 325 329 330 329 324 325 329 328 329 332 327 328 329 329 329 331 334
317 319 318 318 316 315 314 314 313 314 316 319 319 317 316 317 317 315 313 324 326 324 328 326 324 323 321 320 319 320 324 326 326 325 326 327 327 323 323 325 327 328 325 328 327 326 328 327 328 327 326 327 329 336
317 318 318 316 315 314 314 314 313 315 317 318 319 319 317 318 317 315 312 322 325 325 319 325 325 323 320 319 320 320 321 325 324 323 323 325 329 326 327 328 327 328 326 323 327 327 327 327 326 326 327 327 329 333
317 316 317 316 314 314 315 314 314 314 317 317 318 319 319 318 317 314 311 320 323 325 326 323 322 322 320 321 320 320 321 321 323 321 322 321 323 326 326 326 326 328 327 325 324 326 327 326 325 324 325 326 327 332
315 316 317 315 314 314 315 314 314 314 312 314 315 317 319 318 318 313 311 320 323 323 329 328 323 322 322 321 320 321 322 321 322 322 324 323 328 327 325 323 322 325 327 325 329 329 328 327 325 323 324 324 325 330
314 316 316 314 313 314 315 315 315 315 313 312 312 316 319 318 316 311 313 313 322 322 325 328 324 324 323 321 321 322 323 323 323 323 324 326 325 325 325 325 326 324 325 326 328 326 328 327 325 324 322 323 325 330
314 316 315 313 313 314 316 315 315 316 312 313 312 315 317 317 312 312 322 322 317 322 326 328 326 323 323 322 322 323 323 322 324 324 325 324 323 321 321 323 327 325 323 323 324 325 325 324 322 322 322 323 323 327
315 315 314 312 313 315 316 316 316 315 313 313 313 317 317 313 311 311 320 321 321 323 323 328 327 325 323 323 323 323 324 325 324 323 325 325 324 326 325 325 324 324 323 323 323 322 322 323 322 323 322 321 322 326
314 314 311 312 312 315 316 316 316 315 314 315 316 313 311 310 310 311 314 321 316 320 326 324 327 329 324 323 323 325 324 326 325 327 327 326 323 316 322 324 321 321 322 322 322 321 320 319 323 322 319 320 320 323
313 312 311 312 311 314 316 317 317 317 314 310 309 311 317 313 317 321 321 317 318 318 326 327 324 329 325 324 326 326 325 327 329 328 324 326 329 323 322 318 319 321 321 320 319 319 318 317 317 317 317 317 317 318
313 311 311 311 310 313 316 316 316 314 309 309 316 320 323 317 321 320 320 320 318 319 319 323 324 328 322 327 329 326 328 326 327 327 326 327 325 326 324 322 319 321 319 318 317 318 318 319 319 318 317 316 317 317
311 310 311 310 309 311 315 316 315 310 309 313 317 321 320 321 322 322 323 320 322 320 318 317 320 324 324 326 328 326 327 327 326 325 327 327 327 324 324 321 320 319 319 318 317 317 317 317 316 317 317 317 318 318
311 309 311 309 310 311 312 315 313 311 311 315 318 318 319 317 320 323 323 323 323 320 319 318 319 325 324 324 327 329 326 327 324 326 327 326 326 324 323 322 319 319 319 318 318 318 318 316 316 317 317 318 318 319
310 309 310 310 311 312 312 312 314 312 311 316 318 317 320 320 322 323 322 323 320 320 319 321 321 328 327 328 327 328 326 325 326 326 326 328 323 321 319 319 319 318 318 318 318 319 317 317 317 317 319 319 318 317
310 308 310 310 313 313 312 312 312 311 314 316 316 317 318 319 319 320 322 323 321 320 321 323 322 325 326 326 326 326 326 326 326 326 325 325 322 319 318 319 319 319 319 320 320 319 318 317 317 318 319 317 316 316
310 309 309 310 312 311 310 311 311 312 314 313 316 319 320 321 320 320 321 323 322 321 322 322 326 327 327 327 326 327 324 326 326 330 327 325 321 320 320 320 320 320 320 321 320 319 318 317 317 317 317 316 315 315
310 308 311 311 311 310 308 308 311 313 312 313 316 316 317 318 321 321 322 323 323 323 326 326 326 326 327 327 326 324 324 326 329 327 325 322 321 321 322 324 324 323 322 321 321 319 318 317 316 317 316 316 315 315
310 310 311 310 311 309 307 310 312 312 313 314 316 317 318 320 320 321 320 321 323 323 322 326 326 327 327 326 326 325 326 327 328 328 325 324 324 323 323 324 324 324 322 322 321 319 318 317 316 316 316 316 315 315
310 310 310 311 311 310 310 310 311 315 317 317 316 317 317 317 320 321 321 322 322 323 324 325 328 326 326 328 328 326 326 328 329 329 328 326 325 325 324 324 325 323 322 322 320 319 318 317 316 317 316 315 314 314
310 310 310 311 311 310 312 312 313 314 316 318 317 316 317 319 322 322 320 320 321 323 324 327 326 327 327 327 326 325 325 326 327 328 329 328 327 326 322 324 324 324 323 322 321 319 318 318 317 317 316 316 316 315
310 309 309 310 311 311 310 315 316 317 317 318 319 319 319 319 322 324 323 321 322 321 321 325 325 324 324 325 326 326 325 325 324 325 326 328 328 329 327 326 325 324 323 323 321 319 318 319 318 315 317 316 316 315
310 310 310 310 312 312 313 315 315 317 318 318 319 320 320 320 321 320 321 322 323 324 323 324 325 323 326 327 326 323 325 324 323 321 326 328 325 325 327 327 326 324 324 323 321 320 319 318 318 317 317 316 315 313
311 310 311 312 312 313 314 315 317 318 320 321 320 321 322 322 321 319 322 322 323 323 322 321 322 325 327 328 329 329 327 324 322 321 329 327 325 325 326 325 325 324 323 321 320 320 319 319 317 317 316 316 315 314
310 312 313 314 315 314 316 317 317 318 319 321 321 321 322 321 320 322 324 321 321 324 323 323 322 324 325 325 327 329 329 329 327 326 325 324 324 325 325 324 323 323 322 322 321 320 316 316 316 314 315 314 312 312
313 311 313 313 315 317 317 319 319 320 320 321 321 321 324 320 324 323 324 322 320 321 323 326 326 325 326 327 327 327 327 325 325 324 321 320 324 324 321 319 318 318 318 317 318 318 315 316 316 313 312 312 313 313
309 313 313 317 316 318 319 320 321 320 321 322 322 322 322 326 325 324 326 324 324 325 328 328 328 327 325 325 326 324 324 326 325 325 324 321 321 322 322 321 318 319 320 318 318 317 316 315 316 314 312 313 313 312
313 315 316 316 317 319 319 319 319 322 322 323 324 324 323 322 324 326 322 320 318 318 325 325 322 326 325 321 326 325 325 322 323 323 323 322 320 317 317 318 319 319 318 318 317 317 317 317 316 315 314 314 313 312
314 317 319 318 318 318 319 321 321 323 323 322 323 324 325 325 326 324 321 321 319 324 324 325 324 324 325 324 321 319 316 315 316 317 317 317 317 318 318 317 316 316 317 316 316 316 316 315 315 314 314 314 314 313
316 318 318 319 318 318 318 319 322 322 322 321 325 322 320 317 321 324 320 319 323 324 323 323 321 320 320 320 319 318 318 319 320 320 320 319 319 318 317 317 316 315 316 316 315 315 314 314 314 312 314 313 313 314
316 317 318 318 318 317 317 319 321 321 321 320 319 319 317 317 320 323 324 323 323 323 321 321 321 320 320 320 320 320 319 320 319 319 318 318 317 316 316 315 313 313 313 314 314 314 312 313 314 314 312 312 312 311
316 316 316 316 317 317 320 319 321 321 319 320 322 322 322 323 324 323 322 321 321 320 319 320 320 320 320 319 317 317 316 316 315 315 314 314 314 314 314 313 312 313 312 311 311 312 313 314 313 313 313 312 311 311
316 316 316 317 318 319 320 323 322 320 318 318 321 322 323 322 323 321 321 322 318 316 317 316 315 316 315 315 315 314 315 315 314 314 315 314 314 314 313 313 313 312 312 311 310 310 311 310 310 311 313 312 312 312
317 318 317 317 319 318 319 320 322 322 321 321 323 323 322 320 322 322 322 320 317 317 316 315 315 315 315 315 315 315 313 311 310 310 311 312 313 313 313 313 312 312 312 311 310 310 310 309 309 310 311 311 311 312

GFSWCAN_850_thetae_123.txt.gz
Theta_e
321 321 319 317 316 317 317 316 315 314 314 314 314 315 315 317 315 314 315 316 318 318 323 323 323 322 324 318 318 321 320 320 314 314 315 318 321 321 322 321 323 316 320 320 319 323 325 325 326 326 324 329 330 334
320 320 317 316 316 316 316 315 314 313 314 312 313 315 315 317 316 315 316 315 315 317 319 321 319 319 324 321 321 319 320 321 320 316 315 316 319 318 316 318 318 320 318 320 319 319 320 326 325 327 329 330 332 333
320 320 317 316 315 315 316 314 313 313 314 313 313 313 314 317 317 315 316 314 314 320 322 318 315 322 323 319 318 321 324 323 322 321 318 317 319 314 318 318 322 321 318 320 318 318 323 326 326 328 328 327 327 328
319 316 315 315 315 314 316 313 313 314 314 313 314 313 313 315 318 316 316 315 316 320 321 321 320 323 322 320 319 319 322 323 322 320 317 310 313 316 315 318 319 320 318 319 319 323 324 326 326 327 330 325 324 325
318 317 317 316 315 314 315 313 313 314 315 314 314 314 312 314 317 317 317 315 315 316 321 324 323 322 321 320 319 320 319 320 320 318 313 313 314 318 314 314 314 320 316 319 321 323 324 326 325 325 327 326 324 324
318 317 315 315 315 315 315 312 312 315 314 315 314 313 311 313 316 317 316 316 311 315 318 321 325 323 321 320 320 320 320 321 322 322 319 323 323 319 316 316 319 323 323 321 323 323 324 325 323 324 324 327 328 326
313 315 315 315 315 314 313 312 313 315 314 315 313 311 311 313 317 315 313 314 312 313 319 324 323 323 322 321 321 321 322 322 322 322 321 322 320 318 312 315 322 325 326 326 325 324 325 324 323 322 322 324 325 325
307 308 311 314 314 313 312 312 313 315 315 314 312 312 312 315 317 315 317 314 314 317 322 321 320 322 321 321 321 321 321 322 322 321 322 320 322 317 313 316 322 323 326 326 327 325 325 325 325 324 322 323 323 322
306 307 312 313 313 312 312 311 315 315 315 314 314 314 314 315 315 314 314 315 317 316 321 320 320 321 323 321 321 322 322 318 321 317 317 320 312 314 317 320 320 321 322 325 325 324 324 323 322 322 322 322 322 321
308 311 311 311 312 311 311 311 315 316 313 309 308 311 311 312 312 317 314 318 318 318 319 322 323 320 323 320 320 322 322 317 320 319 320 318 317 322 323 321 321 320 322 323 321 320 320 322 322 321 320 320 320 320
309 311 311 312 311 311 310 311 315 315 310 308 315 318 320 314 319 319 318 317 317 317 318 320 323 320 323 321 318 323 319 319 320 319 320 317 317 319 323 323 322 320 320 322 322 321 320 319 319 320 317 317 317 317
308 310 312 311 310 310 310 311 315 314 309 310 316 320 319 320 320 319 318 317 315 315 316 319 318 321 324 326 323 323 323 320 320 317 318 319 315 322 321 322 322 317 319 320 321 320 319 319 317 317 316 317 316 316
309 311 311 309 310 310 310 311 313 314 311 313 318 318 318 317 315 320 319 317 315 317 315 317 320 322 324 324 324 322 325 323 318 319 320 317 320 321 322 322 321 318 320 320 319 318 317 317 317 317 317 316 317 316
310 311 311 310 310 310 309 312 312 313 311 314 317 314 318 318 316 316 316 316 319 321 321 316 321 322 322 321 321 324 323 318 320 320 319 314 322 322 321 321 321 318 319 319 318 317 317 317 317 317 315 315 316 317
310 311 311 309 309 310 311 312 312 313 311 314 316 317 317 316 317 317 317 318 320 322 322 315 318 324 319 322 321 322 323 323 319 319 315 320 321 321 322 321 319 318 319 318 318 317 317 317 317 317 316 315 317 317
310 310 310 309 309 310 311 311 311 312 312 314 315 316 316 315 316 318 320 320 321 322 321 320 315 319 321 319 320 322 322 322 318 315 321 321 321 322 322 321 318 317 318 318 317 317 317 317 318 318 316 317 318 317
309 309 309 310 311 311 310 310 311 312 314 313 314 314 314 315 315 317 318 319 319 321 321 322 323 321 318 321 320 319 319 316 320 321 321 323 323 323 323 322 318 317 318 318 317 317 317 317 318 317 316 317 318 317
309 310 310 310 311 310 309 310 311 312 313 313 312 313 313 314 315 315 317 319 319 321 322 323 322 323 324 324 321 317 320 321 321 322 322 323 323 323 323 322 318 318 318 318 318 318 318 318 318 318 318 316 317 316
309 310 310 311 310 310 309 309 310 312 313 312 312 312 313 315 314 315 318 319 319 319 320 321 322 323 322 320 322 324 321 322 322 323 324 323 323 322 322 320 319 320 320 320 319 319 319 319 319 319 318 317 317 316
310 310 309 310 310 310 311 311 310 311 313 314 315 316 316 315 316 318 318 318 318 320 321 322 322 323 324 324 324 324 325 326 325 324 323 323 322 321 320 321 321 321 321 323 323 324 324 321 319 319 318 318 316 316
308 309 310 310 310 310 311 311 313 312 314 315 316 315 316 317 316 316 317 319 321 321 321 321 320 321 322 323 324 325 325 327 326 325 324 324 322 322 322 323 324 324 325 324 324 323 324 324 322 320 318 317 316 316
308 309 310 309 310 311 311 311 312 313 315 316 317 317 318 318 318 320 319 321 321 321 321 321 322 322 322 321 324 324 325 325 326 326 325 324 323 325 327 326 325 326 326 326 327 326 325 323 322 320 318 317 316 316
309 310 310 310 310 311 312 313 315 316 316 318 319 318 317 318 319 321 321 321 320 320 321 321 321 321 322 323 324 322 323 324 322 321 321 319 320 324 326 326 325 325 325 326 326 325 324 323 322 322 321 319 317 316
310 311 311 312 311 313 314 315 315 316 317 318 319 320 318 318 321 320 320 319 321 320 321 320 321 322 322 321 321 322 324 325 324 323 325 325 325 325 324 324 324 324 323 322 320 320 320 321 320 319 319 317 317 317
310 310 311 311 313 314 316 317 317 317 318 320 319 318 318 320 318 320 321 322 324 325 322 320 320 322 322 323 324 325 325 325 326 326 325 324 323 322 322 321 318 317 317 317 317 316 317 318 317 318 318 316 316 316
311 311 309 314 315 314 317 320 320 320 318 319 320 319 320 319 320 321 319 320 323 325 325 325 324 323 322 324 325 324 324 324 324 324 323 323 320 320 320 318 318 318 317 317 316 316 314 314 315 316 315 315 314 314
309 310 312 313 314 317 318 318 318 319 320 320 318 318 318 320 320 318 322 319 320 321 324 324 324 324 324 324 324 323 324 324 325 324 322 319 319 317 317 317 317 317 316 316 315 315 314 314 314 315 316 315 314 313
311 312 313 316 316 316 318 319 320 320 320 319 320 321 321 322 320 322 321 320 323 320 323 324 324 322 323 322 318 316 318 318 320 321 319 317 316 316 315 314 314 314 315 315 315 315 316 315 315 315 315 315 315 315
311 313 315 315 316 317 317 318 320 319 319 319 321 321 319 318 321 320 320 321 322 322 321 324 322 320 317 316 316 316 316 316 316 317 317 316 314 313 314 316 315 315 315 314 314 315 316 316 314 312 313 313 313 313
312 314 316 317 317 317 317 320 320 320 320 320 320 320 319 319 320 319 320 320 321 322 322 320 318 316 315 316 318 318 319 319 319 318 316 316 314 313 314 316 315 314 314 313 313 314 314 312 312 311 311 312 312 312
314 315 316 316 315 318 320 320 320 320 320 320 319 319 320 321 321 322 322 322 322 322 320 318 317 318 318 318 318 318 319 315 315 314 314 314 315 314 315 313 312 312 311 309 309 311 311 311 310 311 311 312 312 311
316 315 315 314 317 320 319 319 319 320 320 319 319 320 322 322 322 321 317 319 321 321 321 320 320 320 319 319 319 318 314 313 313 314 315 316 316 315 313 312 312 312 310 310 310 310 310 310 310 310 310 311 311 312
316 316 316 318 320 320 320 320 320 321 319 320 321 322 321 320 322 320 316 317 316 317 318 319 320 317 315 314 314 313 313 311 311 312 311 311 312 313 313 312 311 311 311 310 310 310 310 310 310 309 310 310 310 311

GFSWCAN_850_thetae_129.txt.gz
Theta_e
319 317 313 313 315 319 318 316 316 315 315 313 313 313 312 312 311 311 314 313 314 314 315 317 323 324 322 318 322 317 320 319 317 321 320 324 326 328 324 324 327 324 326 327 328 330 328 326 326 328 328 327 330 336
315 315 314 315 318 319 317 316 315 315 315 313 313 313 312 312 311 311 312 313 314 313 314 316 316 316 319 321 322 319 320 321 320 322 321 324 326 324 326 326 323 325 324 325 327 326 323 326 327 325 329 333 334 335
313 315 315 316 318 318 317 316 315 315 314 313 313 313 313 312 311 311 312 312 313 313 315 314 314 315 316 318 318 319 319 320 319 320 322 324 328 323 328 326 327 324 319 327 326 324 324 326 326 327 328 329 328 321
310 313 314 316 316 317 315 315 315 314 314 312 313 314 313 313 312 311 312 312 312 313 316 321 320 318 316 316 317 318 320 321 320 320 320 323 324 319 325 324 326 324 323 327 326 323 324 326 327 328 327 324 323 322
306 309 314 312 315 316 315 315 314 314 313 312 314 314 313 313 312 310 311 313 312 313 317 318 319 321 322 320 321 321 320 320 320 319 321 322 316 321 319 321 324 321 326 327 325 327 327 326 325 326 328 325 323 321
305 308 312 311 314 315 315 315 314 314 312 312 314 313 313 312 311 311 313 316 314 313 314 320 322 324 320 318 317 319 320 319 320 321 319 316 317 322 325 329 325 321 322 322 325 321 322 323 324 325 329 326 323 324
305 307 310 311 313 314 314 314 314 312 311 313 313 313 312 311 310 312 313 312 315 313 313 320 326 323 319 317 318 318 319 319 319 319 322 324 321 320 323 328 325 320 322 322 321 321 323 322 324 325 325 326 325 325
305 305 306 309 310 310 312 313 312 311 312 314 313 313 311 310 310 313 314 313 314 313 313 323 326 322 319 320 321 320 321 320 320 320 319 323 318 318 327 323 321 321 321 322 323 323 324 323 324 325 326 326 326 325
305 306 306 306 307 308 311 312 311 311 313 314 311 312 312 312 313 313 313 313 314 313 318 320 324 326 320 318 319 320 320 324 319 323 323 322 323 325 326 324 321 320 321 322 325 325 323 323 323 323 324 325 328 325
305 305 307 308 309 309 311 310 310 311 314 312 309 309 309 310 311 313 313 312 311 315 314 320 321 324 321 319 321 323 320 324 326 325 319 324 326 323 322 322 321 321 321 323 324 324 323 324 323 323 323 323 323 323
305 305 306 307 309 310 310 309 309 313 314 309 309 314 316 318 315 315 317 316 316 318 318 320 321 324 321 323 324 321 324 323 327 325 326 327 326 325 322 322 322 322 321 321 321 321 321 322 325 324 324 324 323 323
305 304 306 307 309 310 309 309 310 313 310 310 312 316 318 317 318 318 320 317 318 318 316 319 321 322 322 322 325 322 325 323 326 320 325 328 326 321 320 321 321 322 322 320 321 320 320 323 323 320 319 320 321 321
305 305 306 308 310 309 309 309 310 313 311 311 314 317 318 317 318 320 319 321 319 317 316 317 320 322 323 324 325 327 326 325 320 325 327 326 323 321 320 320 321 321 322 320 320 319 320 322 320 320 318 320 321 319
305 305 307 309 310 309 309 309 310 312 311 311 316 313 319 319 319 320 320 319 317 318 321 316 321 322 322 325 326 326 325 322 325 324 325 324 321 321 320 320 321 321 322 321 319 318 321 321 320 319 319 317 316 317
305 307 308 310 310 308 309 310 311 312 310 313 316 317 318 317 316 317 316 317 317 318 320 315 320 322 324 325 324 325 325 326 325 326 324 322 320 319 320 321 320 320 321 320 318 318 320 320 317 317 317 317 317 317
307 308 309 310 310 308 310 311 311 312 311 313 314 316 316 317 317 316 317 318 319 319 320 317 320 324 324 324 325 324 324 326 325 324 322 319 320 320 320 321 320 318 319 319 317 317 319 318 317 316 316 317 317 318
307 308 309 310 309 308 310 311 311 311 312 313 314 315 315 315 316 317 317 318 318 318 324 322 323 321 319 324 324 324 324 324 320 320 319 319 319 321 320 321 321 316 317 316 316 317 318 318 317 317 316 317 317 318
306 308 309 309 309 309 310 310 311 311 313 313 313 314 313 313 314 314 315 315 315 318 319 322 322 324 324 324 322 322 320 319 319 318 319 319 320 321 322 322 321 320 317 317 317 317 318 317 317 317 317 317 317 317
308 309 309 309 310 310 309 309 310 311 313 313 313 313 312 312 312 312 313 313 315 319 319 321 322 322 322 323 324 324 324 323 323 323 322 321 320 321 321 322 321 321 319 317 317 318 318 318 318 317 317 317 317 317
309 309 310 310 309 310 311 311 310 310 311 313 313 314 313 313 314 313 313 314 315 318 321 322 322 321 322 320 321 323 323 323 322 324 325 323 322 323 323 322 321 321 320 318 317 318 318 318 318 319 319 319 320 319
309 309 310 310 310 310 311 311 312 311 312 313 314 313 314 314 316 317 317 315 317 319 319 318 319 319 319 319 319 321 323 323 323 324 325 324 323 321 321 321 321 321 320 319 318 320 321 323 324 324 325 325 324 323
309 309 309 309 309 311 311 311 311 312 312 314 315 316 317 317 317 317 318 318 319 319 319 319 319 319 319 318 319 320 321 321 322 323 322 324 325 324 324 323 324 324 324 325 325 325 325 325 325 325 325 324 323 321
308 308 308 309 309 310 310 311 312 313 314 316 316 319 319 318 318 318 319 319 319 317 318 319 319 318 319 320 319 319 320 321 322 323 321 320 320 321 321 322 323 324 324 324 324 324 324 323 323 323 322 321 321 320
308 309 310 310 309 310 311 313 313 314 316 317 318 320 320 319 319 320 323 320 320 319 320 321 320 320 320 320 320 320 320 322 322 323 324 324 324 324 324 324 323 322 320 318 317 316 316 316 316 317 317 317 318 318
309 309 309 309 312 312 314 315 315 317 318 317 318 319 320 318 322 322 323 321 320 321 322 322 320 320 320 320 321 321 322 322 321 323 324 324 324 323 322 320 318 317 316 316 315 314 314 314 315 315 314 314 314 314
308 310 308 312 314 314 315 317 318 318 319 319 319 318 319 322 322 323 323 319 322 321 322 322 321 321 321 321 321 321 321 321 321 324 323 322 322 321 319 317 316 316 315 314 313 314 314 314 314 314 314 315 315 315
309 311 311 310 311 313 315 316 315 318 320 321 321 320 321 321 321 322 320 320 320 321 322 323 321 321 322 322 321 321 322 323 323 322 321 320 318 318 317 314 312 311 312 312 312 313 314 314 314 314 314 314 314 314
309 311 312 313 314 315 316 317 318 320 320 319 320 321 322 322 323 321 320 321 321 322 321 322 323 321 320 321 322 323 323 322 321 319 317 315 315 315 312 311 311 311 312 312 312 312 314 314 313 313 312 312 312 311
309 310 311 313 314 315 317 317 319 318 318 318 321 322 321 318 320 320 322 322 322 322 322 321 321 320 319 320 321 322 321 319 316 315 315 314 314 312 312 313 313 314 314 314 314 314 314 313 313 313 312 311 311 311
309 309 313 315 317 318 317 317 318 318 319 319 319 319 318 319 319 321 321 322 322 320 316 315 314 314 314 314 314 315 314 314 314 315 314 314 314 313 313 315 316 315 312 310 310 310 310 310 311 310 310 311 311 311
311 312 314 315 316 317 319 319 319 320 320 319 319 319 320 320 320 320 321 322 319 316 315 317 317 317 317 317 318 318 317 315 314 314 314 314 315 315 313 313 313 315 313 312 309 309 309 310 310 311 311 310 310 311
312 313 315 316 318 319 319 319 320 319 320 321 321 321 321 320 319 317 319 320 318 316 317 317 316 317 317 318 316 312 310 310 310 311 312 313 314 315 314 314 313 314 313 312 310 309 309 310 310 310 310 311 310 310
314 314 315 316 319 319 319 319 320 320 320 321 320 319 319 320 321 318 320 319 319 318 318 317 318 318 317 311 312 312 312 309 307 306 307 309 310 312 313 313 313 312 311 311 310 310 309 309 309 309 309 309 309 309

GFSWCAN_850_thetae_132.txt.gz
Theta_e
316 317 318 316 314 314 315 318 317 316 315 315 313 313 313 312 312 311 313 313 313 318 318 318 320 325 326 323 323 321 319 320 320 323 323 324 325 328 326 326 326 326 326 327 327 329 329 328 329 331 332 332 333 335
316 316 316 315 314 315 317 318 317 316 314 315 313 312 313 312 312 311 312 313 313 313 317 317 317 318 321 323 325 320 323 321 322 324 324 325 326 328 324 325 329 325 324 327 325 329 330 329 330 329 330 333 333 332
312 313 313 315 315 316 317 317 317 315 314 315 313 312 314 313 312 312 311 312 313 313 317 317 317 315 316 318 321 323 322 324 323 326 325 326 326 325 326 325 325 328 326 325 327 326 327 329 329 329 331 328 326 326
309 310 310 313 314 315 316 316 315 315 314 314 313 312 314 313 312 313 312 312 312 314 318 320 321 320 319 318 317 319 322 322 324 324 325 326 325 326 324 327 327 327 328 327 328 327 328 329 329 330 329 328 327 326
305 306 306 308 312 311 315 315 315 315 314 314 312 313 314 313 312 312 311 312 311 314 318 320 318 320 321 320 320 320 320 322 323 324 325 326 325 326 325 326 323 326 327 328 325 326 325 325 328 328 328 328 329 328
304 304 304 306 310 311 313 314 315 315 314 313 311 314 313 313 312 312 312 313 313 312 315 321 322 325 324 320 322 323 323 323 323 325 325 324 324 325 324 326 324 323 325 325 326 328 326 328 325 327 328 328 328 328
304 304 305 305 307 312 312 314 314 314 313 312 312 313 313 312 312 312 314 312 313 313 316 322 325 326 320 319 321 323 323 323 323 324 322 324 325 322 323 324 322 323 324 326 327 327 328 327 326 327 327 329 328 328
304 305 305 305 307 310 311 312 314 313 312 311 313 312 312 311 311 311 313 313 312 313 315 323 327 325 320 322 322 322 323 323 323 323 324 324 324 324 330 323 322 323 325 327 326 326 325 327 327 327 328 329 329 328
305 305 305 306 306 308 308 311 312 312 310 311 313 310 312 311 312 315 314 312 313 315 320 323 327 325 322 323 323 323 323 324 324 324 325 325 327 333 325 323 323 325 326 324 325 327 326 326 327 327 328 329 328 328
305 305 306 306 307 308 308 310 311 310 310 313 311 308 308 311 312 312 313 316 315 316 316 320 324 327 323 322 323 323 323 325 326 326 325 326 326 324 322 323 325 324 325 325 326 328 328 327 326 326 328 327 327 326
305 305 305 306 307 308 309 310 310 309 312 311 308 310 313 316 313 317 320 318 317 320 320 321 323 327 324 325 325 324 325 325 326 326 326 326 327 325 324 324 323 324 325 324 324 324 325 324 325 326 326 326 326 325
305 305 305 306 307 309 310 309 309 310 311 309 311 314 316 316 317 320 321 320 322 321 320 321 322 323 326 325 325 325 325 326 324 325 326 326 326 325 326 326 326 328 327 325 326 326 325 323 325 326 325 326 325 326
305 304 305 306 307 309 309 309 309 311 311 310 312 316 318 317 319 320 320 322 322 320 319 319 321 322 325 326 327 328 326 325 325 326 326 326 324 325 326 326 325 326 326 325 325 326 325 323 326 325 323 321 323 324
305 305 305 307 308 310 309 309 308 310 311 311 316 319 321 321 320 321 321 320 320 320 323 321 320 322 324 327 326 326 326 326 326 326 326 326 324 327 327 326 326 325 325 325 325 325 323 324 324 323 322 321 322 323
304 305 306 308 310 309 309 309 309 311 310 313 316 322 319 318 319 320 320 320 320 321 324 320 321 322 324 325 326 326 327 327 326 326 325 324 328 328 327 326 326 326 325 325 325 323 322 323 323 322 322 322 321 321
305 307 307 309 310 309 308 310 311 311 311 313 315 317 318 320 320 320 319 320 321 322 323 321 321 320 322 323 325 325 326 327 325 326 323 325 329 328 328 327 326 325 325 324 323 321 321 322 321 320 320 320 320 321
307 308 308 310 310 308 309 311 311 312 313 315 314 316 317 318 319 319 320 321 321 322 323 322 323 320 321 322 323 323 324 324 324 323 323 321 324 326 328 328 327 324 324 323 322 322 322 321 320 320 321 320 320 321
307 307 309 310 309 308 310 310 311 311 313 314 315 316 317 317 317 318 317 318 319 320 321 321 322 323 321 320 321 322 322 323 324 326 325 323 320 320 324 325 325 324 324 323 322 322 322 322 321 321 321 322 322 322
306 308 309 309 309 310 310 310 310 312 312 314 314 315 315 315 315 315 316 317 317 319 321 322 322 321 322 323 324 325 325 325 325 326 327 326 322 321 321 322 322 324 324 323 323 322 322 322 321 321 321 321 322 322
307 308 309 309 309 310 310 311 310 312 313 314 314 314 315 315 315 315 315 315 316 319 320 321 321 320 321 322 324 325 326 326 326 325 326 328 329 324 323 324 326 326 326 324 323 322 322 322 322 321 321 321 322 322
308 308 309 309 309 310 311 311 311 311 314 314 315 315 316 316 315 317 317 316 316 318 320 320 320 321 321 322 325 325 324 324 326 326 326 327 327 326 325 325 325 325 324 323 322 321 319 322 323 323 324 323 323 323
309 309 309 309 309 310 311 312 313 313 314 315 315 316 316 317 318 318 318 318 318 318 319 320 320 320 321 321 322 323 324 322 322 324 325 324 328 328 328 327 327 327 327 328 329 329 329 329 327 327 326 325 324 324
308 308 309 309 310 311 311 312 313 314 314 316 317 318 319 320 320 320 320 319 320 321 321 321 320 320 319 319 322 323 323 323 323 325 323 324 324 327 327 328 328 328 327 326 327 326 324 323 323 324 323 322 323 323
308 309 309 310 309 311 312 313 313 314 315 318 318 320 321 322 321 321 323 322 322 319 319 320 320 321 321 322 323 323 323 321 321 323 322 326 327 327 327 326 325 325 324 323 323 322 320 320 319 321 321 320 320 320
309 310 310 309 311 312 314 315 316 316 318 318 318 319 322 321 324 324 324 323 319 320 322 322 323 322 323 323 322 321 320 321 322 323 323 325 327 324 322 322 321 321 320 320 319 319 319 319 319 319 318 318 318 318
310 310 309 312 314 314 315 317 317 318 318 320 321 320 322 324 323 323 324 322 322 321 321 322 323 323 323 323 321 321 321 321 321 323 323 323 324 322 321 320 320 319 318 318 317 317 316 316 316 316 316 317 315 316
310 310 312 312 311 312 314 316 315 314 320 321 322 323 324 323 323 325 321 322 324 323 322 323 321 324 324 325 321 321 321 323 321 323 324 323 322 321 320 318 315 316 315 315 315 314 315 315 315 315 316 316 315 315
310 311 313 314 314 314 316 315 317 321 321 321 322 323 323 323 325 323 323 322 322 320 321 322 321 324 324 322 322 322 324 324 323 322 321 320 319 317 315 314 313 314 315 315 314 315 315 315 314 315 315 315 315 315
311 312 313 314 314 314 316 317 319 320 321 321 323 323 323 322 322 324 322 321 320 321 322 324 324 324 324 324 323 323 322 321 319 317 315 315 314 314 315 315 315 316 316 315 313 314 316 315 313 314 314 314 314 314
311 310 314 315 316 316 315 316 317 319 320 320 320 321 322 322 322 323 324 324 323 321 320 319 318 318 318 318 318 318 317 315 314 314 314 314 313 313 314 315 316 315 315 315 315 312 309 310 311 313 314 314 313 313
313 314 314 315 317 317 319 319 320 320 322 320 320 322 322 322 321 322 320 319 317 317 317 317 317 316 317 317 317 317 316 315 315 315 316 316 316 316 315 315 315 315 316 315 314 314 314 313 313 314 313 314 314 314
313 314 316 318 319 319 318 319 320 321 322 320 322 320 320 320 321 320 322 320 318 318 317 318 318 319 319 317 314 312 311 312 312 311 312 314 315 315 316 317 316 315 317 317 315 314 314 313 313 313 313 313 314 314
315 317 317 317 318 318 318 320 321 321 321 320 320 320 320 321 321 321 320 321 320 318 319 319 319 319 316 313 313 312 309 308 306 307 308 310 311 314 315 315 316 316 315 313 312 312 312 312 312 312 312 312 312 312

GFSWCAN_850_thetae_135.txt.gz
Theta_e
315 315 316 316 317 316 315 315 315 319 317 315 315 313 313 313 312 312 315 314 316 319 320 321 321 322 326 328 328 324 322 321 322 325 326 326 326 329 326 325 328 327 329 327 327 328 331 330 329 328 335 333 333 334
314 315 316 315 316 315 314 316 318 317 316 315 314 313 312 313 313 312 314 313 313 314 318 319 320 321 322 326 327 323 322 321 322 324 326 326 328 327 328 326 326 326 325 327 329 334 331 329 330 331 331 332 333 334
310 312 312 313 315 315 315 317 317 317 316 315 314 313 312 314 313 312 314 314 313 313 318 319 318 318 318 321 324 327 323 324 324 326 326 328 327 328 327 328 329 328 326 326 325 326 327 326 327 327 329 330 329 328
306 308 308 310 311 314 313 315 316 316 315 315 314 313 312 314 314 313 313 313 312 314 319 321 321 320 319 318 321 323 325 324 326 325 324 327 328 327 327 327 329 329 328 328 326 329 327 327 326 327 328 327 327 326
303 303 305 306 308 310 313 311 315 315 316 315 313 312 312 314 313 313 313 313 313 314 319 321 320 321 321 320 321 321 321 322 324 323 325 325 326 327 327 326 326 324 327 328 326 327 328 324 327 326 327 327 328 327
304 303 303 303 303 306 312 307 314 315 315 314 314 311 312 313 313 313 313 314 313 312 316 322 322 324 321 321 321 322 322 323 324 325 324 324 327 327 325 327 326 324 323 324 327 327 327 324 326 326 326 326 328 328
306 306 304 304 304 305 307 311 311 314 315 314 311 311 313 313 313 313 315 314 313 312 316 322 323 323 325 322 322 323 323 324 325 325 325 325 328 323 325 326 324 323 324 324 325 327 327 326 324 325 326 326 327 327
305 306 306 305 305 306 308 311 312 313 313 312 311 312 312 312 311 312 313 313 312 313 318 323 325 326 321 321 322 323 325 325 325 325 325 326 328 327 332 325 324 324 323 324 325 326 325 325 325 325 326 326 328 326
304 304 305 305 305 306 308 310 310 312 312 310 311 312 310 312 312 314 315 314 313 315 320 323 327 327 321 323 322 323 324 327 325 326 326 326 328 339 328 325 323 324 323 324 325 326 325 324 325 325 326 326 327 326
304 304 305 305 306 307 308 308 310 311 310 310 312 309 309 313 314 313 313 315 313 317 319 323 323 330 322 324 325 324 324 325 326 327 324 328 328 326 326 327 324 324 324 324 324 324 326 325 324 325 326 326 327 325
304 304 305 305 306 307 307 308 309 310 309 312 309 310 313 311 314 317 320 321 320 320 319 320 322 326 325 326 325 323 325 325 329 328 328 328 327 326 326 326 325 324 324 324 325 326 326 325 325 326 326 326 326 326
304 304 305 305 306 308 310 310 309 309 312 311 311 313 314 314 317 320 323 321 321 322 322 322 321 324 326 327 326 326 328 328 327 325 327 328 327 325 327 326 325 325 324 325 325 325 326 325 324 325 326 326 326 326
303 304 304 305 306 308 310 310 308 310 311 310 310 313 316 316 319 322 323 323 322 321 322 321 324 323 326 326 326 329 325 327 325 326 327 327 327 327 326 326 326 326 327 327 326 325 326 326 324 325 326 326 326 326
303 304 305 305 306 307 310 309 308 309 311 311 314 317 318 321 322 322 322 322 321 321 321 321 322 323 324 326 325 325 325 326 327 326 326 326 326 326 326 327 326 326 326 326 326 326 327 326 323 326 326 324 322 324
303 304 305 306 307 308 309 309 308 309 311 312 314 320 319 320 321 321 321 322 322 321 323 322 322 322 325 326 325 325 326 326 324 325 326 328 328 327 328 328 326 326 325 326 326 327 326 324 323 324 323 322 322 323
303 304 306 307 308 309 308 308 309 311 312 312 315 318 319 321 321 321 321 321 322 321 323 323 322 322 324 324 324 324 323 326 326 327 324 329 332 330 329 327 326 325 326 326 327 326 324 323 324 323 322 322 322 322
305 307 307 308 310 309 308 310 311 312 314 316 317 316 318 319 321 322 321 322 322 323 323 322 323 322 321 322 323 323 323 325 324 323 326 331 331 333 331 328 326 325 326 325 324 323 323 324 324 323 323 322 322 323
306 308 308 309 310 308 309 311 311 312 314 315 316 316 317 318 319 320 319 320 321 322 322 323 323 324 321 322 323 323 323 323 324 326 326 331 332 332 331 330 327 327 326 325 324 324 324 324 323 323 324 323 322 323
307 309 309 309 309 309 310 310 312 313 314 314 314 315 315 316 317 318 318 318 319 320 321 322 322 321 322 322 323 324 323 323 325 327 327 330 332 331 331 331 331 328 327 327 326 325 325 325 324 324 324 324 324 324
307 307 308 309 308 310 311 313 311 313 314 315 315 315 315 316 316 316 316 317 317 319 321 322 322 321 321 322 324 325 326 326 325 324 323 326 329 331 330 329 328 330 329 327 326 325 325 325 325 324 324 324 324 324
306 307 308 308 309 309 310 312 312 313 315 316 317 317 317 318 317 316 317 317 317 317 319 319 320 321 321 323 325 326 327 325 326 327 327 325 327 328 328 328 329 329 329 327 325 324 324 325 325 325 325 324 324 324
308 308 309 309 309 310 312 313 314 315 315 316 317 316 318 318 317 318 317 318 318 318 318 318 319 320 321 323 322 323 324 326 327 325 325 327 329 329 328 326 326 326 326 326 325 324 324 325 328 329 329 329 328 327
307 309 309 310 311 312 311 314 315 315 316 316 317 319 320 320 321 319 320 320 320 319 319 319 319 323 323 323 322 322 324 325 325 325 325 326 327 329 330 330 330 330 330 329 329 329 329 326 325 327 326 325 326 325
308 309 310 311 312 311 313 315 315 315 316 318 318 320 320 322 322 321 323 323 323 323 324 324 323 322 323 323 322 322 323 324 324 325 326 325 327 329 329 328 328 328 327 326 326 326 325 324 321 324 323 322 321 321
309 310 311 309 312 313 315 316 316 316 317 319 320 321 323 323 325 325 325 324 320 319 320 320 322 322 322 323 323 324 325 325 325 325 324 325 326 327 325 325 324 323 323 323 322 321 321 321 320 320 319 318 318 319
309 311 312 313 314 315 315 316 317 317 318 319 321 321 323 325 325 325 325 323 324 322 322 323 324 324 325 325 323 323 324 323 322 322 322 322 325 325 324 323 322 321 320 320 319 318 318 317 317 317 317 317 315 316
311 313 313 313 314 312 314 315 315 315 316 321 323 324 325 325 325 326 324 325 323 323 322 323 325 326 326 323 321 321 322 322 322 322 322 324 325 324 323 322 321 319 318 317 316 315 315 315 316 316 316 316 316 315
311 312 314 314 314 315 316 317 315 320 322 322 323 325 324 325 326 326 325 325 325 322 325 326 326 326 325 321 321 321 324 326 326 325 324 323 323 319 317 316 316 315 315 315 315 315 315 315 315 315 315 315 315 314
312 313 313 315 315 315 315 316 319 321 322 323 325 325 325 325 326 326 325 324 321 324 326 325 326 326 326 326 325 325 324 324 322 322 320 319 316 315 314 314 315 316 315 313 314 316 315 315 315 314 313 314 314 314
313 313 314 315 314 314 314 315 317 320 321 323 323 324 325 325 326 325 324 325 324 323 324 324 324 324 323 323 321 319 318 316 316 315 315 315 315 315 316 316 316 316 316 316 316 313 310 312 314 315 316 315 314 314
314 313 314 315 317 317 318 320 320 320 323 323 323 324 324 323 323 324 322 320 319 318 318 317 317 317 317 317 317 317 317 317 317 317 317 317 315 315 315 316 316 316 316 315 315 315 315 314 314 314 314 314 314 314
315 316 318 319 319 318 318 321 322 323 321 323 322 321 322 321 319 318 318 320 318 318 318 319 318 318 317 316 315 315 314 314 314 315 315 315 316 317 317 317 316 315 316 316 315 315 315 314 313 313 313 313 313 313
316 317 318 319 318 318 319 321 322 322 321 322 321 320 320 319 320 321 322 321 319 318 319 318 318 316 315 313 312 311 310 308 307 307 307 309 312 314 316 316 316 316 316 314 315 314 313 313 314 313 313 313 313 312

GFSWCAN_850_thetae_138.txt.gz
Theta_e
310 312 314 315 316 316 316 317 318 316 316 318 316 315 314 313 314 313 316 316 316 319 319 319 321 323 323 325 330 329 328 325 325 328 325 326 328 328 329 327 327 329 328 325 326 329 334 331 332 336 336 334 334 335
304 309 313 314 314 315 316 314 316 316 317 317 315 314 314 313 313 313 316 316 315 315 317 316 318 320 322 323 324 329 326 325 324 324 325 326 328 329 330 329 327 329 328 327 328 332 331 331 332 330 330 332 334 335
302 306 309 311 312 314 316 315 316 316 316 316 315 314 314 313 313 314 313 315 315 315 318 320 319 313 317 321 322 327 325 325 324 323 325 326 328 330 330 330 329 329 329 329 329 332 330 330 329 328 328 330 331 330
302 303 306 308 309 311 313 313 313 314 315 316 315 314 313 312 314 314 313 316 314 315 318 321 322 322 321 319 320 325 327 327 327 327 326 329 330 328 330 329 330 329 329 329 329 328 327 327 327 327 327 328 327 327
304 303 303 304 306 308 309 313 309 310 314 315 315 314 313 312 314 314 313 314 314 314 318 319 319 321 323 321 320 322 324 325 326 326 326 327 326 328 328 328 329 328 331 328 327 326 331 328 327 326 327 327 327 327
305 304 304 304 303 303 304 310 308 308 311 314 315 314 313 312 313 313 315 316 315 314 315 322 321 321 323 322 321 319 322 324 325 326 324 324 325 328 329 330 327 327 326 326 328 327 327 326 328 327 326 327 327 327
303 305 305 305 305 304 305 308 311 310 312 314 314 313 311 312 312 314 316 315 313 314 314 322 322 321 324 323 322 321 323 323 324 324 324 326 329 328 330 332 328 326 325 324 325 326 329 327 326 326 326 326 327 327
302 303 305 306 307 305 305 306 308 309 312 313 313 311 312 312 312 312 313 314 313 313 316 323 324 326 326 324 323 322 324 325 324 325 326 327 328 328 332 330 327 326 325 325 325 325 326 327 326 325 326 326 328 326
303 302 305 305 305 306 307 307 309 310 311 313 312 311 312 311 312 313 314 315 314 314 317 323 325 331 325 322 322 322 324 326 326 329 329 328 331 328 329 329 327 325 324 323 325 324 325 324 327 326 327 326 328 328
303 304 304 305 305 306 307 307 308 310 311 311 310 312 312 311 314 313 314 314 314 315 317 321 321 327 324 325 324 324 325 327 328 329 325 327 327 326 330 329 328 327 325 324 324 326 326 325 325 325 325 326 326 328
303 304 304 304 305 306 307 307 308 309 310 310 312 312 314 313 313 316 319 319 319 321 320 320 319 327 322 328 329 325 327 329 329 329 329 329 329 330 328 327 328 327 325 325 325 325 325 326 327 325 325 326 327 327
304 304 304 305 305 306 307 310 309 309 312 312 311 312 313 314 315 319 323 322 322 322 322 322 320 323 325 327 327 326 328 328 331 327 326 328 331 329 327 328 328 328 325 325 325 326 326 326 326 326 326 327 327 327
304 303 304 304 305 306 309 310 309 309 311 312 310 312 314 316 318 322 324 324 324 322 323 322 323 322 327 327 327 328 328 329 327 329 330 329 330 329 328 328 327 326 326 325 326 326 326 326 326 325 327 327 327 327
303 303 303 305 305 306 308 309 308 309 310 311 312 314 316 319 321 322 323 323 323 323 323 321 322 323 324 325 328 325 327 327 329 331 329 328 328 325 328 327 326 326 326 327 326 326 326 328 326 325 326 327 327 327
302 303 303 305 305 306 308 309 308 308 311 311 313 318 318 318 320 320 322 322 323 323 324 323 323 323 327 328 324 327 328 328 327 326 330 331 328 329 328 327 327 327 327 326 327 327 327 328 327 325 327 327 325 323
302 304 305 305 306 307 309 308 308 310 312 312 315 317 319 320 321 321 321 322 322 323 323 323 324 324 326 328 325 327 325 325 328 331 329 332 333 330 331 329 329 327 327 326 327 327 327 327 326 325 326 323 324 325
303 306 307 307 307 309 307 308 310 311 313 316 317 317 317 317 320 321 321 320 322 323 325 324 326 324 323 325 324 324 325 326 327 327 321 324 330 333 330 328 327 327 327 327 328 327 327 325 324 325 325 324 324 324
305 307 308 307 309 308 308 310 312 313 315 315 316 316 317 318 318 319 321 320 321 323 323 324 323 326 324 324 324 324 323 323 326 327 326 328 332 334 331 328 326 326 327 327 326 325 324 325 325 325 325 324 324 324
306 308 308 309 309 310 310 310 311 313 314 315 315 315 316 315 317 318 319 319 320 321 322 323 324 323 324 323 325 326 327 326 326 323 322 322 330 332 332 332 328 328 327 327 326 325 325 326 326 325 325 325 324 324
306 307 308 309 309 310 311 312 312 314 315 315 316 316 315 316 316 316 318 318 319 320 321 322 322 321 321 321 326 325 322 326 326 324 322 322 329 331 330 330 331 329 328 328 328 326 326 327 327 326 325 325 326 326
305 307 308 309 308 308 310 312 314 315 315 316 317 317 317 317 317 317 317 318 318 319 319 319 320 321 322 323 324 321 321 321 320 328 327 327 327 327 329 328 329 330 330 328 328 326 326 327 327 326 326 325 325 325
307 307 309 308 310 310 310 313 315 316 317 317 318 318 318 319 319 319 319 318 318 319 319 318 318 320 321 324 324 323 320 322 328 327 325 325 328 329 330 327 326 327 329 329 328 327 326 326 325 329 330 329 329 329
307 308 310 310 310 311 312 314 316 316 317 318 318 319 320 321 321 321 320 320 319 318 318 319 320 319 320 323 324 325 326 326 325 325 325 325 324 326 320 331 327 329 330 328 327 328 325 326 328 328 327 326 327 327
308 310 309 311 312 313 314 315 316 317 317 319 319 320 321 322 323 322 323 323 323 322 323 322 321 323 323 324 325 324 324 323 323 325 325 326 327 328 328 329 329 329 329 328 327 327 327 326 323 325 325 324 322 322
308 309 310 310 312 314 315 316 317 317 318 319 321 322 323 323 325 325 326 323 324 323 323 323 323 323 324 323 324 324 323 323 323 325 326 327 327 325 326 325 325 325 325 325 324 324 324 323 322 321 320 319 318 319
308 311 313 314 315 315 316 317 318 318 317 319 321 322 321 326 325 324 326 325 320 322 321 322 324 325 326 326 326 324 323 323 323 324 324 323 324 324 324 324 323 323 322 322 321 321 320 319 318 318 318 317 315 317
312 313 314 313 315 315 316 316 316 317 317 320 323 324 325 326 326 327 324 321 321 324 326 324 324 325 327 326 325 322 324 324 324 322 323 323 321 319 320 324 322 321 320 319 317 317 316 316 317 317 317 317 316 316
312 313 314 315 315 316 317 317 318 319 321 322 324 325 326 326 328 326 324 325 326 326 324 325 324 324 322 321 323 323 323 321 320 321 322 321 321 322 319 319 318 317 316 317 316 316 316 316 316 316 315 315 315 314
313 313 314 315 316 317 317 317 318 319 320 323 325 326 326 325 325 326 325 325 327 327 324 326 325 323 324 324 323 319 322 324 323 323 323 323 321 317 316 315 315 316 315 316 316 314 313 316 316 314 314 314 315 315
314 314 315 317 316 316 316 317 318 319 321 323 323 324 325 326 325 325 324 325 324 325 327 326 325 325 325 325 324 324 324 322 320 319 317 316 316 316 316 317 318 317 316 315 314 314 315 312 314 315 315 317 316 315
315 314 315 314 315 316 316 318 319 321 322 323 323 323 324 324 325 324 323 323 323 322 321 322 322 321 321 319 318 317 317 317 318 318 317 316 316 317 317 317 317 317 316 317 317 316 316 316 315 315 315 315 315 315
315 316 317 318 318 319 321 321 323 324 324 324 324 323 323 322 322 320 319 320 319 319 319 319 319 318 318 317 316 316 316 317 317 317 317 318 318 318 317 317 317 317 318 317 316 316 316 316 314 314 314 314 314 314
317 318 318 318 320 320 321 323 323 322 322 322 322 322 319 318 319 320 321 321 320 319 319 317 316 315 314 313 313 312 312 311 312 312 312 315 316 316 316 317 317 318 317 316 315 315 315 315 315 314 314 313 312 311

GFSWCAN_850_thetae_141.txt.gz
Theta_e
302 302 308 309 314 314 315 315 316 317 317 317 315 317 315 314 313 313 314 317 316 317 317 313 316 319 321 324 328 327 330 329 327 326 327 327 327 329 328 330 329 330 330 326 325 326 337 331 332 337 335 335 336 334
303 302 303 306 311 313 314 315 315 314 314 315 317 316 314 314 313 313 314 317 316 316 314 313 315 316 317 321 323 323 329 327 327 327 327 328 328 329 332 329 330 329 328 331 327 334 333 330 329 331 329 335 335 337
304 303 303 305 308 310 312 315 315 314 315 315 316 315 314 314 312 313 314 314 315 315 315 317 318 318 314 316 321 323 328 327 326 326 326 329 330 330 331 331 330 331 331 330 331 332 331 331 330 328 328 333 331 329
306 305 303 303 305 307 310 311 313 312 313 314 314 315 314 313 312 313 314 314 315 315 316 317 319 321 322 321 316 320 323 326 326 326 329 330 331 329 330 329 330 329 329 329 329 328 331 327 328 326 327 328 327 325
306 306 306 304 303 304 307 309 312 310 309 313 314 315 314 313 312 313 314 313 314 315 316 315 314 317 321 322 321 318 321 325 326 328 328 330 329 327 326 329 329 329 331 327 327 328 332 327 327 326 327 328 327 326
303 303 305 304 304 304 303 304 309 309 308 310 311 315 314 313 311 313 315 317 316 316 314 317 319 318 321 322 322 319 320 325 325 326 328 325 328 329 329 330 330 327 327 327 331 327 325 325 326 326 326 327 327 327
301 302 302 305 305 305 304 304 306 311 310 307 312 314 313 312 312 312 315 316 314 314 314 318 323 323 321 323 322 321 320 322 324 325 326 329 328 328 330 330 328 325 326 327 328 326 324 324 325 328 325 326 327 328
301 302 302 304 306 307 307 305 306 307 309 310 313 313 312 311 312 312 314 314 313 314 314 319 324 325 326 325 323 322 321 321 324 325 325 330 326 328 328 327 326 327 326 325 326 327 328 327 327 327 325 326 326 328
302 303 303 304 304 305 306 307 306 307 309 310 312 312 311 311 312 313 314 315 314 314 316 320 324 328 324 326 324 322 323 326 325 326 326 329 331 323 329 326 325 325 326 325 324 325 325 328 328 325 326 326 327 326
302 303 303 304 304 304 305 306 307 308 310 311 311 312 313 313 313 314 315 314 313 315 314 317 320 327 324 325 327 324 324 327 328 328 326 329 331 326 326 324 324 327 326 324 324 324 325 325 325 326 326 327 328 328
302 303 303 304 304 304 305 306 308 308 309 309 311 313 314 313 313 314 317 317 317 319 318 319 319 321 325 327 329 325 330 329 330 332 330 329 327 329 326 324 325 328 328 325 326 323 326 325 325 325 325 325 326 328
302 304 304 304 304 305 306 308 309 309 311 312 312 311 312 313 313 317 321 322 322 323 322 322 322 320 322 322 326 326 329 329 331 328 329 330 329 327 326 326 325 329 327 324 325 325 325 326 326 326 326 325 327 327
302 303 304 303 304 305 307 308 310 309 310 312 311 310 313 314 315 320 322 326 325 323 322 323 323 323 324 322 323 327 329 331 326 330 331 329 329 327 328 330 330 329 327 325 326 325 326 326 326 326 326 327 326 327
303 303 303 303 304 305 307 309 310 309 310 311 311 311 315 317 319 321 323 323 323 321 324 324 324 325 326 326 326 325 327 328 330 332 329 335 326 325 328 328 328 328 326 325 326 326 326 326 325 325 325 327 327 327
303 303 302 303 305 305 306 308 309 308 310 311 312 314 316 315 318 321 321 322 322 321 323 324 325 323 329 330 329 327 328 327 328 331 333 330 334 334 327 326 326 326 326 327 326 325 326 327 326 325 326 327 327 327
302 302 305 305 305 305 306 308 308 308 311 311 313 315 317 319 321 320 320 322 321 323 324 324 326 326 328 328 327 328 327 328 334 330 329 332 332 330 330 330 328 327 327 327 326 327 327 328 327 325 326 327 327 326
302 304 308 306 306 307 308 308 308 310 311 314 314 315 316 317 318 317 318 318 319 323 325 325 326 326 326 327 327 326 326 330 328 323 323 325 329 331 330 330 329 328 327 326 326 327 328 328 327 324 326 324 323 324
303 307 308 307 307 308 307 308 311 312 313 314 316 316 316 316 317 318 318 319 319 322 323 325 323 327 327 326 327 327 329 328 326 322 322 323 328 330 331 331 328 328 326 327 328 328 328 327 325 325 326 324 325 324
305 306 308 307 308 309 309 309 310 312 313 314 315 316 315 316 317 316 317 319 321 321 322 322 325 326 326 323 326 325 326 324 323 322 323 323 325 325 331 331 328 326 327 327 327 326 325 324 324 326 325 324 324 325
303 306 308 309 308 310 311 312 310 313 314 315 315 316 317 316 316 317 318 319 320 320 322 323 323 322 323 323 322 322 323 325 325 321 321 324 322 326 329 330 333 327 328 326 326 325 324 325 325 326 325 325 324 324
304 307 308 308 309 309 309 312 314 315 315 316 316 317 318 316 317 317 317 317 318 321 320 319 319 320 321 325 324 322 321 321 322 321 319 321 322 322 327 328 330 332 328 328 326 326 327 326 325 326 327 326 325 325
307 307 308 308 309 309 309 311 313 315 315 316 317 317 319 319 319 318 318 319 318 319 319 319 319 319 320 322 323 323 323 321 322 325 323 324 325 327 327 328 328 328 331 330 329 329 329 329 328 327 327 328 329 328
307 307 308 308 309 310 311 312 314 316 317 318 319 320 320 320 320 320 321 320 320 319 319 319 319 319 319 318 321 324 324 321 322 325 326 325 327 326 324 323 324 327 327 329 328 327 326 327 328 326 326 326 327 326
307 307 309 311 310 311 313 315 316 316 317 319 320 320 320 321 321 322 323 321 321 321 320 319 320 320 322 321 321 322 323 324 325 324 324 326 327 326 326 325 320 322 325 322 324 324 321 321 325 326 324 324 323 323
309 309 309 310 313 314 315 315 317 318 318 319 320 321 324 321 326 325 326 324 323 322 323 323 322 322 322 323 323 324 324 324 323 323 323 325 325 324 324 324 324 323 322 326 326 325 324 324 323 322 321 320 319 319
308 310 311 314 314 315 315 318 318 318 318 319 320 321 320 325 325 323 325 325 322 322 322 321 323 324 324 324 324 324 325 324 324 323 323 324 325 322 322 321 322 323 323 323 323 322 321 321 320 319 317 314 316 316
310 313 314 314 315 316 316 317 317 317 318 319 322 323 325 326 326 325 324 321 321 324 324 324 324 324 325 325 324 323 323 323 323 323 323 322 323 322 321 321 323 321 320 319 319 318 317 316 317 318 318 317 316 315
312 313 315 315 315 316 317 318 318 319 320 320 322 325 326 327 328 323 322 326 325 325 324 324 323 324 324 325 323 324 325 324 324 323 321 320 320 322 323 321 319 319 317 316 316 316 317 317 317 316 316 315 315 314
313 314 314 315 316 317 317 318 317 318 317 318 323 325 324 323 324 324 325 327 326 323 322 324 324 321 321 322 322 321 321 322 323 322 322 323 322 318 318 316 316 316 316 316 316 316 316 316 316 316 315 316 316 315
313 314 314 316 318 318 317 316 317 319 319 320 321 323 324 323 324 322 322 324 324 321 320 323 324 325 324 322 322 323 322 321 321 320 320 321 316 315 315 316 315 314 314 314 315 314 311 314 315 315 316 316 316 316
316 315 315 315 315 315 315 317 318 319 321 322 323 323 324 322 322 324 323 323 324 326 324 324 325 326 325 324 322 322 324 323 321 318 319 316 316 317 318 317 316 315 316 316 316 316 316 316 315 315 316 315 315 315
315 315 316 317 318 319 320 320 322 323 324 324 322 322 323 323 322 321 321 321 321 320 321 318 317 316 317 317 317 318 318 318 318 317 317 317 317 317 317 317 317 317 318 317 317 316 316 315 315 315 315 314 314 312
316 316 316 318 320 321 322 323 323 323 322 323 323 321 322 321 321 321 321 320 320 318 317 316 315 314 314 315 315 315 316 315 316 316 316 317 318 317 317 317 317 317 317 316 317 316 316 315 315 314 313 312 312 310

GFSWCAN_850_thetae_144.txt.gz
Theta_e
304 304 303 303 305 310 313 313 314 315 314 314 314 315 316 315 314 313 314 316 317 316 315 315 314 315 317 319 324 325 326 328 323 322 322 322 323 325 324 325 325 321 323 321 319 325 335 330 330 331 331 335 334 333
304 304 304 303 304 306 310 312 314 315 314 313 314 316 316 314 313 312 313 316 316 316 315 315 316 315 314 317 320 323 325 326 327 323 322 323 324 325 326 327 325 325 323 324 323 325 325 329 331 333 334 334 332 332
304 305 304 303 303 305 307 310 313 314 314 314 314 315 316 314 313 312 313 314 314 316 315 315 316 315 317 318 314 320 323 326 325 326 325 322 324 323 326 327 327 324 326 325 326 329 329 330 329 330 335 334 334 333
306 307 307 307 304 303 305 308 310 312 312 311 313 314 315 314 313 312 312 313 315 314 315 315 315 314 315 317 320 313 320 325 322 325 325 324 326 326 325 326 325 325 325 325 324 325 328 329 328 331 334 334 335 332
305 305 305 305 306 304 303 305 309 310 311 308 311 313 314 314 313 312 312 313 313 313 315 315 314 314 316 318 321 319 316 320 321 325 324 325 326 324 322 323 324 327 326 323 322 325 325 327 327 330 328 326 325 325
303 303 303 303 305 304 304 303 304 308 310 307 311 312 314 314 313 312 314 316 315 315 316 316 315 314 317 318 321 321 319 318 323 325 324 325 327 322 322 324 325 326 327 326 327 327 327 326 326 327 326 326 326 325
302 302 302 302 304 305 306 305 304 305 308 310 308 309 313 313 312 311 314 316 315 314 315 315 315 320 324 320 322 320 319 318 323 325 325 325 326 326 323 325 326 326 326 327 327 328 324 324 325 326 327 327 326 326
301 301 302 303 303 305 306 307 305 305 307 309 309 312 313 312 311 312 312 313 313 314 314 316 317 321 323 325 322 321 319 319 322 324 325 328 325 323 324 324 326 326 326 327 326 327 326 325 325 326 326 327 327 327
301 302 303 303 303 304 304 306 307 306 307 308 310 311 311 311 311 313 315 314 314 313 315 317 321 324 324 325 325 322 321 319 322 321 321 324 323 318 321 325 326 327 326 325 325 326 326 326 326 327 325 327 328 326
300 302 302 303 303 303 304 305 306 307 307 309 310 311 312 313 312 314 314 314 313 314 314 315 316 319 324 324 326 323 323 320 322 321 323 324 323 325 325 325 325 324 324 324 325 324 324 325 326 326 326 326 327 328
300 301 303 303 303 303 304 305 307 307 308 309 310 312 313 313 313 314 316 315 315 316 315 315 316 316 325 324 325 325 326 324 326 323 324 324 324 326 326 326 325 325 325 327 324 323 324 325 325 325 326 326 326 327
300 301 303 304 304 304 305 306 307 307 309 311 312 311 311 313 312 315 318 318 318 319 320 319 319 317 322 322 324 324 325 324 327 325 326 325 323 326 326 326 326 325 324 326 327 326 325 324 324 325 325 325 326 327
300 301 303 303 303 304 305 306 308 309 309 311 311 310 312 313 314 318 319 321 321 322 322 322 322 321 321 319 323 324 326 328 325 325 329 325 324 326 325 326 326 325 325 326 327 325 325 325 325 324 325 325 324 325
299 302 303 303 303 304 306 308 309 309 309 311 311 309 315 316 316 318 319 322 321 322 322 322 324 324 321 322 323 325 325 326 329 328 328 327 333 328 326 325 325 328 328 325 327 325 324 326 327 327 326 325 326 328
301 302 303 302 303 305 305 307 309 309 310 311 312 312 315 314 315 315 319 319 320 320 321 321 324 323 325 325 324 324 326 327 325 327 327 328 333 333 327 329 329 327 328 326 325 326 326 326 325 325 325 327 327 327
302 302 304 306 304 305 305 307 309 308 310 311 311 314 314 314 317 318 318 318 318 320 320 323 321 322 325 324 326 326 326 326 324 324 328 325 326 331 332 329 327 328 328 326 325 324 325 326 326 325 325 326 327 327
302 303 306 306 305 305 306 308 308 308 310 312 312 312 313 314 315 317 318 318 318 318 322 322 323 324 321 323 324 323 322 323 327 325 328 328 326 325 330 330 330 328 326 327 326 326 327 325 327 326 325 327 327 326
303 305 307 306 306 306 307 308 309 310 311 312 313 313 315 316 316 316 317 318 319 320 322 323 322 322 325 325 325 323 327 326 323 323 324 324 325 325 329 330 329 328 327 327 326 326 327 328 326 326 325 326 324 323
303 306 306 306 307 308 308 308 308 311 312 312 313 314 314 315 315 316 316 317 318 319 321 320 322 322 321 323 324 324 324 324 323 322 322 322 322 323 325 329 331 330 328 326 327 326 327 327 326 325 325 325 324 324
302 305 307 306 307 309 311 310 310 311 313 314 314 314 315 315 315 316 316 316 317 319 320 320 320 321 322 323 321 323 325 324 323 323 323 321 321 323 324 327 329 329 330 328 328 327 326 325 324 324 325 325 325 324
302 305 307 308 308 308 309 310 312 313 314 315 315 316 316 317 317 316 317 316 318 320 318 320 320 319 318 321 324 322 322 323 323 322 321 320 321 326 326 326 327 328 330 328 325 324 324 324 325 325 325 325 325 324
305 307 307 307 308 309 309 309 310 312 314 315 315 316 317 318 318 318 317 317 317 317 317 318 319 319 319 321 322 322 322 321 321 321 321 324 325 325 324 323 324 326 328 329 327 326 327 326 326 327 327 327 326 326
308 308 308 308 308 309 310 310 312 314 315 316 317 318 317 318 319 319 318 319 318 317 317 317 318 319 319 320 319 319 322 322 321 321 324 325 324 324 323 323 323 326 327 327 327 327 327 327 326 326 325 324 325 322
307 307 307 309 309 309 311 313 314 315 316 317 318 319 319 319 320 320 319 320 320 320 320 320 319 319 318 318 318 319 323 323 322 324 324 325 325 325 324 322 324 325 326 326 326 325 325 323 324 323 324 325 324 325
308 307 309 308 311 312 315 315 315 316 317 317 318 318 318 321 320 321 322 323 323 322 322 322 320 319 319 321 322 322 321 320 323 324 324 324 325 325 324 324 323 323 322 323 321 320 320 322 321 323 322 322 322 320
308 309 309 312 312 313 314 317 317 316 315 317 317 319 320 320 323 322 320 324 323 322 322 322 323 323 322 322 322 323 323 324 324 324 323 322 324 324 323 322 322 321 320 324 323 323 322 322 321 318 317 318 316 316
308 311 312 311 313 314 315 316 317 316 317 318 319 320 322 324 325 320 323 321 322 324 324 323 323 322 323 323 323 324 324 324 324 324 323 322 323 322 322 320 321 322 322 322 323 322 320 319 318 316 316 316 315 315
310 312 314 314 315 315 316 316 317 319 319 317 317 323 320 326 324 322 324 324 324 324 323 323 324 324 324 323 323 323 323 323 323 323 323 323 323 322 321 322 321 320 319 318 317 316 316 317 317 317 316 315 314 314
312 313 313 314 315 316 317 317 317 318 316 315 318 324 323 323 324 325 320 322 322 324 322 321 324 323 323 324 324 323 323 323 323 322 321 320 322 321 322 320 318 317 316 316 316 317 316 315 314 314 315 315 315 315
312 313 314 315 317 317 317 317 317 317 318 319 320 321 323 322 322 323 324 321 322 324 324 323 321 321 321 321 322 323 322 321 321 320 319 319 319 317 317 316 316 316 316 316 314 315 315 314 315 316 316 316 316 315
315 315 315 315 316 315 315 317 317 317 318 319 320 322 321 321 321 320 322 322 321 322 323 323 324 325 323 322 321 321 322 321 321 320 321 317 315 316 317 316 315 314 315 315 314 312 314 315 314 315 315 315 315 315
315 315 315 316 317 318 319 319 320 321 321 321 322 321 322 322 322 322 321 322 323 324 324 323 318 320 321 322 323 320 317 317 317 317 317 318 316 317 317 317 317 315 315 315 316 316 316 316 315 315 315 314 314 312
315 315 315 316 318 320 321 322 323 322 322 322 321 321 322 320 321 321 319 319 316 315 315 314 314 315 317 317 316 315 316 317 317 316 316 316 316 317 317 317 317 317 316 316 316 316 315 315 315 314 313 312 310 309

GFSWCAN_850_thetae_147.txt.gz
Theta_e
305 304 304 304 303 304 305 309 312 313 314 314 313 314 314 315 315 314 313 316 316 315 315 315 315 315 316 316 319 321 324 325 327 327 322 321 322 323 323 322 320 320 322 320 317 327 326 328 329 328 326 329 332 333
305 305 305 304 304 304 305 307 310 312 314 314 315 314 315 316 315 313 313 315 315 315 315 315 315 314 315 316 316 320 323 324 327 326 324 323 323 324 322 326 324 326 321 322 319 319 319 328 329 333 332 332 332 332
304 305 306 307 306 304 304 305 308 311 313 313 313 313 314 315 314 313 313 312 313 313 314 315 316 316 316 316 316 315 320 323 324 324 324 322 322 322 326 327 326 325 323 324 323 327 328 330 331 334 333 332 332 330
305 305 306 306 306 307 305 303 306 309 312 311 311 313 314 314 313 312 312 311 313 313 314 315 315 315 314 314 315 315 315 322 322 322 325 325 322 324 325 325 324 323 323 322 323 324 328 328 329 331 333 333 333 332
305 305 304 303 304 305 305 304 304 307 309 310 308 310 312 314 313 312 312 312 313 312 313 315 314 316 314 316 314 314 318 315 316 322 324 324 323 324 321 322 323 325 322 322 322 324 326 327 330 330 333 333 332 333
304 303 302 302 303 303 305 304 304 303 307 309 308 309 311 313 313 312 313 315 315 314 315 316 315 314 320 320 317 316 319 315 316 320 324 324 326 322 323 323 322 325 327 326 325 327 326 326 328 332 333 331 332 328
302 302 302 302 302 303 305 305 305 305 306 308 309 308 310 312 312 312 312 315 315 314 313 315 314 315 320 322 318 317 317 317 318 320 324 323 325 325 320 323 324 326 327 326 326 327 324 326 327 331 329 330 326 326
302 301 301 303 303 303 304 305 306 306 306 308 309 309 311 312 311 311 312 312 311 314 315 315 315 316 323 324 319 317 317 317 320 323 324 324 324 323 322 322 325 326 326 326 326 327 326 325 325 328 327 324 324 324
302 301 301 302 303 303 304 304 305 307 307 307 307 308 310 310 311 313 314 315 314 314 314 316 318 320 322 323 324 321 319 317 319 318 320 323 320 322 323 323 325 326 326 326 325 326 326 325 324 324 326 325 324 325
301 301 301 302 303 304 303 304 305 305 307 307 309 310 311 312 312 313 314 314 313 314 314 315 314 314 320 323 325 324 320 318 320 320 322 321 322 324 324 324 327 326 326 325 325 326 326 326 325 325 326 326 326 326
301 301 301 303 303 303 303 304 305 306 307 308 310 311 312 313 313 313 315 315 314 315 315 314 314 314 318 323 325 324 324 322 324 323 322 322 322 323 324 325 325 324 325 325 325 325 324 323 323 324 325 326 326 326
300 300 300 303 303 303 304 304 305 306 308 310 310 311 311 312 313 314 317 317 316 318 317 317 318 316 316 321 323 324 325 324 327 322 325 324 321 323 322 322 323 325 325 325 326 325 324 324 323 325 326 326 326 326
299 299 300 303 303 303 304 305 307 307 308 309 311 311 311 312 313 317 319 319 321 320 322 322 321 320 319 320 321 321 326 325 323 323 325 322 322 324 324 323 322 321 323 325 324 326 326 324 324 324 324 325 325 326
299 299 301 302 303 303 304 306 308 308 309 310 312 309 313 316 315 317 318 319 319 320 321 319 322 322 320 320 320 323 321 323 326 327 325 323 329 332 327 325 325 326 326 325 325 326 326 324 324 325 325 324 324 324
300 300 302 302 302 302 305 307 308 309 309 310 311 311 314 314 314 314 315 317 319 318 320 321 322 323 323 323 321 322 324 326 326 326 323 326 329 330 330 329 327 326 326 328 326 327 326 324 325 326 326 325 325 325
299 301 303 305 304 303 305 306 308 308 309 310 310 312 313 314 314 316 316 317 318 318 319 321 323 323 325 325 326 326 325 326 322 320 327 325 325 327 329 330 329 330 328 326 325 326 325 325 326 326 325 325 326 326
301 303 305 306 305 304 305 307 308 308 309 311 311 311 312 312 312 313 315 317 318 318 322 322 322 323 319 322 323 321 322 321 323 326 327 328 325 323 324 329 329 327 328 327 325 325 325 326 325 325 325 325 325 326
302 305 306 305 305 305 305 307 308 309 309 310 311 312 312 313 314 313 315 316 319 319 320 322 322 320 323 324 323 321 324 324 323 323 323 323 324 325 323 324 329 328 327 327 326 326 325 325 325 326 325 325 326 326
302 304 306 307 305 306 308 308 308 309 311 311 311 312 312 312 312 313 314 315 316 319 319 320 322 320 319 321 321 321 323 323 322 321 321 321 321 322 324 327 329 329 327 327 326 326 326 325 326 326 325 325 326 326
301 303 306 307 307 307 310 309 309 310 311 312 312 312 312 313 314 314 315 315 316 318 318 318 317 320 320 319 322 322 324 323 323 322 320 320 324 324 323 324 327 328 329 328 326 327 326 326 327 325 325 325 325 324
301 303 306 306 306 307 308 309 311 311 312 313 314 314 315 316 316 316 316 316 317 318 317 319 320 319 319 318 318 322 323 324 323 321 320 322 324 324 324 326 327 328 328 328 328 328 327 326 325 325 325 324 324 324
303 306 308 308 309 308 309 308 309 310 311 313 313 314 315 314 316 316 316 316 315 316 317 317 317 319 319 319 318 322 322 322 322 321 321 323 324 324 322 322 324 325 326 328 325 325 325 325 325 325 325 324 324 324
306 306 308 306 307 309 309 309 311 312 312 314 316 316 315 316 318 318 317 317 317 316 315 315 315 316 317 318 319 319 318 318 322 321 322 325 324 324 323 322 322 322 324 327 327 327 327 326 327 326 326 326 326 325
306 308 307 308 308 308 310 311 311 313 315 316 317 318 318 318 319 318 317 318 319 319 319 319 319 317 317 318 319 320 318 318 321 321 323 323 324 324 324 323 322 322 325 326 325 324 324 323 324 323 323 324 324 322
306 306 307 308 310 310 312 314 314 315 316 317 318 316 315 320 320 318 318 320 323 322 321 321 320 320 318 318 318 318 317 318 321 323 323 323 324 325 324 323 322 324 325 325 325 325 325 324 323 322 321 322 322 322
306 308 308 311 311 312 313 315 316 316 314 315 316 317 319 319 322 321 318 322 323 322 322 322 323 321 320 319 318 319 321 321 322 323 324 323 322 323 324 323 323 322 323 323 321 320 321 321 321 321 322 322 319 318
308 309 310 310 311 313 313 314 315 314 315 317 318 319 320 323 323 320 321 322 322 323 324 323 323 322 322 323 322 321 322 322 322 323 323 323 322 323 323 321 321 321 322 323 323 322 322 321 318 317 318 316 316 317
309 310 313 313 312 313 314 316 316 318 319 316 315 317 317 317 324 323 324 324 324 323 323 324 324 324 324 323 323 323 323 324 323 324 323 323 323 321 321 322 322 322 322 322 321 320 318 315 315 315 315 315 314 314
309 311 312 312 313 315 315 315 316 317 317 316 316 316 319 323 322 321 322 323 324 322 324 324 323 324 323 323 323 323 323 323 323 323 323 322 322 321 321 320 320 319 317 316 316 317 317 318 317 316 315 314 314 314
309 311 312 313 315 315 316 317 317 316 316 317 317 318 321 322 322 323 322 323 323 322 321 322 322 321 323 323 323 323 323 323 323 323 322 321 321 321 321 318 316 316 316 316 316 315 315 314 314 315 315 315 315 315
312 315 315 315 315 315 315 315 316 316 316 316 318 321 321 321 322 322 323 323 323 323 323 323 322 321 321 321 320 320 320 320 320 320 321 321 320 318 316 316 316 316 316 314 315 315 315 314 314 315 315 315 315 315
315 315 315 316 316 317 317 319 319 320 321 321 320 321 321 321 322 321 322 321 322 322 322 322 322 321 320 320 319 317 317 318 318 318 317 317 317 316 316 316 315 315 315 314 312 313 314 315 315 314 315 315 315 314
314 314 314 315 317 319 321 321 322 322 321 321 320 320 321 321 320 320 322 321 320 318 317 318 320 321 322 320 316 317 317 316 316 316 316 316 317 317 316 316 315 314 314 314 315 315 315 314 315 315 315 314 314 313